<?xml version="1.0" encoding="UTF-8" standalone="no" ?>
<gpx xmlns="http://www.topografix.com/GPX/1/1" xmlns:xsi="http://www.w3.org/2001/XMLSchema-instance" xsi:schemaLocation="http://www.topografix.com/GPX/1/1 http://www.topografix.com/GPX/1/1/gpx.xsd" version="1.1" creator="VisuGPX - https://www.visugpx.com">
  <metadata>
    <name>Neuss - Zons</name>
  </metadata>
  <trk>
    <name><![CDATA[Neuss - Zons]]></name>
    <extensions>
      <line xmlns="http://www.topografix.com/GPX/gpx_style/0/2">
        <color>0000FF</color>
        <width>4</width>
      </line>
    </extensions>
    <trkseg>
      <trkpt lat="51.18582" lon="6.72936">
        <ele>121.985557</ele>
        <time>2021-08-07T07:53:02.000Z</time>
      </trkpt>
      <trkpt lat="51.18573" lon="6.72928">
        <ele>121.985557</ele>
        <time>2021-08-07T07:53:04.000Z</time>
      </trkpt>
      <trkpt lat="51.18572" lon="6.7293">
        <ele>121.985557</ele>
        <time>2021-08-07T07:53:09.000Z</time>
      </trkpt>
      <trkpt lat="51.18572" lon="6.72929">
        <ele>121.985557</ele>
        <time>2021-08-07T07:53:13.000Z</time>
      </trkpt>
      <trkpt lat="51.18571" lon="6.7293">
        <ele>121.985557</ele>
        <time>2021-08-07T07:53:16.000Z</time>
      </trkpt>
      <trkpt lat="51.18553" lon="6.72934">
        <ele>121.985557</ele>
        <time>2021-08-07T07:53:21.000Z</time>
      </trkpt>
      <trkpt lat="51.18543" lon="6.72932">
        <ele>121.985557</ele>
        <time>2021-08-07T07:53:25.000Z</time>
      </trkpt>
      <trkpt lat="51.18538" lon="6.72927">
        <ele>121.985557</ele>
        <time>2021-08-07T07:53:27.000Z</time>
      </trkpt>
      <trkpt lat="51.18533" lon="6.72913">
        <ele>121.985557</ele>
        <time>2021-08-07T07:53:30.000Z</time>
      </trkpt>
      <trkpt lat="51.18533" lon="6.72901">
        <ele>121.985557</ele>
        <time>2021-08-07T07:53:32.000Z</time>
      </trkpt>
      <trkpt lat="51.18534" lon="6.72896">
        <ele>121.985557</ele>
        <time>2021-08-07T07:53:33.000Z</time>
      </trkpt>
      <trkpt lat="51.18539" lon="6.72872">
        <ele>121.985557</ele>
        <time>2021-08-07T07:53:37.000Z</time>
      </trkpt>
      <trkpt lat="51.18542" lon="6.7285">
        <ele>121.983005</ele>
        <time>2021-08-07T07:53:40.000Z</time>
      </trkpt>
      <trkpt lat="51.18546" lon="6.7283">
        <ele>121.979363</ele>
        <time>2021-08-07T07:53:43.000Z</time>
      </trkpt>
      <trkpt lat="51.18548" lon="6.72815">
        <ele>121.976753</ele>
        <time>2021-08-07T07:53:45.000Z</time>
      </trkpt>
      <trkpt lat="51.18553" lon="6.72803">
        <ele>121.974182</ele>
        <time>2021-08-07T07:53:47.000Z</time>
      </trkpt>
      <trkpt lat="51.18556" lon="6.72788">
        <ele>121.971509</ele>
        <time>2021-08-07T07:53:49.000Z</time>
      </trkpt>
      <trkpt lat="51.18558" lon="6.72773">
        <ele>121.968993</ele>
        <time>2021-08-07T07:53:51.000Z</time>
      </trkpt>
      <trkpt lat="51.18561" lon="6.72752">
        <ele>121.965248</ele>
        <time>2021-08-07T07:53:54.000Z</time>
      </trkpt>
      <trkpt lat="51.18566" lon="6.72738">
        <ele>121.962537</ele>
        <time>2021-08-07T07:53:56.000Z</time>
      </trkpt>
      <trkpt lat="51.1857" lon="6.72724">
        <ele>121.959858</ele>
        <time>2021-08-07T07:53:58.000Z</time>
      </trkpt>
      <trkpt lat="51.18574" lon="6.7271">
        <ele>121.957212</ele>
        <time>2021-08-07T07:54:00.000Z</time>
      </trkpt>
      <trkpt lat="51.18578" lon="6.72678">
        <ele>121.951651</ele>
        <time>2021-08-07T07:54:05.000Z</time>
      </trkpt>
      <trkpt lat="51.18579" lon="6.72672">
        <ele>121.950644</ele>
        <time>2021-08-07T07:54:06.000Z</time>
      </trkpt>
      <trkpt lat="51.18582" lon="6.72656">
        <ele>121.947652</ele>
        <time>2021-08-07T07:54:10.000Z</time>
      </trkpt>
      <trkpt lat="51.18575" lon="6.72643">
        <ele>121.944756</ele>
        <time>2021-08-07T07:54:13.000Z</time>
      </trkpt>
      <trkpt lat="51.1856" lon="6.72631">
        <ele>121.940292</ele>
        <time>2021-08-07T07:54:17.000Z</time>
      </trkpt>
      <trkpt lat="51.18554" lon="6.72627">
        <ele>121.93844</ele>
        <time>2021-08-07T07:54:19.000Z</time>
      </trkpt>
      <trkpt lat="51.18533" lon="6.72615">
        <ele>121.755223</ele>
        <time>2021-08-07T07:54:25.000Z</time>
      </trkpt>
      <trkpt lat="51.18518" lon="6.72608">
        <ele>121.576759</ele>
        <time>2021-08-07T07:54:29.000Z</time>
      </trkpt>
      <trkpt lat="51.18504" lon="6.72605">
        <ele>121.400432</ele>
        <time>2021-08-07T07:54:34.000Z</time>
      </trkpt>
      <trkpt lat="51.18501" lon="6.72607">
        <ele>121.368673</ele>
        <time>2021-08-07T07:54:35.000Z</time>
      </trkpt>
      <trkpt lat="51.18493" lon="6.72633">
        <ele>121.15261</ele>
        <time>2021-08-07T07:54:40.000Z</time>
      </trkpt>
      <trkpt lat="51.18489" lon="6.72644">
        <ele>121.056413</ele>
        <time>2021-08-07T07:54:42.000Z</time>
      </trkpt>
      <trkpt lat="51.18481" lon="6.72662">
        <ele>120.894872</ele>
        <time>2021-08-07T07:54:45.000Z</time>
      </trkpt>
      <trkpt lat="51.18474" lon="6.72679">
        <ele>120.740891</ele>
        <time>2021-08-07T07:54:48.000Z</time>
      </trkpt>
      <trkpt lat="51.18472" lon="6.72685">
        <ele>120.692767</ele>
        <time>2021-08-07T07:54:49.000Z</time>
      </trkpt>
      <trkpt lat="51.18471" lon="6.72691">
        <ele>120.642408</ele>
        <time>2021-08-07T07:54:50.000Z</time>
      </trkpt>
      <trkpt lat="51.18462" lon="6.72711">
        <ele>120.463871</ele>
        <time>2021-08-07T07:54:53.000Z</time>
      </trkpt>
      <trkpt lat="51.18459" lon="6.72717">
        <ele>120.407279</ele>
        <time>2021-08-07T07:54:54.000Z</time>
      </trkpt>
      <trkpt lat="51.18457" lon="6.72724">
        <ele>120.34899</ele>
        <time>2021-08-07T07:54:55.000Z</time>
      </trkpt>
      <trkpt lat="51.18449" lon="6.72749">
        <ele>120.133822</ele>
        <time>2021-08-07T07:54:59.000Z</time>
      </trkpt>
      <trkpt lat="51.18444" lon="6.72762">
        <ele>120.023018</ele>
        <time>2021-08-07T07:55:01.000Z</time>
      </trkpt>
      <trkpt lat="51.18431" lon="6.72794">
        <ele>119.824791</ele>
        <time>2021-08-07T07:55:06.000Z</time>
      </trkpt>
      <trkpt lat="51.18426" lon="6.72808">
        <ele>119.887709</ele>
        <time>2021-08-07T07:55:08.000Z</time>
      </trkpt>
      <trkpt lat="51.18418" lon="6.72826">
        <ele>119.979301</ele>
        <time>2021-08-07T07:55:11.000Z</time>
      </trkpt>
      <trkpt lat="51.18409" lon="6.7285">
        <ele>120.096022</ele>
        <time>2021-08-07T07:55:15.000Z</time>
      </trkpt>
      <trkpt lat="51.1839" lon="6.72897">
        <ele>120.327028</ele>
        <time>2021-08-07T07:55:23.000Z</time>
      </trkpt>
      <trkpt lat="51.18383" lon="6.72913">
        <ele>120.408772</ele>
        <time>2021-08-07T07:55:26.000Z</time>
      </trkpt>
      <trkpt lat="51.18377" lon="6.7292">
        <ele>120.455612</ele>
        <time>2021-08-07T07:55:28.000Z</time>
      </trkpt>
      <trkpt lat="51.18367" lon="6.72933">
        <ele>120.540797</ele>
        <time>2021-08-07T07:55:33.000Z</time>
      </trkpt>
      <trkpt lat="51.18352" lon="6.72947">
        <ele>120.652732</ele>
        <time>2021-08-07T07:55:38.000Z</time>
      </trkpt>
      <trkpt lat="51.18346" lon="6.72949">
        <ele>120.695424</ele>
        <time>2021-08-07T07:55:40.000Z</time>
      </trkpt>
      <trkpt lat="51.18343" lon="6.72949">
        <ele>120.715318</ele>
        <time>2021-08-07T07:55:41.000Z</time>
      </trkpt>
      <trkpt lat="51.1834" lon="6.72948">
        <ele>120.735212</ele>
        <time>2021-08-07T07:55:42.000Z</time>
      </trkpt>
      <trkpt lat="51.1833" lon="6.7295">
        <ele>120.802286</ele>
        <time>2021-08-07T07:55:46.000Z</time>
      </trkpt>
      <trkpt lat="51.18326" lon="6.72951">
        <ele>120.830688</ele>
        <time>2021-08-07T07:55:48.000Z</time>
      </trkpt>
      <trkpt lat="51.18323" lon="6.7295">
        <ele>120.850128</ele>
        <time>2021-08-07T07:55:50.000Z</time>
      </trkpt>
      <trkpt lat="51.18323" lon="6.7295">
        <ele>120.850128</ele>
        <time>2021-08-07T07:55:52.000Z</time>
      </trkpt>
      <trkpt lat="51.18323" lon="6.7295">
        <ele>120.850128</ele>
        <time>2021-08-07T07:55:58.000Z</time>
      </trkpt>
      <trkpt lat="51.18323" lon="6.7295">
        <ele>120.850128</ele>
        <time>2021-08-07T07:56:00.000Z</time>
      </trkpt>
      <trkpt lat="51.18323" lon="6.7295">
        <ele>120.850128</ele>
        <time>2021-08-07T07:56:06.000Z</time>
      </trkpt>
      <trkpt lat="51.18323" lon="6.7295">
        <ele>120.850128</ele>
        <time>2021-08-07T07:56:12.000Z</time>
      </trkpt>
      <trkpt lat="51.18323" lon="6.7295">
        <ele>120.851444</ele>
        <time>2021-08-07T07:56:18.000Z</time>
      </trkpt>
      <trkpt lat="51.18312" lon="6.72955">
        <ele>120.926667</ele>
        <time>2021-08-07T07:56:22.000Z</time>
      </trkpt>
      <trkpt lat="51.18294" lon="6.72967">
        <ele>121.016829</ele>
        <time>2021-08-07T07:56:26.000Z</time>
      </trkpt>
      <trkpt lat="51.1829" lon="6.72971">
        <ele>121.036351</ele>
        <time>2021-08-07T07:56:27.000Z</time>
      </trkpt>
      <trkpt lat="51.18268" lon="6.72991">
        <ele>121.129322</ele>
        <time>2021-08-07T07:56:32.000Z</time>
      </trkpt>
      <trkpt lat="51.18261" lon="6.72997">
        <ele>121.158634</ele>
        <time>2021-08-07T07:56:34.000Z</time>
      </trkpt>
      <trkpt lat="51.18254" lon="6.73003">
        <ele>121.18613</ele>
        <time>2021-08-07T07:56:38.000Z</time>
      </trkpt>
      <trkpt lat="51.18254" lon="6.73003">
        <ele>121.186562</ele>
        <time>2021-08-07T07:56:44.000Z</time>
      </trkpt>
      <trkpt lat="51.18253" lon="6.73005">
        <ele>121.193443</ele>
        <time>2021-08-07T07:56:46.000Z</time>
      </trkpt>
      <trkpt lat="51.18251" lon="6.73012">
        <ele>121.211177</ele>
        <time>2021-08-07T07:56:49.000Z</time>
      </trkpt>
      <trkpt lat="51.18249" lon="6.73022">
        <ele>121.233645</ele>
        <time>2021-08-07T07:56:55.000Z</time>
      </trkpt>
      <trkpt lat="51.18249" lon="6.73022">
        <ele>121.233645</ele>
        <time>2021-08-07T07:57:07.000Z</time>
      </trkpt>
      <trkpt lat="51.1825" lon="6.73022">
        <ele>121.234743</ele>
        <time>2021-08-07T07:57:17.000Z</time>
      </trkpt>
      <trkpt lat="51.18251" lon="6.73016">
        <ele>121.248432</ele>
        <time>2021-08-07T07:57:20.000Z</time>
      </trkpt>
      <trkpt lat="51.18249" lon="6.73015">
        <ele>121.25499</ele>
        <time>2021-08-07T07:57:21.000Z</time>
      </trkpt>
      <trkpt lat="51.18242" lon="6.7302">
        <ele>121.282623</ele>
        <time>2021-08-07T07:57:24.000Z</time>
      </trkpt>
      <trkpt lat="51.18229" lon="6.73032">
        <ele>121.337502</ele>
        <time>2021-08-07T07:57:29.000Z</time>
      </trkpt>
      <trkpt lat="51.18222" lon="6.73041">
        <ele>121.372143</ele>
        <time>2021-08-07T07:57:33.000Z</time>
      </trkpt>
      <trkpt lat="51.18221" lon="6.73046">
        <ele>121.383764</ele>
        <time>2021-08-07T07:57:34.000Z</time>
      </trkpt>
      <trkpt lat="51.18221" lon="6.73068">
        <ele>121.435668</ele>
        <time>2021-08-07T07:57:40.000Z</time>
      </trkpt>
      <trkpt lat="51.18221" lon="6.73068">
        <ele>121.435668</ele>
        <time>2021-08-07T07:57:45.000Z</time>
      </trkpt>
      <trkpt lat="51.18222" lon="6.73071">
        <ele>121.442092</ele>
        <time>2021-08-07T07:57:53.000Z</time>
      </trkpt>
      <trkpt lat="51.18223" lon="6.73072">
        <ele>121.44715</ele>
        <time>2021-08-07T07:57:54.000Z</time>
      </trkpt>
      <trkpt lat="51.18225" lon="6.73084">
        <ele>121.475304</ele>
        <time>2021-08-07T07:57:58.000Z</time>
      </trkpt>
      <trkpt lat="51.18226" lon="6.73093">
        <ele>121.494939</ele>
        <time>2021-08-07T07:58:00.000Z</time>
      </trkpt>
      <trkpt lat="51.18233" lon="6.73127">
        <ele>121.577179</ele>
        <time>2021-08-07T07:58:06.000Z</time>
      </trkpt>
      <trkpt lat="51.18235" lon="6.73133">
        <ele>121.592979</ele>
        <time>2021-08-07T07:58:07.000Z</time>
      </trkpt>
      <trkpt lat="51.18245" lon="6.73148">
        <ele>121.631544</ele>
        <time>2021-08-07T07:58:10.000Z</time>
      </trkpt>
      <trkpt lat="51.18256" lon="6.73157">
        <ele>121.607329</ele>
        <time>2021-08-07T07:58:13.000Z</time>
      </trkpt>
      <trkpt lat="51.18264" lon="6.73163">
        <ele>121.590202</ele>
        <time>2021-08-07T07:58:15.000Z</time>
      </trkpt>
      <trkpt lat="51.18268" lon="6.73165">
        <ele>121.582015</ele>
        <time>2021-08-07T07:58:16.000Z</time>
      </trkpt>
      <trkpt lat="51.1828" lon="6.7318">
        <ele>121.553106</ele>
        <time>2021-08-07T07:58:20.000Z</time>
      </trkpt>
      <trkpt lat="51.18283" lon="6.73198">
        <ele>121.529895</ele>
        <time>2021-08-07T07:58:23.000Z</time>
      </trkpt>
      <trkpt lat="51.18282" lon="6.73206">
        <ele>121.52095</ele>
        <time>2021-08-07T07:58:24.000Z</time>
      </trkpt>
      <trkpt lat="51.18281" lon="6.73213">
        <ele>121.511549</ele>
        <time>2021-08-07T07:58:25.000Z</time>
      </trkpt>
      <trkpt lat="51.18279" lon="6.73221">
        <ele>121.501302</ele>
        <time>2021-08-07T07:58:26.000Z</time>
      </trkpt>
      <trkpt lat="51.18275" lon="6.73236">
        <ele>121.481549</ele>
        <time>2021-08-07T07:58:28.000Z</time>
      </trkpt>
      <trkpt lat="51.18265" lon="6.73293">
        <ele>121.410936</ele>
        <time>2021-08-07T07:58:35.000Z</time>
      </trkpt>
      <trkpt lat="51.18255" lon="6.73352">
        <ele>121.336709</ele>
        <time>2021-08-07T07:58:42.000Z</time>
      </trkpt>
      <trkpt lat="51.18254" lon="6.7336">
        <ele>121.326743</ele>
        <time>2021-08-07T07:58:43.000Z</time>
      </trkpt>
      <trkpt lat="51.18246" lon="6.73425">
        <ele>121.40296</ele>
        <time>2021-08-07T07:58:51.000Z</time>
      </trkpt>
      <trkpt lat="51.18245" lon="6.73433">
        <ele>121.429504</ele>
        <time>2021-08-07T07:58:52.000Z</time>
      </trkpt>
      <trkpt lat="51.18237" lon="6.73487">
        <ele>121.611249</ele>
        <time>2021-08-07T07:58:59.000Z</time>
      </trkpt>
      <trkpt lat="51.18232" lon="6.73509">
        <ele>121.687477</ele>
        <time>2021-08-07T07:59:02.000Z</time>
      </trkpt>
      <trkpt lat="51.1823" lon="6.73532">
        <ele>121.764232</ele>
        <time>2021-08-07T07:59:05.000Z</time>
      </trkpt>
      <trkpt lat="51.18228" lon="6.73546">
        <ele>121.813486</ele>
        <time>2021-08-07T07:59:07.000Z</time>
      </trkpt>
      <trkpt lat="51.18225" lon="6.73559">
        <ele>121.855741</ele>
        <time>2021-08-07T07:59:09.000Z</time>
      </trkpt>
      <trkpt lat="51.18221" lon="6.73574">
        <ele>121.909718</ele>
        <time>2021-08-07T07:59:11.000Z</time>
      </trkpt>
      <trkpt lat="51.18216" lon="6.73587">
        <ele>121.960301</ele>
        <time>2021-08-07T07:59:13.000Z</time>
      </trkpt>
      <trkpt lat="51.18207" lon="6.73604">
        <ele>122.030609</ele>
        <time>2021-08-07T07:59:16.000Z</time>
      </trkpt>
      <trkpt lat="51.18202" lon="6.73615">
        <ele>122.077217</ele>
        <time>2021-08-07T07:59:18.000Z</time>
      </trkpt>
      <trkpt lat="51.18197" lon="6.73625">
        <ele>122.11969</ele>
        <time>2021-08-07T07:59:20.000Z</time>
      </trkpt>
      <trkpt lat="51.18188" lon="6.73641">
        <ele>122.190502</ele>
        <time>2021-08-07T07:59:23.000Z</time>
      </trkpt>
      <trkpt lat="51.18178" lon="6.73658">
        <ele>122.241088</ele>
        <time>2021-08-07T07:59:26.000Z</time>
      </trkpt>
      <trkpt lat="51.18172" lon="6.73669">
        <ele>122.255574</ele>
        <time>2021-08-07T07:59:28.000Z</time>
      </trkpt>
      <trkpt lat="51.18166" lon="6.73678">
        <ele>122.26795</ele>
        <time>2021-08-07T07:59:30.000Z</time>
      </trkpt>
      <trkpt lat="51.1816" lon="6.73688">
        <ele>122.28181</ele>
        <time>2021-08-07T07:59:32.000Z</time>
      </trkpt>
      <trkpt lat="51.18157" lon="6.7369">
        <ele>122.286615</ele>
        <time>2021-08-07T07:59:33.000Z</time>
      </trkpt>
      <trkpt lat="51.1815" lon="6.73703">
        <ele>122.303065</ele>
        <time>2021-08-07T07:59:36.000Z</time>
      </trkpt>
      <trkpt lat="51.18146" lon="6.73713">
        <ele>122.315379</ele>
        <time>2021-08-07T07:59:38.000Z</time>
      </trkpt>
      <trkpt lat="51.18138" lon="6.7373">
        <ele>122.335689</ele>
        <time>2021-08-07T07:59:41.000Z</time>
      </trkpt>
      <trkpt lat="51.18136" lon="6.73735">
        <ele>122.342532</ele>
        <time>2021-08-07T07:59:42.000Z</time>
      </trkpt>
      <trkpt lat="51.18116" lon="6.7378">
        <ele>122.396277</ele>
        <time>2021-08-07T07:59:50.000Z</time>
      </trkpt>
      <trkpt lat="51.18112" lon="6.73793">
        <ele>122.409899</ele>
        <time>2021-08-07T07:59:52.000Z</time>
      </trkpt>
      <trkpt lat="51.18111" lon="6.73813">
        <ele>122.429628</ele>
        <time>2021-08-07T07:59:55.000Z</time>
      </trkpt>
      <trkpt lat="51.1811" lon="6.73826">
        <ele>122.442668</ele>
        <time>2021-08-07T07:59:57.000Z</time>
      </trkpt>
      <trkpt lat="51.18106" lon="6.73838">
        <ele>122.456116</ele>
        <time>2021-08-07T07:59:59.000Z</time>
      </trkpt>
      <trkpt lat="51.18092" lon="6.73876">
        <ele>122.499308</ele>
        <time>2021-08-07T08:00:05.000Z</time>
      </trkpt>
      <trkpt lat="51.18089" lon="6.73882">
        <ele>122.50613</ele>
        <time>2021-08-07T08:00:06.000Z</time>
      </trkpt>
      <trkpt lat="51.18071" lon="6.73929">
        <ele>122.694802</ele>
        <time>2021-08-07T08:00:14.000Z</time>
      </trkpt>
      <trkpt lat="51.18056" lon="6.73977">
        <ele>122.891116</ele>
        <time>2021-08-07T08:00:22.000Z</time>
      </trkpt>
      <trkpt lat="51.18045" lon="6.74035">
        <ele>123.111377</ele>
        <time>2021-08-07T08:00:31.000Z</time>
      </trkpt>
      <trkpt lat="51.18034" lon="6.74092">
        <ele>123.332507</ele>
        <time>2021-08-07T08:00:40.000Z</time>
      </trkpt>
      <trkpt lat="51.18026" lon="6.74125">
        <ele>123.45946</ele>
        <time>2021-08-07T08:00:45.000Z</time>
      </trkpt>
      <trkpt lat="51.18024" lon="6.74139">
        <ele>123.512486</ele>
        <time>2021-08-07T08:00:47.000Z</time>
      </trkpt>
      <trkpt lat="51.18014" lon="6.74185">
        <ele>123.683898</ele>
        <time>2021-08-07T08:00:54.000Z</time>
      </trkpt>
      <trkpt lat="51.18012" lon="6.74191">
        <ele>123.708238</ele>
        <time>2021-08-07T08:00:55.000Z</time>
      </trkpt>
      <trkpt lat="51.1801" lon="6.74198">
        <ele>123.732888</ele>
        <time>2021-08-07T08:00:56.000Z</time>
      </trkpt>
      <trkpt lat="51.18002" lon="6.74239">
        <ele>123.88049</ele>
        <time>2021-08-07T08:01:03.000Z</time>
      </trkpt>
      <trkpt lat="51.17996" lon="6.74264">
        <ele>123.972696</ele>
        <time>2021-08-07T08:01:09.000Z</time>
      </trkpt>
      <trkpt lat="51.17993" lon="6.74268">
        <ele>123.992125</ele>
        <time>2021-08-07T08:01:11.000Z</time>
      </trkpt>
      <trkpt lat="51.17991" lon="6.7427">
        <ele>124.007025</ele>
        <time>2021-08-07T08:01:13.000Z</time>
      </trkpt>
      <trkpt lat="51.1799" lon="6.74271">
        <ele>124.014795</ele>
        <time>2021-08-07T08:01:14.000Z</time>
      </trkpt>
      <trkpt lat="51.17971" lon="6.74282">
        <ele>124.121506</ele>
        <time>2021-08-07T08:01:21.000Z</time>
      </trkpt>
      <trkpt lat="51.17949" lon="6.74298">
        <ele>124.255214</ele>
        <time>2021-08-07T08:01:28.000Z</time>
      </trkpt>
      <trkpt lat="51.1794" lon="6.74304">
        <ele>124.311492</ele>
        <time>2021-08-07T08:01:31.000Z</time>
      </trkpt>
      <trkpt lat="51.17931" lon="6.74311">
        <ele>124.366051</ele>
        <time>2021-08-07T08:01:34.000Z</time>
      </trkpt>
      <trkpt lat="51.17929" lon="6.74315">
        <ele>124.383833</ele>
        <time>2021-08-07T08:01:35.000Z</time>
      </trkpt>
      <trkpt lat="51.1793" lon="6.74325">
        <ele>124.417285</ele>
        <time>2021-08-07T08:01:37.000Z</time>
      </trkpt>
      <trkpt lat="51.17929" lon="6.74367">
        <ele>124.541355</ele>
        <time>2021-08-07T08:01:44.000Z</time>
      </trkpt>
      <trkpt lat="51.17925" lon="6.74379">
        <ele>124.511514</ele>
        <time>2021-08-07T08:01:46.000Z</time>
      </trkpt>
      <trkpt lat="51.1792" lon="6.74391">
        <ele>124.47962</ele>
        <time>2021-08-07T08:01:48.000Z</time>
      </trkpt>
      <trkpt lat="51.17916" lon="6.74402">
        <ele>124.449072</ele>
        <time>2021-08-07T08:01:50.000Z</time>
      </trkpt>
      <trkpt lat="51.1791" lon="6.7442">
        <ele>124.405394</ele>
        <time>2021-08-07T08:01:53.000Z</time>
      </trkpt>
      <trkpt lat="51.17906" lon="6.74434">
        <ele>124.371371</ele>
        <time>2021-08-07T08:01:56.000Z</time>
      </trkpt>
      <trkpt lat="51.17901" lon="6.74458">
        <ele>124.315374</ele>
        <time>2021-08-07T08:02:02.000Z</time>
      </trkpt>
      <trkpt lat="51.17907" lon="6.74455">
        <ele>124.295119</ele>
        <time>2021-08-07T08:02:05.000Z</time>
      </trkpt>
      <trkpt lat="51.17912" lon="6.74434">
        <ele>124.24427</ele>
        <time>2021-08-07T08:02:11.000Z</time>
      </trkpt>
      <trkpt lat="51.17914" lon="6.74431">
        <ele>124.23497</ele>
        <time>2021-08-07T08:02:12.000Z</time>
      </trkpt>
      <trkpt lat="51.17921" lon="6.74428">
        <ele>124.207803</ele>
        <time>2021-08-07T08:02:15.000Z</time>
      </trkpt>
      <trkpt lat="51.17936" lon="6.7444">
        <ele>124.148179</ele>
        <time>2021-08-07T08:02:20.000Z</time>
      </trkpt>
      <trkpt lat="51.17945" lon="6.74459">
        <ele>124.095168</ele>
        <time>2021-08-07T08:02:25.000Z</time>
      </trkpt>
      <trkpt lat="51.17942" lon="6.745">
        <ele>124.003622</ele>
        <time>2021-08-07T08:02:31.000Z</time>
      </trkpt>
      <trkpt lat="51.17936" lon="6.74562">
        <ele>123.882941</ele>
        <time>2021-08-07T08:02:38.000Z</time>
      </trkpt>
      <trkpt lat="51.17926" lon="6.7462">
        <ele>123.81109</ele>
        <time>2021-08-07T08:02:45.000Z</time>
      </trkpt>
      <trkpt lat="51.17919" lon="6.74668">
        <ele>123.751165</ele>
        <time>2021-08-07T08:02:51.000Z</time>
      </trkpt>
      <trkpt lat="51.17917" lon="6.74676">
        <ele>123.74126</ele>
        <time>2021-08-07T08:02:52.000Z</time>
      </trkpt>
      <trkpt lat="51.17909" lon="6.7472">
        <ele>123.686431</ele>
        <time>2021-08-07T08:02:58.000Z</time>
      </trkpt>
      <trkpt lat="51.17908" lon="6.74735">
        <ele>123.668571</ele>
        <time>2021-08-07T08:03:00.000Z</time>
      </trkpt>
      <trkpt lat="51.17904" lon="6.74757">
        <ele>123.641144</ele>
        <time>2021-08-07T08:03:03.000Z</time>
      </trkpt>
      <trkpt lat="51.17901" lon="6.74788">
        <ele>123.604276</ele>
        <time>2021-08-07T08:03:07.000Z</time>
      </trkpt>
      <trkpt lat="51.17893" lon="6.74856">
        <ele>123.547567</ele>
        <time>2021-08-07T08:03:16.000Z</time>
      </trkpt>
      <trkpt lat="51.17884" lon="6.74925">
        <ele>123.516523</ele>
        <time>2021-08-07T08:03:26.000Z</time>
      </trkpt>
      <trkpt lat="51.17883" lon="6.74933">
        <ele>123.512784</ele>
        <time>2021-08-07T08:03:27.000Z</time>
      </trkpt>
      <trkpt lat="51.17875" lon="6.74982">
        <ele>123.49057</ele>
        <time>2021-08-07T08:03:34.000Z</time>
      </trkpt>
      <trkpt lat="51.17868" lon="6.75049">
        <ele>123.460455</ele>
        <time>2021-08-07T08:03:43.000Z</time>
      </trkpt>
      <trkpt lat="51.17867" lon="6.75064">
        <ele>123.453742</ele>
        <time>2021-08-07T08:03:45.000Z</time>
      </trkpt>
      <trkpt lat="51.17862" lon="6.751">
        <ele>123.437344</ele>
        <time>2021-08-07T08:03:50.000Z</time>
      </trkpt>
      <trkpt lat="51.17854" lon="6.75156">
        <ele>123.384012</ele>
        <time>2021-08-07T08:03:58.000Z</time>
      </trkpt>
      <trkpt lat="51.1785" lon="6.75184">
        <ele>123.357142</ele>
        <time>2021-08-07T08:04:02.000Z</time>
      </trkpt>
      <trkpt lat="51.17852" lon="6.75205">
        <ele>123.336964</ele>
        <time>2021-08-07T08:04:05.000Z</time>
      </trkpt>
      <trkpt lat="51.17852" lon="6.75228">
        <ele>123.314931</ele>
        <time>2021-08-07T08:04:08.000Z</time>
      </trkpt>
      <trkpt lat="51.17851" lon="6.75243">
        <ele>123.300594</ele>
        <time>2021-08-07T08:04:10.000Z</time>
      </trkpt>
      <trkpt lat="51.1785" lon="6.75256">
        <ele>123.287337</ele>
        <time>2021-08-07T08:04:12.000Z</time>
      </trkpt>
      <trkpt lat="51.17848" lon="6.75304">
        <ele>123.241734</ele>
        <time>2021-08-07T08:04:19.000Z</time>
      </trkpt>
      <trkpt lat="51.17845" lon="6.75367">
        <ele>123.1813</ele>
        <time>2021-08-07T08:04:28.000Z</time>
      </trkpt>
      <trkpt lat="51.17845" lon="6.75381">
        <ele>123.16842</ele>
        <time>2021-08-07T08:04:30.000Z</time>
      </trkpt>
      <trkpt lat="51.17842" lon="6.75452">
        <ele>122.82963</ele>
        <time>2021-08-07T08:04:40.000Z</time>
      </trkpt>
      <trkpt lat="51.17842" lon="6.75472">
        <ele>122.73065</ele>
        <time>2021-08-07T08:04:43.000Z</time>
      </trkpt>
      <trkpt lat="51.17839" lon="6.75504">
        <ele>122.56441</ele>
        <time>2021-08-07T08:04:48.000Z</time>
      </trkpt>
      <trkpt lat="51.17838" lon="6.75517">
        <ele>122.49936</ele>
        <time>2021-08-07T08:04:50.000Z</time>
      </trkpt>
      <trkpt lat="51.17837" lon="6.75545">
        <ele>122.353415</ele>
        <time>2021-08-07T08:04:54.000Z</time>
      </trkpt>
      <trkpt lat="51.17833" lon="6.7559">
        <ele>122.124059</ele>
        <time>2021-08-07T08:04:59.000Z</time>
      </trkpt>
      <trkpt lat="51.17832" lon="6.756">
        <ele>122.071526</ele>
        <time>2021-08-07T08:05:00.000Z</time>
      </trkpt>
      <trkpt lat="51.17829" lon="6.75642">
        <ele>121.857477</ele>
        <time>2021-08-07T08:05:04.000Z</time>
      </trkpt>
      <trkpt lat="51.17826" lon="6.75663">
        <ele>121.747783</ele>
        <time>2021-08-07T08:05:06.000Z</time>
      </trkpt>
      <trkpt lat="51.17821" lon="6.75702">
        <ele>121.71039</ele>
        <time>2021-08-07T08:05:10.000Z</time>
      </trkpt>
      <trkpt lat="51.17818" lon="6.75738">
        <ele>121.714743</ele>
        <time>2021-08-07T08:05:14.000Z</time>
      </trkpt>
      <trkpt lat="51.1781" lon="6.7579">
        <ele>121.721003</ele>
        <time>2021-08-07T08:05:20.000Z</time>
      </trkpt>
      <trkpt lat="51.17798" lon="6.75847">
        <ele>121.728133</ele>
        <time>2021-08-07T08:05:28.000Z</time>
      </trkpt>
      <trkpt lat="51.17792" lon="6.7587">
        <ele>121.731127</ele>
        <time>2021-08-07T08:05:32.000Z</time>
      </trkpt>
      <trkpt lat="51.1779" lon="6.75882">
        <ele>121.73259</ele>
        <time>2021-08-07T08:05:34.000Z</time>
      </trkpt>
      <trkpt lat="51.1779" lon="6.75888">
        <ele>121.733281</ele>
        <time>2021-08-07T08:05:35.000Z</time>
      </trkpt>
      <trkpt lat="51.17796" lon="6.7591">
        <ele>121.736057</ele>
        <time>2021-08-07T08:05:39.000Z</time>
      </trkpt>
      <trkpt lat="51.17797" lon="6.75917">
        <ele>121.736954</ele>
        <time>2021-08-07T08:05:40.000Z</time>
      </trkpt>
      <trkpt lat="51.17799" lon="6.75933">
        <ele>121.738971</ele>
        <time>2021-08-07T08:05:42.000Z</time>
      </trkpt>
      <trkpt lat="51.17799" lon="6.75942">
        <ele>121.740042</ele>
        <time>2021-08-07T08:05:43.000Z</time>
      </trkpt>
      <trkpt lat="51.17799" lon="6.75951">
        <ele>121.733303</ele>
        <time>2021-08-07T08:05:44.000Z</time>
      </trkpt>
      <trkpt lat="51.17794" lon="6.75999">
        <ele>121.620814</ele>
        <time>2021-08-07T08:05:49.000Z</time>
      </trkpt>
      <trkpt lat="51.1779" lon="6.76017">
        <ele>121.575922</ele>
        <time>2021-08-07T08:05:51.000Z</time>
      </trkpt>
      <trkpt lat="51.17785" lon="6.76043">
        <ele>121.513483</ele>
        <time>2021-08-07T08:05:54.000Z</time>
      </trkpt>
      <trkpt lat="51.17781" lon="6.76068">
        <ele>121.453941</ele>
        <time>2021-08-07T08:05:57.000Z</time>
      </trkpt>
      <trkpt lat="51.17779" lon="6.76091">
        <ele>121.397785</ele>
        <time>2021-08-07T08:06:00.000Z</time>
      </trkpt>
      <trkpt lat="51.17778" lon="6.76099">
        <ele>121.379107</ele>
        <time>2021-08-07T08:06:01.000Z</time>
      </trkpt>
      <trkpt lat="51.17775" lon="6.76122">
        <ele>121.325265</ele>
        <time>2021-08-07T08:06:04.000Z</time>
      </trkpt>
      <trkpt lat="51.17766" lon="6.76162">
        <ele>121.225222</ele>
        <time>2021-08-07T08:06:09.000Z</time>
      </trkpt>
      <trkpt lat="51.17754" lon="6.76214">
        <ele>121.095702</ele>
        <time>2021-08-07T08:06:16.000Z</time>
      </trkpt>
      <trkpt lat="51.17747" lon="6.76236">
        <ele>121.022192</ele>
        <time>2021-08-07T08:06:19.000Z</time>
      </trkpt>
      <trkpt lat="51.17742" lon="6.76257">
        <ele>120.93712</ele>
        <time>2021-08-07T08:06:22.000Z</time>
      </trkpt>
      <trkpt lat="51.17729" lon="6.76305">
        <ele>120.751506</ele>
        <time>2021-08-07T08:06:28.000Z</time>
      </trkpt>
      <trkpt lat="51.17728" lon="6.76313">
        <ele>120.720197</ele>
        <time>2021-08-07T08:06:29.000Z</time>
      </trkpt>
      <trkpt lat="51.17728" lon="6.76322">
        <ele>120.687918</ele>
        <time>2021-08-07T08:06:30.000Z</time>
      </trkpt>
      <trkpt lat="51.17722" lon="6.76377">
        <ele>120.488072</ele>
        <time>2021-08-07T08:06:36.000Z</time>
      </trkpt>
      <trkpt lat="51.17722" lon="6.76386">
        <ele>120.45436</ele>
        <time>2021-08-07T08:06:37.000Z</time>
      </trkpt>
      <trkpt lat="51.17721" lon="6.76414">
        <ele>120.353914</ele>
        <time>2021-08-07T08:06:40.000Z</time>
      </trkpt>
      <trkpt lat="51.17725" lon="6.76466">
        <ele>120.162237</ele>
        <time>2021-08-07T08:06:46.000Z</time>
      </trkpt>
      <trkpt lat="51.17734" lon="6.76519">
        <ele>120.010042</ele>
        <time>2021-08-07T08:06:53.000Z</time>
      </trkpt>
      <trkpt lat="51.17749" lon="6.76575">
        <ele>119.934826</ele>
        <time>2021-08-07T08:07:01.000Z</time>
      </trkpt>
      <trkpt lat="51.17763" lon="6.76619">
        <ele>119.874716</ele>
        <time>2021-08-07T08:07:07.000Z</time>
      </trkpt>
      <trkpt lat="51.17775" lon="6.76655">
        <ele>119.824123</ele>
        <time>2021-08-07T08:07:12.000Z</time>
      </trkpt>
      <trkpt lat="51.17788" lon="6.7669">
        <ele>119.774661</ele>
        <time>2021-08-07T08:07:17.000Z</time>
      </trkpt>
      <trkpt lat="51.17792" lon="6.76704">
        <ele>119.75582</ele>
        <time>2021-08-07T08:07:19.000Z</time>
      </trkpt>
      <trkpt lat="51.17795" lon="6.7671">
        <ele>119.746339</ele>
        <time>2021-08-07T08:07:20.000Z</time>
      </trkpt>
      <trkpt lat="51.17799" lon="6.76724">
        <ele>119.727668</ele>
        <time>2021-08-07T08:07:22.000Z</time>
      </trkpt>
      <trkpt lat="51.17801" lon="6.7673">
        <ele>119.718586</ele>
        <time>2021-08-07T08:07:23.000Z</time>
      </trkpt>
      <trkpt lat="51.17809" lon="6.76759">
        <ele>119.680469</ele>
        <time>2021-08-07T08:07:27.000Z</time>
      </trkpt>
      <trkpt lat="51.17809" lon="6.76774">
        <ele>119.693763</ele>
        <time>2021-08-07T08:07:29.000Z</time>
      </trkpt>
      <trkpt lat="51.17806" lon="6.76789">
        <ele>119.707168</ele>
        <time>2021-08-07T08:07:31.000Z</time>
      </trkpt>
      <trkpt lat="51.17801" lon="6.76802">
        <ele>119.720786</ele>
        <time>2021-08-07T08:07:33.000Z</time>
      </trkpt>
      <trkpt lat="51.17799" lon="6.76809">
        <ele>119.727696</ele>
        <time>2021-08-07T08:07:34.000Z</time>
      </trkpt>
      <trkpt lat="51.17797" lon="6.76815">
        <ele>119.734255</ele>
        <time>2021-08-07T08:07:35.000Z</time>
      </trkpt>
      <trkpt lat="51.17793" lon="6.76829">
        <ele>119.747479</ele>
        <time>2021-08-07T08:07:37.000Z</time>
      </trkpt>
      <trkpt lat="51.17792" lon="6.76844">
        <ele>119.760743</ele>
        <time>2021-08-07T08:07:39.000Z</time>
      </trkpt>
      <trkpt lat="51.17786" lon="6.76924">
        <ele>119.831861</ele>
        <time>2021-08-07T08:07:50.000Z</time>
      </trkpt>
      <trkpt lat="51.17785" lon="6.76964">
        <ele>119.867834</ele>
        <time>2021-08-07T08:07:56.000Z</time>
      </trkpt>
      <trkpt lat="51.17783" lon="6.76983">
        <ele>119.884876</ele>
        <time>2021-08-07T08:07:59.000Z</time>
      </trkpt>
      <trkpt lat="51.17783" lon="6.7699">
        <ele>119.891032</ele>
        <time>2021-08-07T08:08:00.000Z</time>
      </trkpt>
      <trkpt lat="51.17782" lon="6.77004">
        <ele>119.902903</ele>
        <time>2021-08-07T08:08:02.000Z</time>
      </trkpt>
      <trkpt lat="51.17781" lon="6.77018">
        <ele>119.915391</ele>
        <time>2021-08-07T08:08:04.000Z</time>
      </trkpt>
      <trkpt lat="51.1778" lon="6.77032">
        <ele>119.928657</ele>
        <time>2021-08-07T08:08:06.000Z</time>
      </trkpt>
      <trkpt lat="51.17779" lon="6.77048">
        <ele>119.928388</ele>
        <time>2021-08-07T08:08:08.000Z</time>
      </trkpt>
      <trkpt lat="51.17777" lon="6.77071">
        <ele>119.911687</ele>
        <time>2021-08-07T08:08:11.000Z</time>
      </trkpt>
      <trkpt lat="51.17772" lon="6.77136">
        <ele>119.86436</ele>
        <time>2021-08-07T08:08:20.000Z</time>
      </trkpt>
      <trkpt lat="51.17771" lon="6.7715">
        <ele>119.854113</ele>
        <time>2021-08-07T08:08:22.000Z</time>
      </trkpt>
      <trkpt lat="51.17768" lon="6.77206">
        <ele>119.813643</ele>
        <time>2021-08-07T08:08:30.000Z</time>
      </trkpt>
      <trkpt lat="51.17763" lon="6.77274">
        <ele>119.763948</ele>
        <time>2021-08-07T08:08:39.000Z</time>
      </trkpt>
      <trkpt lat="51.17759" lon="6.77351">
        <ele>119.775832</ele>
        <time>2021-08-07T08:08:50.000Z</time>
      </trkpt>
      <trkpt lat="51.17758" lon="6.77372">
        <ele>119.81279</ele>
        <time>2021-08-07T08:08:53.000Z</time>
      </trkpt>
      <trkpt lat="51.17755" lon="6.77459">
        <ele>119.968212</ele>
        <time>2021-08-07T08:09:06.000Z</time>
      </trkpt>
      <trkpt lat="51.17748" lon="6.77517">
        <ele>120.072188</ele>
        <time>2021-08-07T08:09:14.000Z</time>
      </trkpt>
      <trkpt lat="51.17748" lon="6.77524">
        <ele>120.084646</ele>
        <time>2021-08-07T08:09:15.000Z</time>
      </trkpt>
      <trkpt lat="51.17747" lon="6.77538">
        <ele>120.109372</ele>
        <time>2021-08-07T08:09:17.000Z</time>
      </trkpt>
      <trkpt lat="51.17745" lon="6.77573">
        <ele>120.172352</ele>
        <time>2021-08-07T08:09:22.000Z</time>
      </trkpt>
      <trkpt lat="51.17744" lon="6.77588">
        <ele>120.198964</ele>
        <time>2021-08-07T08:09:24.000Z</time>
      </trkpt>
      <trkpt lat="51.1774" lon="6.77652">
        <ele>120.227478</ele>
        <time>2021-08-07T08:09:33.000Z</time>
      </trkpt>
      <trkpt lat="51.17734" lon="6.7773">
        <ele>120.208685</ele>
        <time>2021-08-07T08:09:44.000Z</time>
      </trkpt>
      <trkpt lat="51.1773" lon="6.778">
        <ele>120.191703</ele>
        <time>2021-08-07T08:09:55.000Z</time>
      </trkpt>
      <trkpt lat="51.17727" lon="6.77849">
        <ele>120.179921</ele>
        <time>2021-08-07T08:10:02.000Z</time>
      </trkpt>
      <trkpt lat="51.17727" lon="6.77856">
        <ele>120.178219</ele>
        <time>2021-08-07T08:10:03.000Z</time>
      </trkpt>
      <trkpt lat="51.17722" lon="6.7793">
        <ele>120.249589</ele>
        <time>2021-08-07T08:10:13.000Z</time>
      </trkpt>
      <trkpt lat="51.17719" lon="6.7794">
        <ele>120.27678</ele>
        <time>2021-08-07T08:10:15.000Z</time>
      </trkpt>
      <trkpt lat="51.17712" lon="6.77944">
        <ele>120.301808</ele>
        <time>2021-08-07T08:10:17.000Z</time>
      </trkpt>
      <trkpt lat="51.17698" lon="6.77942">
        <ele>120.356424</ele>
        <time>2021-08-07T08:10:22.000Z</time>
      </trkpt>
      <trkpt lat="51.17695" lon="6.77941">
        <ele>120.366025</ele>
        <time>2021-08-07T08:10:26.000Z</time>
      </trkpt>
      <trkpt lat="51.17695" lon="6.77941">
        <ele>120.366619</ele>
        <time>2021-08-07T08:10:31.000Z</time>
      </trkpt>
      <trkpt lat="51.17696" lon="6.77941">
        <ele>120.367729</ele>
        <time>2021-08-07T08:10:44.000Z</time>
      </trkpt>
      <trkpt lat="51.17696" lon="6.77941">
        <ele>120.367729</ele>
        <time>2021-08-07T08:10:50.000Z</time>
      </trkpt>
      <trkpt lat="51.17696" lon="6.77941">
        <ele>120.367729</ele>
        <time>2021-08-07T08:10:53.000Z</time>
      </trkpt>
      <trkpt lat="51.17696" lon="6.77941">
        <ele>120.367729</ele>
        <time>2021-08-07T08:10:55.000Z</time>
      </trkpt>
      <trkpt lat="51.17696" lon="6.77941">
        <ele>120.367729</ele>
        <time>2021-08-07T08:11:19.000Z</time>
      </trkpt>
      <trkpt lat="51.17696" lon="6.77941">
        <ele>120.367729</ele>
        <time>2021-08-07T08:11:27.000Z</time>
      </trkpt>
      <trkpt lat="51.17696" lon="6.77941">
        <ele>120.367729</ele>
        <time>2021-08-07T08:11:30.000Z</time>
      </trkpt>
      <trkpt lat="51.17694" lon="6.77941">
        <ele>120.374129</ele>
        <time>2021-08-07T08:11:51.000Z</time>
      </trkpt>
      <trkpt lat="51.17694" lon="6.77941">
        <ele>120.374129</ele>
        <time>2021-08-07T08:12:22.000Z</time>
      </trkpt>
      <trkpt lat="51.17692" lon="6.77941">
        <ele>120.383062</ele>
        <time>2021-08-07T08:12:40.000Z</time>
      </trkpt>
      <trkpt lat="51.17686" lon="6.7794">
        <ele>120.402381</ele>
        <time>2021-08-07T08:12:42.000Z</time>
      </trkpt>
      <trkpt lat="51.17673" lon="6.77938">
        <ele>120.450577</ele>
        <time>2021-08-07T08:12:46.000Z</time>
      </trkpt>
      <trkpt lat="51.1767" lon="6.77937">
        <ele>120.464432</ele>
        <time>2021-08-07T08:12:47.000Z</time>
      </trkpt>
      <trkpt lat="51.17666" lon="6.77936">
        <ele>120.478548</ele>
        <time>2021-08-07T08:12:48.000Z</time>
      </trkpt>
      <trkpt lat="51.17639" lon="6.77931">
        <ele>120.578182</ele>
        <time>2021-08-07T08:12:55.000Z</time>
      </trkpt>
      <trkpt lat="51.17612" lon="6.77928">
        <ele>120.67915</ele>
        <time>2021-08-07T08:13:01.000Z</time>
      </trkpt>
      <trkpt lat="51.17602" lon="6.77926">
        <ele>120.715275</ele>
        <time>2021-08-07T08:13:03.000Z</time>
      </trkpt>
      <trkpt lat="51.17565" lon="6.7792">
        <ele>120.872581</ele>
        <time>2021-08-07T08:13:11.000Z</time>
      </trkpt>
      <trkpt lat="51.17515" lon="6.77915">
        <ele>121.231098</ele>
        <time>2021-08-07T08:13:22.000Z</time>
      </trkpt>
      <trkpt lat="51.17511" lon="6.77915">
        <ele>121.257405</ele>
        <time>2021-08-07T08:13:23.000Z</time>
      </trkpt>
      <trkpt lat="51.17501" lon="6.77916">
        <ele>121.329433</ele>
        <time>2021-08-07T08:13:26.000Z</time>
      </trkpt>
      <trkpt lat="51.17494" lon="6.77918">
        <ele>121.375304</ele>
        <time>2021-08-07T08:13:28.000Z</time>
      </trkpt>
      <trkpt lat="51.1748" lon="6.77933">
        <ele>121.499341</ele>
        <time>2021-08-07T08:13:33.000Z</time>
      </trkpt>
      <trkpt lat="51.17467" lon="6.77954">
        <ele>121.63104</ele>
        <time>2021-08-07T08:13:38.000Z</time>
      </trkpt>
      <trkpt lat="51.17463" lon="6.77953">
        <ele>121.656742</ele>
        <time>2021-08-07T08:13:39.000Z</time>
      </trkpt>
      <trkpt lat="51.17459" lon="6.77952">
        <ele>121.686425</ele>
        <time>2021-08-07T08:13:40.000Z</time>
      </trkpt>
      <trkpt lat="51.17441" lon="6.77948">
        <ele>121.811385</ele>
        <time>2021-08-07T08:13:44.000Z</time>
      </trkpt>
      <trkpt lat="51.17437" lon="6.77948">
        <ele>121.842035</ele>
        <time>2021-08-07T08:13:45.000Z</time>
      </trkpt>
      <trkpt lat="51.17433" lon="6.7795">
        <ele>121.87408</ele>
        <time>2021-08-07T08:13:46.000Z</time>
      </trkpt>
      <trkpt lat="51.17417" lon="6.77961">
        <ele>121.996571</ele>
        <time>2021-08-07T08:13:50.000Z</time>
      </trkpt>
      <trkpt lat="51.17394" lon="6.77979">
        <ele>122.159605</ele>
        <time>2021-08-07T08:13:56.000Z</time>
      </trkpt>
      <trkpt lat="51.17386" lon="6.77981">
        <ele>122.198895</ele>
        <time>2021-08-07T08:13:58.000Z</time>
      </trkpt>
      <trkpt lat="51.17372" lon="6.77979">
        <ele>122.264144</ele>
        <time>2021-08-07T08:14:01.000Z</time>
      </trkpt>
      <trkpt lat="51.17369" lon="6.77978">
        <ele>122.282101</ele>
        <time>2021-08-07T08:14:02.000Z</time>
      </trkpt>
      <trkpt lat="51.17365" lon="6.77975">
        <ele>122.302021</ele>
        <time>2021-08-07T08:14:03.000Z</time>
      </trkpt>
      <trkpt lat="51.1733" lon="6.77943">
        <ele>122.499578</ele>
        <time>2021-08-07T08:14:13.000Z</time>
      </trkpt>
      <trkpt lat="51.17314" lon="6.7793">
        <ele>122.582452</ele>
        <time>2021-08-07T08:14:17.000Z</time>
      </trkpt>
      <trkpt lat="51.17295" lon="6.77914">
        <ele>122.688142</ele>
        <time>2021-08-07T08:14:22.000Z</time>
      </trkpt>
      <trkpt lat="51.17284" lon="6.77904">
        <ele>122.749332</ele>
        <time>2021-08-07T08:14:25.000Z</time>
      </trkpt>
      <trkpt lat="51.17277" lon="6.77898">
        <ele>122.788432</ele>
        <time>2021-08-07T08:14:27.000Z</time>
      </trkpt>
      <trkpt lat="51.1727" lon="6.77891">
        <ele>122.827805</ele>
        <time>2021-08-07T08:14:29.000Z</time>
      </trkpt>
      <trkpt lat="51.17267" lon="6.77889">
        <ele>122.844814</ele>
        <time>2021-08-07T08:14:30.000Z</time>
      </trkpt>
      <trkpt lat="51.1724" lon="6.77866">
        <ele>122.983802</ele>
        <time>2021-08-07T08:14:38.000Z</time>
      </trkpt>
      <trkpt lat="51.17217" lon="6.77846">
        <ele>122.988982</ele>
        <time>2021-08-07T08:14:44.000Z</time>
      </trkpt>
      <trkpt lat="51.17213" lon="6.77842">
        <ele>122.989875</ele>
        <time>2021-08-07T08:14:45.000Z</time>
      </trkpt>
      <trkpt lat="51.17197" lon="6.77832">
        <ele>122.993244</ele>
        <time>2021-08-07T08:14:49.000Z</time>
      </trkpt>
      <trkpt lat="51.17187" lon="6.77823">
        <ele>122.995617</ele>
        <time>2021-08-07T08:14:52.000Z</time>
      </trkpt>
      <trkpt lat="51.17162" lon="6.77809">
        <ele>123.00084</ele>
        <time>2021-08-07T08:14:58.000Z</time>
      </trkpt>
      <trkpt lat="51.1714" lon="6.77812">
        <ele>123.00524</ele>
        <time>2021-08-07T08:15:03.000Z</time>
      </trkpt>
      <trkpt lat="51.17135" lon="6.77813">
        <ele>123.006229</ele>
        <time>2021-08-07T08:15:04.000Z</time>
      </trkpt>
      <trkpt lat="51.171" lon="6.77823">
        <ele>123.013461</ele>
        <time>2021-08-07T08:15:11.000Z</time>
      </trkpt>
      <trkpt lat="51.17066" lon="6.77832">
        <ele>123.041907</ele>
        <time>2021-08-07T08:15:18.000Z</time>
      </trkpt>
      <trkpt lat="51.17045" lon="6.77838">
        <ele>123.127162</ele>
        <time>2021-08-07T08:15:23.000Z</time>
      </trkpt>
      <trkpt lat="51.17042" lon="6.77838">
        <ele>123.140799</ele>
        <time>2021-08-07T08:15:24.000Z</time>
      </trkpt>
      <trkpt lat="51.17032" lon="6.77834">
        <ele>123.181204</ele>
        <time>2021-08-07T08:15:27.000Z</time>
      </trkpt>
      <trkpt lat="51.17027" lon="6.7783">
        <ele>123.208453</ele>
        <time>2021-08-07T08:15:29.000Z</time>
      </trkpt>
      <trkpt lat="51.17009" lon="6.77816">
        <ele>123.289093</ele>
        <time>2021-08-07T08:15:35.000Z</time>
      </trkpt>
      <trkpt lat="51.17001" lon="6.77828">
        <ele>123.33634</ele>
        <time>2021-08-07T08:15:38.000Z</time>
      </trkpt>
      <trkpt lat="51.16979" lon="6.77871">
        <ele>123.481786</ele>
        <time>2021-08-07T08:15:46.000Z</time>
      </trkpt>
      <trkpt lat="51.16955" lon="6.77921">
        <ele>123.641021</ele>
        <time>2021-08-07T08:15:54.000Z</time>
      </trkpt>
      <trkpt lat="51.16952" lon="6.77927">
        <ele>123.66235</ele>
        <time>2021-08-07T08:15:55.000Z</time>
      </trkpt>
      <trkpt lat="51.16925" lon="6.77979">
        <ele>123.710395</ele>
        <time>2021-08-07T08:16:05.000Z</time>
      </trkpt>
      <trkpt lat="51.16915" lon="6.78">
        <ele>123.662756</ele>
        <time>2021-08-07T08:16:09.000Z</time>
      </trkpt>
      <trkpt lat="51.16904" lon="6.78021">
        <ele>123.613377</ele>
        <time>2021-08-07T08:16:13.000Z</time>
      </trkpt>
      <trkpt lat="51.16901" lon="6.78026">
        <ele>123.601011</ele>
        <time>2021-08-07T08:16:14.000Z</time>
      </trkpt>
      <trkpt lat="51.16885" lon="6.78057">
        <ele>123.528068</ele>
        <time>2021-08-07T08:16:20.000Z</time>
      </trkpt>
      <trkpt lat="51.16876" lon="6.78075">
        <ele>123.486868</ele>
        <time>2021-08-07T08:16:24.000Z</time>
      </trkpt>
      <trkpt lat="51.16872" lon="6.78087">
        <ele>123.462389</ele>
        <time>2021-08-07T08:16:29.000Z</time>
      </trkpt>
      <trkpt lat="51.16872" lon="6.78088">
        <ele>123.459548</ele>
        <time>2021-08-07T08:16:34.000Z</time>
      </trkpt>
      <trkpt lat="51.16873" lon="6.78088">
        <ele>123.457785</ele>
        <time>2021-08-07T08:16:40.000Z</time>
      </trkpt>
      <trkpt lat="51.16873" lon="6.78088">
        <ele>123.457785</ele>
        <time>2021-08-07T08:16:46.000Z</time>
      </trkpt>
      <trkpt lat="51.16873" lon="6.78088">
        <ele>123.457785</ele>
        <time>2021-08-07T08:16:50.000Z</time>
      </trkpt>
      <trkpt lat="51.16873" lon="6.78088">
        <ele>123.457785</ele>
        <time>2021-08-07T08:17:14.000Z</time>
      </trkpt>
      <trkpt lat="51.16873" lon="6.78089">
        <ele>123.457008</ele>
        <time>2021-08-07T08:17:28.000Z</time>
      </trkpt>
      <trkpt lat="51.16873" lon="6.78089">
        <ele>123.456432</ele>
        <time>2021-08-07T08:17:35.000Z</time>
      </trkpt>
      <trkpt lat="51.16873" lon="6.78089">
        <ele>123.455569</ele>
        <time>2021-08-07T08:18:09.000Z</time>
      </trkpt>
      <trkpt lat="51.16874" lon="6.78088">
        <ele>123.453569</ele>
        <time>2021-08-07T08:18:20.000Z</time>
      </trkpt>
      <trkpt lat="51.16874" lon="6.78087">
        <ele>123.453028</ele>
        <time>2021-08-07T08:18:23.000Z</time>
      </trkpt>
      <trkpt lat="51.16872" lon="6.78091">
        <ele>123.445041</ele>
        <time>2021-08-07T08:18:26.000Z</time>
      </trkpt>
      <trkpt lat="51.16872" lon="6.78092">
        <ele>123.442974</ele>
        <time>2021-08-07T08:18:27.000Z</time>
      </trkpt>
      <trkpt lat="51.16872" lon="6.78092">
        <ele>123.442361</ele>
        <time>2021-08-07T08:18:32.000Z</time>
      </trkpt>
      <trkpt lat="51.16872" lon="6.78091">
        <ele>123.440557</ele>
        <time>2021-08-07T08:18:40.000Z</time>
      </trkpt>
      <trkpt lat="51.16872" lon="6.78091">
        <ele>123.440557</ele>
        <time>2021-08-07T08:18:44.000Z</time>
      </trkpt>
      <trkpt lat="51.16874" lon="6.78092">
        <ele>123.434792</ele>
        <time>2021-08-07T08:19:01.000Z</time>
      </trkpt>
      <trkpt lat="51.16878" lon="6.78095">
        <ele>123.422254</ele>
        <time>2021-08-07T08:19:03.000Z</time>
      </trkpt>
      <trkpt lat="51.16893" lon="6.78114">
        <ele>123.366688</ele>
        <time>2021-08-07T08:19:09.000Z</time>
      </trkpt>
      <trkpt lat="51.16902" lon="6.78127">
        <ele>123.331357</ele>
        <time>2021-08-07T08:19:12.000Z</time>
      </trkpt>
      <trkpt lat="51.16908" lon="6.78136">
        <ele>123.307325</ele>
        <time>2021-08-07T08:19:14.000Z</time>
      </trkpt>
      <trkpt lat="51.16917" lon="6.7815">
        <ele>123.269823</ele>
        <time>2021-08-07T08:19:17.000Z</time>
      </trkpt>
      <trkpt lat="51.1693" lon="6.78169">
        <ele>123.264936</ele>
        <time>2021-08-07T08:19:21.000Z</time>
      </trkpt>
      <trkpt lat="51.16949" lon="6.78197">
        <ele>123.323956</ele>
        <time>2021-08-07T08:19:27.000Z</time>
      </trkpt>
      <trkpt lat="51.16982" lon="6.78247">
        <ele>123.427879</ele>
        <time>2021-08-07T08:19:37.000Z</time>
      </trkpt>
      <trkpt lat="51.17014" lon="6.78296">
        <ele>123.527484</ele>
        <time>2021-08-07T08:19:47.000Z</time>
      </trkpt>
      <trkpt lat="51.1702" lon="6.78306">
        <ele>123.547763</ele>
        <time>2021-08-07T08:19:49.000Z</time>
      </trkpt>
      <trkpt lat="51.17022" lon="6.78319">
        <ele>123.566787</ele>
        <time>2021-08-07T08:19:51.000Z</time>
      </trkpt>
      <trkpt lat="51.17022" lon="6.7834">
        <ele>123.59667</ele>
        <time>2021-08-07T08:19:54.000Z</time>
      </trkpt>
      <trkpt lat="51.1702" lon="6.78361">
        <ele>123.627553</ele>
        <time>2021-08-07T08:19:57.000Z</time>
      </trkpt>
      <trkpt lat="51.17017" lon="6.78406">
        <ele>123.705102</ele>
        <time>2021-08-07T08:20:03.000Z</time>
      </trkpt>
      <trkpt lat="51.17011" lon="6.78459">
        <ele>123.80911</ele>
        <time>2021-08-07T08:20:10.000Z</time>
      </trkpt>
      <trkpt lat="51.17001" lon="6.78541">
        <ele>123.973615</ele>
        <time>2021-08-07T08:20:21.000Z</time>
      </trkpt>
      <trkpt lat="51.16992" lon="6.78596">
        <ele>124.083836</ele>
        <time>2021-08-07T08:20:28.000Z</time>
      </trkpt>
      <trkpt lat="51.16989" lon="6.78603">
        <ele>124.099056</ele>
        <time>2021-08-07T08:20:29.000Z</time>
      </trkpt>
      <trkpt lat="51.16975" lon="6.78653">
        <ele>124.206036</ele>
        <time>2021-08-07T08:20:36.000Z</time>
      </trkpt>
      <trkpt lat="51.16965" lon="6.78695">
        <ele>124.042346</ele>
        <time>2021-08-07T08:20:42.000Z</time>
      </trkpt>
      <trkpt lat="51.16953" lon="6.78737">
        <ele>123.849151</ele>
        <time>2021-08-07T08:20:48.000Z</time>
      </trkpt>
      <trkpt lat="51.16941" lon="6.7879">
        <ele>123.612658</ele>
        <time>2021-08-07T08:20:55.000Z</time>
      </trkpt>
      <trkpt lat="51.16926" lon="6.78854">
        <ele>123.323819</ele>
        <time>2021-08-07T08:21:04.000Z</time>
      </trkpt>
      <trkpt lat="51.16907" lon="6.78912">
        <ele>123.051856</ele>
        <time>2021-08-07T08:21:13.000Z</time>
      </trkpt>
      <trkpt lat="51.16898" lon="6.7895">
        <ele>122.94831</ele>
        <time>2021-08-07T08:21:20.000Z</time>
      </trkpt>
      <trkpt lat="51.16897" lon="6.78955">
        <ele>122.938406</ele>
        <time>2021-08-07T08:21:21.000Z</time>
      </trkpt>
      <trkpt lat="51.16894" lon="6.78969">
        <ele>122.907702</ele>
        <time>2021-08-07T08:21:25.000Z</time>
      </trkpt>
      <trkpt lat="51.16892" lon="6.78984">
        <ele>122.877621</ele>
        <time>2021-08-07T08:21:29.000Z</time>
      </trkpt>
      <trkpt lat="51.16891" lon="6.78994">
        <ele>122.857667</ele>
        <time>2021-08-07T08:21:31.000Z</time>
      </trkpt>
      <trkpt lat="51.16891" lon="6.79034">
        <ele>122.776876</ele>
        <time>2021-08-07T08:21:38.000Z</time>
      </trkpt>
      <trkpt lat="51.16895" lon="6.79063">
        <ele>122.71713</ele>
        <time>2021-08-07T08:21:43.000Z</time>
      </trkpt>
      <trkpt lat="51.16896" lon="6.79073">
        <ele>122.698048</ele>
        <time>2021-08-07T08:21:45.000Z</time>
      </trkpt>
      <trkpt lat="51.169" lon="6.79094">
        <ele>122.652214</ele>
        <time>2021-08-07T08:21:50.000Z</time>
      </trkpt>
      <trkpt lat="51.16898" lon="6.79103">
        <ele>122.63378</ele>
        <time>2021-08-07T08:21:52.000Z</time>
      </trkpt>
      <trkpt lat="51.16896" lon="6.79107">
        <ele>122.624114</ele>
        <time>2021-08-07T08:21:53.000Z</time>
      </trkpt>
      <trkpt lat="51.16883" lon="6.79124">
        <ele>122.570319</ele>
        <time>2021-08-07T08:22:00.000Z</time>
      </trkpt>
      <trkpt lat="51.16883" lon="6.79124">
        <ele>122.570319</ele>
        <time>2021-08-07T08:22:02.000Z</time>
      </trkpt>
      <trkpt lat="51.16882" lon="6.79125">
        <ele>122.564276</ele>
        <time>2021-08-07T08:22:04.000Z</time>
      </trkpt>
      <trkpt lat="51.1688" lon="6.79127">
        <ele>122.558871</ele>
        <time>2021-08-07T08:22:05.000Z</time>
      </trkpt>
      <trkpt lat="51.16873" lon="6.79136">
        <ele>122.528508</ele>
        <time>2021-08-07T08:22:09.000Z</time>
      </trkpt>
      <trkpt lat="51.16872" lon="6.79137">
        <ele>122.523881</ele>
        <time>2021-08-07T08:22:11.000Z</time>
      </trkpt>
      <trkpt lat="51.16872" lon="6.79137">
        <ele>122.523881</ele>
        <time>2021-08-07T08:22:13.000Z</time>
      </trkpt>
      <trkpt lat="51.16872" lon="6.79137">
        <ele>122.523881</ele>
        <time>2021-08-07T08:22:33.000Z</time>
      </trkpt>
      <trkpt lat="51.1687" lon="6.7914">
        <ele>122.516989</ele>
        <time>2021-08-07T08:22:38.000Z</time>
      </trkpt>
      <trkpt lat="51.16866" lon="6.79144">
        <ele>122.500281</ele>
        <time>2021-08-07T08:22:40.000Z</time>
      </trkpt>
      <trkpt lat="51.16849" lon="6.79169">
        <ele>122.43388</ele>
        <time>2021-08-07T08:22:47.000Z</time>
      </trkpt>
      <trkpt lat="51.16828" lon="6.79197">
        <ele>122.422675</ele>
        <time>2021-08-07T08:22:54.000Z</time>
      </trkpt>
      <trkpt lat="51.16796" lon="6.79239">
        <ele>122.405177</ele>
        <time>2021-08-07T08:23:05.000Z</time>
      </trkpt>
      <trkpt lat="51.16773" lon="6.79269">
        <ele>122.39292</ele>
        <time>2021-08-07T08:23:12.000Z</time>
      </trkpt>
      <trkpt lat="51.16763" lon="6.79282">
        <ele>122.387484</ele>
        <time>2021-08-07T08:23:15.000Z</time>
      </trkpt>
      <trkpt lat="51.16742" lon="6.79307">
        <ele>122.376602</ele>
        <time>2021-08-07T08:23:21.000Z</time>
      </trkpt>
      <trkpt lat="51.16701" lon="6.79346">
        <ele>122.284742</ele>
        <time>2021-08-07T08:23:32.000Z</time>
      </trkpt>
      <trkpt lat="51.16677" lon="6.79369">
        <ele>122.003264</ele>
        <time>2021-08-07T08:23:39.000Z</time>
      </trkpt>
      <trkpt lat="51.16674" lon="6.79373">
        <ele>121.965501</ele>
        <time>2021-08-07T08:23:40.000Z</time>
      </trkpt>
      <trkpt lat="51.16667" lon="6.79378">
        <ele>121.89292</ele>
        <time>2021-08-07T08:23:42.000Z</time>
      </trkpt>
      <trkpt lat="51.16654" lon="6.7939">
        <ele>121.740065</ele>
        <time>2021-08-07T08:23:46.000Z</time>
      </trkpt>
      <trkpt lat="51.16632" lon="6.79402">
        <ele>121.509839</ele>
        <time>2021-08-07T08:23:53.000Z</time>
      </trkpt>
      <trkpt lat="51.16627" lon="6.79409">
        <ele>121.440257</ele>
        <time>2021-08-07T08:23:56.000Z</time>
      </trkpt>
      <trkpt lat="51.16626" lon="6.79413">
        <ele>121.414164</ele>
        <time>2021-08-07T08:23:57.000Z</time>
      </trkpt>
      <trkpt lat="51.16628" lon="6.79428">
        <ele>121.318149</ele>
        <time>2021-08-07T08:24:00.000Z</time>
      </trkpt>
      <trkpt lat="51.1663" lon="6.79433">
        <ele>121.279991</ele>
        <time>2021-08-07T08:24:01.000Z</time>
      </trkpt>
      <trkpt lat="51.16638" lon="6.79449">
        <ele>121.151619</ele>
        <time>2021-08-07T08:24:05.000Z</time>
      </trkpt>
      <trkpt lat="51.16643" lon="6.79458">
        <ele>121.081677</ele>
        <time>2021-08-07T08:24:08.000Z</time>
      </trkpt>
      <trkpt lat="51.16645" lon="6.79463">
        <ele>121.03995</ele>
        <time>2021-08-07T08:24:11.000Z</time>
      </trkpt>
      <trkpt lat="51.16644" lon="6.79467">
        <ele>121.012963</ele>
        <time>2021-08-07T08:24:13.000Z</time>
      </trkpt>
      <trkpt lat="51.16632" lon="6.79466">
        <ele>120.893599</ele>
        <time>2021-08-07T08:24:17.000Z</time>
      </trkpt>
      <trkpt lat="51.16619" lon="6.79467">
        <ele>120.764278</ele>
        <time>2021-08-07T08:24:20.000Z</time>
      </trkpt>
      <trkpt lat="51.16608" lon="6.79468">
        <ele>120.658627</ele>
        <time>2021-08-07T08:24:22.000Z</time>
      </trkpt>
      <trkpt lat="51.16602" lon="6.79468">
        <ele>120.603931</ele>
        <time>2021-08-07T08:24:23.000Z</time>
      </trkpt>
      <trkpt lat="51.16585" lon="6.79465">
        <ele>120.486368</ele>
        <time>2021-08-07T08:24:26.000Z</time>
      </trkpt>
      <trkpt lat="51.16579" lon="6.79464">
        <ele>120.451095</ele>
        <time>2021-08-07T08:24:27.000Z</time>
      </trkpt>
      <trkpt lat="51.1655" lon="6.79452">
        <ele>120.273069</ele>
        <time>2021-08-07T08:24:33.000Z</time>
      </trkpt>
      <trkpt lat="51.1652" lon="6.79434">
        <ele>120.087406</ele>
        <time>2021-08-07T08:24:40.000Z</time>
      </trkpt>
      <trkpt lat="51.16481" lon="6.79406">
        <ele>119.834809</ele>
        <time>2021-08-07T08:24:50.000Z</time>
      </trkpt>
      <trkpt lat="51.16438" lon="6.79379">
        <ele>119.560858</ele>
        <time>2021-08-07T08:25:00.000Z</time>
      </trkpt>
      <trkpt lat="51.16434" lon="6.79377">
        <ele>119.533436</ele>
        <time>2021-08-07T08:25:01.000Z</time>
      </trkpt>
      <trkpt lat="51.16397" lon="6.79355">
        <ele>119.619424</ele>
        <time>2021-08-07T08:25:10.000Z</time>
      </trkpt>
      <trkpt lat="51.16367" lon="6.79337">
        <ele>119.718008</ele>
        <time>2021-08-07T08:25:17.000Z</time>
      </trkpt>
      <trkpt lat="51.16359" lon="6.79332">
        <ele>119.745874</ele>
        <time>2021-08-07T08:25:19.000Z</time>
      </trkpt>
      <trkpt lat="51.1631" lon="6.79306">
        <ele>119.905693</ele>
        <time>2021-08-07T08:25:31.000Z</time>
      </trkpt>
      <trkpt lat="51.16291" lon="6.79296">
        <ele>119.969072</ele>
        <time>2021-08-07T08:25:36.000Z</time>
      </trkpt>
      <trkpt lat="51.16287" lon="6.79294">
        <ele>119.981931</ele>
        <time>2021-08-07T08:25:37.000Z</time>
      </trkpt>
      <trkpt lat="51.16283" lon="6.79292">
        <ele>119.994276</ele>
        <time>2021-08-07T08:25:38.000Z</time>
      </trkpt>
      <trkpt lat="51.16279" lon="6.7929">
        <ele>120.006485</ele>
        <time>2021-08-07T08:25:39.000Z</time>
      </trkpt>
      <trkpt lat="51.16276" lon="6.79288">
        <ele>120.018402</ele>
        <time>2021-08-07T08:25:40.000Z</time>
      </trkpt>
      <trkpt lat="51.16268" lon="6.79284">
        <ele>120.042925</ele>
        <time>2021-08-07T08:25:42.000Z</time>
      </trkpt>
      <trkpt lat="51.16245" lon="6.79272">
        <ele>120.147423</ele>
        <time>2021-08-07T08:25:48.000Z</time>
      </trkpt>
      <trkpt lat="51.16226" lon="6.79261">
        <ele>120.249496</ele>
        <time>2021-08-07T08:25:53.000Z</time>
      </trkpt>
      <trkpt lat="51.16187" lon="6.7924">
        <ele>120.45358</ele>
        <time>2021-08-07T08:26:03.000Z</time>
      </trkpt>
      <trkpt lat="51.16158" lon="6.79222">
        <ele>120.609053</ele>
        <time>2021-08-07T08:26:11.000Z</time>
      </trkpt>
      <trkpt lat="51.1615" lon="6.79217">
        <ele>120.647269</ele>
        <time>2021-08-07T08:26:13.000Z</time>
      </trkpt>
      <trkpt lat="51.16115" lon="6.792">
        <ele>120.831374</ele>
        <time>2021-08-07T08:26:22.000Z</time>
      </trkpt>
      <trkpt lat="51.1608" lon="6.79187">
        <ele>121.162111</ele>
        <time>2021-08-07T08:26:30.000Z</time>
      </trkpt>
      <trkpt lat="51.1606" lon="6.79177">
        <ele>121.636503</ele>
        <time>2021-08-07T08:26:35.000Z</time>
      </trkpt>
      <trkpt lat="51.16035" lon="6.79164">
        <ele>122.19211</ele>
        <time>2021-08-07T08:26:41.000Z</time>
      </trkpt>
      <trkpt lat="51.1602" lon="6.79155">
        <ele>122.550323</ele>
        <time>2021-08-07T08:26:45.000Z</time>
      </trkpt>
      <trkpt lat="51.16004" lon="6.79145">
        <ele>122.925525</ele>
        <time>2021-08-07T08:26:49.000Z</time>
      </trkpt>
      <trkpt lat="51.15997" lon="6.79135">
        <ele>123.119101</ele>
        <time>2021-08-07T08:26:51.000Z</time>
      </trkpt>
      <trkpt lat="51.15994" lon="6.79126">
        <ele>123.26756</ele>
        <time>2021-08-07T08:26:53.000Z</time>
      </trkpt>
      <trkpt lat="51.15993" lon="6.79121">
        <ele>123.330031</ele>
        <time>2021-08-07T08:26:55.000Z</time>
      </trkpt>
      <trkpt lat="51.15993" lon="6.7912">
        <ele>123.342304</ele>
        <time>2021-08-07T08:26:56.000Z</time>
      </trkpt>
      <trkpt lat="51.15993" lon="6.79118">
        <ele>123.372383</ele>
        <time>2021-08-07T08:26:58.000Z</time>
      </trkpt>
      <trkpt lat="51.15993" lon="6.79114">
        <ele>123.426929</ele>
        <time>2021-08-07T08:27:03.000Z</time>
      </trkpt>
      <trkpt lat="51.15993" lon="6.7911">
        <ele>123.480156</ele>
        <time>2021-08-07T08:27:06.000Z</time>
      </trkpt>
      <trkpt lat="51.15995" lon="6.79107">
        <ele>123.531009</ele>
        <time>2021-08-07T08:27:07.000Z</time>
      </trkpt>
      <trkpt lat="51.15998" lon="6.79101">
        <ele>123.641562</ele>
        <time>2021-08-07T08:27:09.000Z</time>
      </trkpt>
      <trkpt lat="51.16007" lon="6.79087">
        <ele>123.914003</ele>
        <time>2021-08-07T08:27:14.000Z</time>
      </trkpt>
      <trkpt lat="51.16009" lon="6.79084">
        <ele>123.968134</ele>
        <time>2021-08-07T08:27:18.000Z</time>
      </trkpt>
      <trkpt lat="51.16009" lon="6.79084">
        <ele>123.968134</ele>
        <time>2021-08-07T08:27:19.000Z</time>
      </trkpt>
      <trkpt lat="51.16009" lon="6.79084">
        <ele>123.968134</ele>
        <time>2021-08-07T08:27:21.000Z</time>
      </trkpt>
      <trkpt lat="51.16009" lon="6.79084">
        <ele>123.968134</ele>
        <time>2021-08-07T08:27:23.000Z</time>
      </trkpt>
      <trkpt lat="51.16009" lon="6.79084">
        <ele>123.968134</ele>
        <time>2021-08-07T08:27:25.000Z</time>
      </trkpt>
      <trkpt lat="51.16009" lon="6.79084">
        <ele>123.968134</ele>
        <time>2021-08-07T08:27:28.000Z</time>
      </trkpt>
      <trkpt lat="51.16009" lon="6.79084">
        <ele>123.968134</ele>
        <time>2021-08-07T08:27:34.000Z</time>
      </trkpt>
      <trkpt lat="51.16009" lon="6.79084">
        <ele>123.968134</ele>
        <time>2021-08-07T08:27:46.000Z</time>
      </trkpt>
      <trkpt lat="51.16009" lon="6.79084">
        <ele>123.974105</ele>
        <time>2021-08-07T08:27:49.000Z</time>
      </trkpt>
      <trkpt lat="51.16009" lon="6.7908">
        <ele>124.029422</ele>
        <time>2021-08-07T08:27:51.000Z</time>
      </trkpt>
      <trkpt lat="51.16009" lon="6.79076">
        <ele>124.086737</ele>
        <time>2021-08-07T08:27:53.000Z</time>
      </trkpt>
      <trkpt lat="51.16004" lon="6.79073">
        <ele>124.204445</ele>
        <time>2021-08-07T08:27:56.000Z</time>
      </trkpt>
      <trkpt lat="51.15988" lon="6.79074">
        <ele>124.563343</ele>
        <time>2021-08-07T08:28:02.000Z</time>
      </trkpt>
      <trkpt lat="51.15959" lon="6.79085">
        <ele>125.018191</ele>
        <time>2021-08-07T08:28:13.000Z</time>
      </trkpt>
      <trkpt lat="51.15939" lon="6.79088">
        <ele>125.212944</ele>
        <time>2021-08-07T08:28:20.000Z</time>
      </trkpt>
      <trkpt lat="51.15916" lon="6.79091">
        <ele>125.426685</ele>
        <time>2021-08-07T08:28:27.000Z</time>
      </trkpt>
      <trkpt lat="51.15899" lon="6.79091">
        <ele>125.589929</ele>
        <time>2021-08-07T08:28:32.000Z</time>
      </trkpt>
      <trkpt lat="51.15896" lon="6.7909">
        <ele>125.61801</ele>
        <time>2021-08-07T08:28:33.000Z</time>
      </trkpt>
      <trkpt lat="51.15889" lon="6.79087">
        <ele>125.693783</ele>
        <time>2021-08-07T08:28:35.000Z</time>
      </trkpt>
      <trkpt lat="51.15868" lon="6.79079">
        <ele>125.899651</ele>
        <time>2021-08-07T08:28:41.000Z</time>
      </trkpt>
      <trkpt lat="51.15865" lon="6.79078">
        <ele>125.92796</ele>
        <time>2021-08-07T08:28:42.000Z</time>
      </trkpt>
      <trkpt lat="51.15851" lon="6.79072">
        <ele>126.06261</ele>
        <time>2021-08-07T08:28:46.000Z</time>
      </trkpt>
      <trkpt lat="51.15845" lon="6.7907">
        <ele>126.121912</ele>
        <time>2021-08-07T08:28:48.000Z</time>
      </trkpt>
      <trkpt lat="51.15831" lon="6.79067">
        <ele>126.253854</ele>
        <time>2021-08-07T08:28:52.000Z</time>
      </trkpt>
      <trkpt lat="51.1582" lon="6.79063">
        <ele>126.361135</ele>
        <time>2021-08-07T08:28:55.000Z</time>
      </trkpt>
      <trkpt lat="51.15789" lon="6.79052">
        <ele>126.535243</ele>
        <time>2021-08-07T08:29:03.000Z</time>
      </trkpt>
      <trkpt lat="51.15777" lon="6.79049">
        <ele>126.455338</ele>
        <time>2021-08-07T08:29:06.000Z</time>
      </trkpt>
      <trkpt lat="51.15734" lon="6.79036">
        <ele>126.166492</ele>
        <time>2021-08-07T08:29:17.000Z</time>
      </trkpt>
      <trkpt lat="51.15706" lon="6.79028">
        <ele>125.978185</ele>
        <time>2021-08-07T08:29:24.000Z</time>
      </trkpt>
      <trkpt lat="51.15702" lon="6.79027">
        <ele>125.949961</ele>
        <time>2021-08-07T08:29:25.000Z</time>
      </trkpt>
      <trkpt lat="51.15694" lon="6.79025">
        <ele>125.895824</ele>
        <time>2021-08-07T08:29:27.000Z</time>
      </trkpt>
      <trkpt lat="51.15687" lon="6.79022">
        <ele>125.845243</ele>
        <time>2021-08-07T08:29:29.000Z</time>
      </trkpt>
      <trkpt lat="51.15677" lon="6.79017">
        <ele>125.778825</ele>
        <time>2021-08-07T08:29:32.000Z</time>
      </trkpt>
      <trkpt lat="51.15669" lon="6.79013">
        <ele>125.723756</ele>
        <time>2021-08-07T08:29:35.000Z</time>
      </trkpt>
      <trkpt lat="51.15652" lon="6.78995">
        <ele>125.587976</ele>
        <time>2021-08-07T08:29:43.000Z</time>
      </trkpt>
      <trkpt lat="51.15629" lon="6.78972">
        <ele>125.412082</ele>
        <time>2021-08-07T08:29:51.000Z</time>
      </trkpt>
      <trkpt lat="51.15609" lon="6.78964">
        <ele>125.343987</ele>
        <time>2021-08-07T08:29:56.000Z</time>
      </trkpt>
      <trkpt lat="51.15601" lon="6.78962">
        <ele>125.319946</ele>
        <time>2021-08-07T08:29:58.000Z</time>
      </trkpt>
      <trkpt lat="51.15578" lon="6.78954">
        <ele>125.248337</ele>
        <time>2021-08-07T08:30:04.000Z</time>
      </trkpt>
      <trkpt lat="51.15566" lon="6.78951">
        <ele>125.214059</ele>
        <time>2021-08-07T08:30:07.000Z</time>
      </trkpt>
      <trkpt lat="51.15555" lon="6.78948">
        <ele>125.178013</ele>
        <time>2021-08-07T08:30:10.000Z</time>
      </trkpt>
      <trkpt lat="51.15543" lon="6.78946">
        <ele>125.142376</ele>
        <time>2021-08-07T08:30:13.000Z</time>
      </trkpt>
      <trkpt lat="51.15508" lon="6.78938">
        <ele>125.037101</ele>
        <time>2021-08-07T08:30:22.000Z</time>
      </trkpt>
      <trkpt lat="51.15455" lon="6.78927">
        <ele>124.877643</ele>
        <time>2021-08-07T08:30:35.000Z</time>
      </trkpt>
      <trkpt lat="51.15397" lon="6.78915">
        <ele>124.949753</ele>
        <time>2021-08-07T08:30:49.000Z</time>
      </trkpt>
      <trkpt lat="51.15356" lon="6.78906">
        <ele>125.017389</ele>
        <time>2021-08-07T08:30:59.000Z</time>
      </trkpt>
      <trkpt lat="51.15352" lon="6.78906">
        <ele>125.024576</ele>
        <time>2021-08-07T08:31:00.000Z</time>
      </trkpt>
      <trkpt lat="51.15339" lon="6.78903">
        <ele>125.045713</ele>
        <time>2021-08-07T08:31:03.000Z</time>
      </trkpt>
      <trkpt lat="51.15311" lon="6.78898">
        <ele>125.091566</ele>
        <time>2021-08-07T08:31:10.000Z</time>
      </trkpt>
      <trkpt lat="51.15271" lon="6.78893">
        <ele>125.155671</ele>
        <time>2021-08-07T08:31:21.000Z</time>
      </trkpt>
      <trkpt lat="51.1525" lon="6.78884">
        <ele>125.095204</ele>
        <time>2021-08-07T08:31:27.000Z</time>
      </trkpt>
      <trkpt lat="51.15228" lon="6.78857">
        <ele>125.022603</ele>
        <time>2021-08-07T08:31:34.000Z</time>
      </trkpt>
      <trkpt lat="51.15206" lon="6.7883">
        <ele>124.948853</ele>
        <time>2021-08-07T08:31:42.000Z</time>
      </trkpt>
      <trkpt lat="51.15182" lon="6.78799">
        <ele>124.865062</ele>
        <time>2021-08-07T08:31:49.000Z</time>
      </trkpt>
      <trkpt lat="51.1517" lon="6.78784">
        <ele>124.823425</ele>
        <time>2021-08-07T08:31:52.000Z</time>
      </trkpt>
      <trkpt lat="51.15161" lon="6.78778">
        <ele>124.798064</ele>
        <time>2021-08-07T08:31:54.000Z</time>
      </trkpt>
      <trkpt lat="51.15151" lon="6.78779">
        <ele>124.7718</ele>
        <time>2021-08-07T08:31:57.000Z</time>
      </trkpt>
      <trkpt lat="51.15148" lon="6.78782">
        <ele>124.76115</ele>
        <time>2021-08-07T08:31:59.000Z</time>
      </trkpt>
      <trkpt lat="51.15147" lon="6.78783">
        <ele>124.75916</ele>
        <time>2021-08-07T08:32:01.000Z</time>
      </trkpt>
      <trkpt lat="51.15147" lon="6.78783">
        <ele>124.75916</ele>
        <time>2021-08-07T08:32:09.000Z</time>
      </trkpt>
      <trkpt lat="51.15147" lon="6.78783">
        <ele>124.75916</ele>
        <time>2021-08-07T08:32:10.000Z</time>
      </trkpt>
      <trkpt lat="51.15146" lon="6.78782">
        <ele>124.75406</ele>
        <time>2021-08-07T08:32:15.000Z</time>
      </trkpt>
      <trkpt lat="51.15144" lon="6.78781">
        <ele>124.749016</ele>
        <time>2021-08-07T08:32:16.000Z</time>
      </trkpt>
      <trkpt lat="51.15138" lon="6.78777">
        <ele>124.731171</ele>
        <time>2021-08-07T08:32:19.000Z</time>
      </trkpt>
      <trkpt lat="51.15133" lon="6.78779">
        <ele>124.718616</ele>
        <time>2021-08-07T08:32:21.000Z</time>
      </trkpt>
      <trkpt lat="51.15117" lon="6.78806">
        <ele>124.716216</ele>
        <time>2021-08-07T08:32:28.000Z</time>
      </trkpt>
      <trkpt lat="51.15095" lon="6.78839">
        <ele>124.893415</ele>
        <time>2021-08-07T08:32:36.000Z</time>
      </trkpt>
      <trkpt lat="51.1506" lon="6.78879">
        <ele>125.1482</ele>
        <time>2021-08-07T08:32:47.000Z</time>
      </trkpt>
      <trkpt lat="51.1503" lon="6.7891">
        <ele>125.358505</ele>
        <time>2021-08-07T08:32:56.000Z</time>
      </trkpt>
      <trkpt lat="51.15011" lon="6.78928">
        <ele>125.488459</ele>
        <time>2021-08-07T08:33:01.000Z</time>
      </trkpt>
      <trkpt lat="51.1498" lon="6.7896">
        <ele>125.705396</ele>
        <time>2021-08-07T08:33:09.000Z</time>
      </trkpt>
      <trkpt lat="51.1496" lon="6.78978">
        <ele>125.769599</ele>
        <time>2021-08-07T08:33:14.000Z</time>
      </trkpt>
      <trkpt lat="51.14941" lon="6.78997">
        <ele>125.818456</ele>
        <time>2021-08-07T08:33:19.000Z</time>
      </trkpt>
      <trkpt lat="51.14937" lon="6.79001">
        <ele>125.828854</ele>
        <time>2021-08-07T08:33:20.000Z</time>
      </trkpt>
      <trkpt lat="51.14899" lon="6.79042">
        <ele>125.927117</ele>
        <time>2021-08-07T08:33:30.000Z</time>
      </trkpt>
      <trkpt lat="51.14867" lon="6.79068">
        <ele>126.002946</ele>
        <time>2021-08-07T08:33:38.000Z</time>
      </trkpt>
      <trkpt lat="51.1486" lon="6.79074">
        <ele>126.020649</ele>
        <time>2021-08-07T08:33:40.000Z</time>
      </trkpt>
      <trkpt lat="51.14838" lon="6.79093">
        <ele>126.075318</ele>
        <time>2021-08-07T08:33:46.000Z</time>
      </trkpt>
      <trkpt lat="51.1483" lon="6.791">
        <ele>126.09415</ele>
        <time>2021-08-07T08:33:48.000Z</time>
      </trkpt>
      <trkpt lat="51.14796" lon="6.79128">
        <ele>126.154181</ele>
        <time>2021-08-07T08:33:56.000Z</time>
      </trkpt>
      <trkpt lat="51.1476" lon="6.79157">
        <ele>126.210827</ele>
        <time>2021-08-07T08:34:04.000Z</time>
      </trkpt>
      <trkpt lat="51.14755" lon="6.7916">
        <ele>126.217603</ele>
        <time>2021-08-07T08:34:05.000Z</time>
      </trkpt>
      <trkpt lat="51.14738" lon="6.79176">
        <ele>126.245036</ele>
        <time>2021-08-07T08:34:09.000Z</time>
      </trkpt>
      <trkpt lat="51.1469" lon="6.79221">
        <ele>126.32256</ele>
        <time>2021-08-07T08:34:20.000Z</time>
      </trkpt>
      <trkpt lat="51.14686" lon="6.79224">
        <ele>126.329128</ele>
        <time>2021-08-07T08:34:21.000Z</time>
      </trkpt>
      <trkpt lat="51.14677" lon="6.79232">
        <ele>126.343002</ele>
        <time>2021-08-07T08:34:23.000Z</time>
      </trkpt>
      <trkpt lat="51.14664" lon="6.79244">
        <ele>126.363863</ele>
        <time>2021-08-07T08:34:26.000Z</time>
      </trkpt>
      <trkpt lat="51.14655" lon="6.79253">
        <ele>126.36626</ele>
        <time>2021-08-07T08:34:28.000Z</time>
      </trkpt>
      <trkpt lat="51.14652" lon="6.79256">
        <ele>126.36644</ele>
        <time>2021-08-07T08:34:29.000Z</time>
      </trkpt>
      <trkpt lat="51.14648" lon="6.79261">
        <ele>126.366675</ele>
        <time>2021-08-07T08:34:30.000Z</time>
      </trkpt>
      <trkpt lat="51.14644" lon="6.79265">
        <ele>126.366914</ele>
        <time>2021-08-07T08:34:31.000Z</time>
      </trkpt>
      <trkpt lat="51.1464" lon="6.7927">
        <ele>126.367144</ele>
        <time>2021-08-07T08:34:32.000Z</time>
      </trkpt>
      <trkpt lat="51.14628" lon="6.79282">
        <ele>126.367821</ele>
        <time>2021-08-07T08:34:35.000Z</time>
      </trkpt>
      <trkpt lat="51.14612" lon="6.79299">
        <ele>126.368774</ele>
        <time>2021-08-07T08:34:39.000Z</time>
      </trkpt>
      <trkpt lat="51.14603" lon="6.79308">
        <ele>126.369259</ele>
        <time>2021-08-07T08:34:41.000Z</time>
      </trkpt>
      <trkpt lat="51.14595" lon="6.79317">
        <ele>126.36975</ele>
        <time>2021-08-07T08:34:43.000Z</time>
      </trkpt>
      <trkpt lat="51.14564" lon="6.79347">
        <ele>126.371503</ele>
        <time>2021-08-07T08:34:50.000Z</time>
      </trkpt>
      <trkpt lat="51.14534" lon="6.79377">
        <ele>126.373193</ele>
        <time>2021-08-07T08:34:57.000Z</time>
      </trkpt>
      <trkpt lat="51.14521" lon="6.79389">
        <ele>126.373901</ele>
        <time>2021-08-07T08:35:00.000Z</time>
      </trkpt>
      <trkpt lat="51.14489" lon="6.79423">
        <ele>126.151777</ele>
        <time>2021-08-07T08:35:08.000Z</time>
      </trkpt>
      <trkpt lat="51.1447" lon="6.79443">
        <ele>125.960584</ele>
        <time>2021-08-07T08:35:13.000Z</time>
      </trkpt>
      <trkpt lat="51.14462" lon="6.79452">
        <ele>125.881635</ele>
        <time>2021-08-07T08:35:15.000Z</time>
      </trkpt>
      <trkpt lat="51.14459" lon="6.79456">
        <ele>125.842975</ele>
        <time>2021-08-07T08:35:16.000Z</time>
      </trkpt>
      <trkpt lat="51.14432" lon="6.79481">
        <ele>125.58341</ele>
        <time>2021-08-07T08:35:23.000Z</time>
      </trkpt>
      <trkpt lat="51.14423" lon="6.79489">
        <ele>125.495835</ele>
        <time>2021-08-07T08:35:26.000Z</time>
      </trkpt>
      <trkpt lat="51.14422" lon="6.7949">
        <ele>125.484999</ele>
        <time>2021-08-07T08:35:27.000Z</time>
      </trkpt>
      <trkpt lat="51.14422" lon="6.79491">
        <ele>125.481729</ele>
        <time>2021-08-07T08:35:28.000Z</time>
      </trkpt>
      <trkpt lat="51.14422" lon="6.79491">
        <ele>125.481729</ele>
        <time>2021-08-07T08:35:33.000Z</time>
      </trkpt>
      <trkpt lat="51.14422" lon="6.79491">
        <ele>125.481729</ele>
        <time>2021-08-07T08:35:41.000Z</time>
      </trkpt>
      <trkpt lat="51.14422" lon="6.79491">
        <ele>125.481729</ele>
        <time>2021-08-07T08:35:44.000Z</time>
      </trkpt>
      <trkpt lat="51.14422" lon="6.79491">
        <ele>125.481729</ele>
        <time>2021-08-07T08:35:47.000Z</time>
      </trkpt>
      <trkpt lat="51.14422" lon="6.79491">
        <ele>125.481729</ele>
        <time>2021-08-07T08:35:59.000Z</time>
      </trkpt>
      <trkpt lat="51.14422" lon="6.79491">
        <ele>125.481729</ele>
        <time>2021-08-07T08:36:14.000Z</time>
      </trkpt>
      <trkpt lat="51.14419" lon="6.79495">
        <ele>125.451188</ele>
        <time>2021-08-07T08:36:19.000Z</time>
      </trkpt>
      <trkpt lat="51.14417" lon="6.79496">
        <ele>125.430423</ele>
        <time>2021-08-07T08:36:20.000Z</time>
      </trkpt>
      <trkpt lat="51.14403" lon="6.79509">
        <ele>125.297915</ele>
        <time>2021-08-07T08:36:25.000Z</time>
      </trkpt>
      <trkpt lat="51.14378" lon="6.7953">
        <ele>125.060122</ele>
        <time>2021-08-07T08:36:32.000Z</time>
      </trkpt>
      <trkpt lat="51.14371" lon="6.79538">
        <ele>124.986055</ele>
        <time>2021-08-07T08:36:34.000Z</time>
      </trkpt>
      <trkpt lat="51.14349" lon="6.79555">
        <ele>124.810899</ele>
        <time>2021-08-07T08:36:39.000Z</time>
      </trkpt>
      <trkpt lat="51.14309" lon="6.7959">
        <ele>124.560897</ele>
        <time>2021-08-07T08:36:48.000Z</time>
      </trkpt>
      <trkpt lat="51.14304" lon="6.79594">
        <ele>124.531212</ele>
        <time>2021-08-07T08:36:49.000Z</time>
      </trkpt>
      <trkpt lat="51.14267" lon="6.79627">
        <ele>124.300765</ele>
        <time>2021-08-07T08:36:57.000Z</time>
      </trkpt>
      <trkpt lat="51.14235" lon="6.79654">
        <ele>124.102439</ele>
        <time>2021-08-07T08:37:04.000Z</time>
      </trkpt>
      <trkpt lat="51.14222" lon="6.79665">
        <ele>124.020124</ele>
        <time>2021-08-07T08:37:07.000Z</time>
      </trkpt>
      <trkpt lat="51.14184" lon="6.79698">
        <ele>123.920376</ele>
        <time>2021-08-07T08:37:16.000Z</time>
      </trkpt>
      <trkpt lat="51.14172" lon="6.79709">
        <ele>123.949399</ele>
        <time>2021-08-07T08:37:19.000Z</time>
      </trkpt>
      <trkpt lat="51.14147" lon="6.79731">
        <ele>124.008064</ele>
        <time>2021-08-07T08:37:25.000Z</time>
      </trkpt>
      <trkpt lat="51.14122" lon="6.7975">
        <ele>124.065237</ele>
        <time>2021-08-07T08:37:31.000Z</time>
      </trkpt>
      <trkpt lat="51.14109" lon="6.79758">
        <ele>124.093767</ele>
        <time>2021-08-07T08:37:34.000Z</time>
      </trkpt>
      <trkpt lat="51.14087" lon="6.79766">
        <ele>124.139329</ele>
        <time>2021-08-07T08:37:40.000Z</time>
      </trkpt>
      <trkpt lat="51.14085" lon="6.79769">
        <ele>124.145433</ele>
        <time>2021-08-07T08:37:41.000Z</time>
      </trkpt>
      <trkpt lat="51.14082" lon="6.79777">
        <ele>124.156398</ele>
        <time>2021-08-07T08:37:43.000Z</time>
      </trkpt>
      <trkpt lat="51.14081" lon="6.79781">
        <ele>124.162428</ele>
        <time>2021-08-07T08:37:45.000Z</time>
      </trkpt>
      <trkpt lat="51.14081" lon="6.79781">
        <ele>124.162428</ele>
        <time>2021-08-07T08:37:47.000Z</time>
      </trkpt>
      <trkpt lat="51.14079" lon="6.79784">
        <ele>124.169358</ele>
        <time>2021-08-07T08:37:54.000Z</time>
      </trkpt>
      <trkpt lat="51.14078" lon="6.79786">
        <ele>124.172127</ele>
        <time>2021-08-07T08:37:55.000Z</time>
      </trkpt>
      <trkpt lat="51.14075" lon="6.79789">
        <ele>124.178259</ele>
        <time>2021-08-07T08:38:01.000Z</time>
      </trkpt>
      <trkpt lat="51.14075" lon="6.79789">
        <ele>124.178689</ele>
        <time>2021-08-07T08:38:13.000Z</time>
      </trkpt>
      <trkpt lat="51.14071" lon="6.79792">
        <ele>124.187956</ele>
        <time>2021-08-07T08:38:15.000Z</time>
      </trkpt>
      <trkpt lat="51.14066" lon="6.79798">
        <ele>124.201209</ele>
        <time>2021-08-07T08:38:18.000Z</time>
      </trkpt>
      <trkpt lat="51.14065" lon="6.798">
        <ele>124.204711</ele>
        <time>2021-08-07T08:38:20.000Z</time>
      </trkpt>
      <trkpt lat="51.14065" lon="6.79801">
        <ele>124.205572</ele>
        <time>2021-08-07T08:38:25.000Z</time>
      </trkpt>
      <trkpt lat="51.14066" lon="6.79806">
        <ele>124.212547</ele>
        <time>2021-08-07T08:38:30.000Z</time>
      </trkpt>
      <trkpt lat="51.14069" lon="6.79813">
        <ele>124.2238</ele>
        <time>2021-08-07T08:38:32.000Z</time>
      </trkpt>
      <trkpt lat="51.14075" lon="6.79834">
        <ele>124.256128</ele>
        <time>2021-08-07T08:38:37.000Z</time>
      </trkpt>
      <trkpt lat="51.14077" lon="6.79839">
        <ele>124.28579</ele>
        <time>2021-08-07T08:38:38.000Z</time>
      </trkpt>
      <trkpt lat="51.1409" lon="6.79861">
        <ele>124.437255</ele>
        <time>2021-08-07T08:38:43.000Z</time>
      </trkpt>
      <trkpt lat="51.14093" lon="6.79869">
        <ele>124.484543</ele>
        <time>2021-08-07T08:38:45.000Z</time>
      </trkpt>
      <trkpt lat="51.14096" lon="6.79877">
        <ele>124.532193</ele>
        <time>2021-08-07T08:38:47.000Z</time>
      </trkpt>
      <trkpt lat="51.141" lon="6.7989">
        <ele>124.607067</ele>
        <time>2021-08-07T08:38:50.000Z</time>
      </trkpt>
      <trkpt lat="51.14107" lon="6.79915">
        <ele>124.742397</ele>
        <time>2021-08-07T08:38:55.000Z</time>
      </trkpt>
      <trkpt lat="51.14115" lon="6.79943">
        <ele>124.892822</ele>
        <time>2021-08-07T08:39:01.000Z</time>
      </trkpt>
      <trkpt lat="51.14119" lon="6.7996">
        <ele>124.986262</ele>
        <time>2021-08-07T08:39:05.000Z</time>
      </trkpt>
      <trkpt lat="51.14121" lon="6.79973">
        <ele>125.054166</ele>
        <time>2021-08-07T08:39:08.000Z</time>
      </trkpt>
      <trkpt lat="51.14122" lon="6.79985">
        <ele>125.114272</ele>
        <time>2021-08-07T08:39:10.000Z</time>
      </trkpt>
      <trkpt lat="51.14124" lon="6.80001">
        <ele>125.198003</ele>
        <time>2021-08-07T08:39:13.000Z</time>
      </trkpt>
      <trkpt lat="51.14125" lon="6.80028">
        <ele>125.332939</ele>
        <time>2021-08-07T08:39:18.000Z</time>
      </trkpt>
      <trkpt lat="51.14125" lon="6.80041">
        <ele>125.397228</ele>
        <time>2021-08-07T08:39:20.000Z</time>
      </trkpt>
      <trkpt lat="51.14122" lon="6.80082">
        <ele>125.607813</ele>
        <time>2021-08-07T08:39:27.000Z</time>
      </trkpt>
      <trkpt lat="51.1412" lon="6.80114">
        <ele>125.686647</ele>
        <time>2021-08-07T08:39:32.000Z</time>
      </trkpt>
      <trkpt lat="51.14119" lon="6.80121">
        <ele>125.683869</ele>
        <time>2021-08-07T08:39:33.000Z</time>
      </trkpt>
      <trkpt lat="51.14118" lon="6.8014">
        <ele>125.676046</ele>
        <time>2021-08-07T08:39:36.000Z</time>
      </trkpt>
      <trkpt lat="51.14117" lon="6.80164">
        <ele>125.665813</ele>
        <time>2021-08-07T08:39:40.000Z</time>
      </trkpt>
      <trkpt lat="51.14116" lon="6.80179">
        <ele>125.659418</ele>
        <time>2021-08-07T08:39:42.000Z</time>
      </trkpt>
      <trkpt lat="51.14115" lon="6.80186">
        <ele>125.656577</ele>
        <time>2021-08-07T08:39:43.000Z</time>
      </trkpt>
      <trkpt lat="51.14105" lon="6.80238">
        <ele>125.633942</ele>
        <time>2021-08-07T08:39:51.000Z</time>
      </trkpt>
      <trkpt lat="51.14103" lon="6.80245">
        <ele>125.630945</ele>
        <time>2021-08-07T08:39:52.000Z</time>
      </trkpt>
      <trkpt lat="51.14099" lon="6.80257">
        <ele>125.625248</ele>
        <time>2021-08-07T08:39:54.000Z</time>
      </trkpt>
      <trkpt lat="51.14095" lon="6.80269">
        <ele>125.619305</ele>
        <time>2021-08-07T08:39:56.000Z</time>
      </trkpt>
      <trkpt lat="51.1408" lon="6.80312">
        <ele>125.598812</ele>
        <time>2021-08-07T08:40:03.000Z</time>
      </trkpt>
      <trkpt lat="51.14064" lon="6.80377">
        <ele>125.583068</ele>
        <time>2021-08-07T08:40:13.000Z</time>
      </trkpt>
      <trkpt lat="51.14062" lon="6.80397">
        <ele>125.605393</ele>
        <time>2021-08-07T08:40:16.000Z</time>
      </trkpt>
      <trkpt lat="51.14059" lon="6.80422">
        <ele>125.63434</ele>
        <time>2021-08-07T08:40:20.000Z</time>
      </trkpt>
      <trkpt lat="51.14059" lon="6.8043">
        <ele>125.643286</ele>
        <time>2021-08-07T08:40:21.000Z</time>
      </trkpt>
      <trkpt lat="51.14058" lon="6.80468">
        <ele>125.685269</ele>
        <time>2021-08-07T08:40:27.000Z</time>
      </trkpt>
      <trkpt lat="51.14058" lon="6.80511">
        <ele>125.733154</ele>
        <time>2021-08-07T08:40:34.000Z</time>
      </trkpt>
      <trkpt lat="51.14055" lon="6.80542">
        <ele>125.768423</ele>
        <time>2021-08-07T08:40:39.000Z</time>
      </trkpt>
      <trkpt lat="51.14051" lon="6.80563">
        <ele>125.793238</ele>
        <time>2021-08-07T08:40:42.000Z</time>
      </trkpt>
      <trkpt lat="51.14042" lon="6.80589">
        <ele>125.825304</ele>
        <time>2021-08-07T08:40:46.000Z</time>
      </trkpt>
      <trkpt lat="51.14037" lon="6.80612">
        <ele>125.853453</ele>
        <time>2021-08-07T08:40:50.000Z</time>
      </trkpt>
      <trkpt lat="51.14028" lon="6.80626">
        <ele>125.875645</ele>
        <time>2021-08-07T08:40:53.000Z</time>
      </trkpt>
      <trkpt lat="51.14021" lon="6.80635">
        <ele>125.890741</ele>
        <time>2021-08-07T08:40:55.000Z</time>
      </trkpt>
      <trkpt lat="51.13995" lon="6.80659">
        <ele>125.746105</ele>
        <time>2021-08-07T08:41:02.000Z</time>
      </trkpt>
      <trkpt lat="51.13963" lon="6.80696">
        <ele>125.547761</ele>
        <time>2021-08-07T08:41:10.000Z</time>
      </trkpt>
      <trkpt lat="51.13944" lon="6.8071">
        <ele>125.438902</ele>
        <time>2021-08-07T08:41:15.000Z</time>
      </trkpt>
      <trkpt lat="51.13939" lon="6.80711">
        <ele>125.418017</ele>
        <time>2021-08-07T08:41:16.000Z</time>
      </trkpt>
      <trkpt lat="51.13936" lon="6.80711">
        <ele>125.399782</ele>
        <time>2021-08-07T08:41:17.000Z</time>
      </trkpt>
      <trkpt lat="51.13926" lon="6.80709">
        <ele>125.351011</ele>
        <time>2021-08-07T08:41:19.000Z</time>
      </trkpt>
      <trkpt lat="51.13919" lon="6.80706">
        <ele>125.310864</ele>
        <time>2021-08-07T08:41:21.000Z</time>
      </trkpt>
      <trkpt lat="51.13914" lon="6.80704">
        <ele>125.288273</ele>
        <time>2021-08-07T08:41:22.000Z</time>
      </trkpt>
      <trkpt lat="51.1391" lon="6.807">
        <ele>125.26084</ele>
        <time>2021-08-07T08:41:23.000Z</time>
      </trkpt>
      <trkpt lat="51.13896" lon="6.80681">
        <ele>125.170633</ele>
        <time>2021-08-07T08:41:27.000Z</time>
      </trkpt>
      <trkpt lat="51.13882" lon="6.80652">
        <ele>125.055981</ele>
        <time>2021-08-07T08:41:32.000Z</time>
      </trkpt>
      <trkpt lat="51.13874" lon="6.80636">
        <ele>124.987888</ele>
        <time>2021-08-07T08:41:35.000Z</time>
      </trkpt>
      <trkpt lat="51.13866" lon="6.80629">
        <ele>124.976807</ele>
        <time>2021-08-07T08:41:37.000Z</time>
      </trkpt>
      <trkpt lat="51.13858" lon="6.80626">
        <ele>124.970441</ele>
        <time>2021-08-07T08:41:39.000Z</time>
      </trkpt>
      <trkpt lat="51.13851" lon="6.80624">
        <ele>124.965275</ele>
        <time>2021-08-07T08:41:41.000Z</time>
      </trkpt>
      <trkpt lat="51.1384" lon="6.80628">
        <ele>124.956415</ele>
        <time>2021-08-07T08:41:44.000Z</time>
      </trkpt>
      <trkpt lat="51.1382" lon="6.8065">
        <ele>124.938116</ele>
        <time>2021-08-07T08:41:51.000Z</time>
      </trkpt>
      <trkpt lat="51.13819" lon="6.80651">
        <ele>124.937518</ele>
        <time>2021-08-07T08:41:54.000Z</time>
      </trkpt>
      <trkpt lat="51.13819" lon="6.80651">
        <ele>124.937518</ele>
        <time>2021-08-07T08:41:55.000Z</time>
      </trkpt>
      <trkpt lat="51.13819" lon="6.80651">
        <ele>124.937518</ele>
        <time>2021-08-07T08:42:07.000Z</time>
      </trkpt>
      <trkpt lat="51.13819" lon="6.80651">
        <ele>124.937518</ele>
        <time>2021-08-07T08:42:09.000Z</time>
      </trkpt>
      <trkpt lat="51.13819" lon="6.80651">
        <ele>124.937518</ele>
        <time>2021-08-07T08:42:12.000Z</time>
      </trkpt>
      <trkpt lat="51.13819" lon="6.80651">
        <ele>124.937518</ele>
        <time>2021-08-07T08:42:15.000Z</time>
      </trkpt>
      <trkpt lat="51.13819" lon="6.80651">
        <ele>124.937518</ele>
        <time>2021-08-07T08:42:18.000Z</time>
      </trkpt>
      <trkpt lat="51.13819" lon="6.80651">
        <ele>124.937518</ele>
        <time>2021-08-07T08:42:23.000Z</time>
      </trkpt>
      <trkpt lat="51.13819" lon="6.80651">
        <ele>124.937518</ele>
        <time>2021-08-07T08:42:25.000Z</time>
      </trkpt>
      <trkpt lat="51.13817" lon="6.8065">
        <ele>124.93615</ele>
        <time>2021-08-07T08:42:28.000Z</time>
      </trkpt>
      <trkpt lat="51.13813" lon="6.80648">
        <ele>124.933066</ele>
        <time>2021-08-07T08:42:31.000Z</time>
      </trkpt>
      <trkpt lat="51.13802" lon="6.80651">
        <ele>124.924541</ele>
        <time>2021-08-07T08:42:35.000Z</time>
      </trkpt>
      <trkpt lat="51.13793" lon="6.8067">
        <ele>124.913381</ele>
        <time>2021-08-07T08:42:40.000Z</time>
      </trkpt>
      <trkpt lat="51.13797" lon="6.8069">
        <ele>124.903152</ele>
        <time>2021-08-07T08:42:44.000Z</time>
      </trkpt>
      <trkpt lat="51.13811" lon="6.80701">
        <ele>124.891829</ele>
        <time>2021-08-07T08:42:49.000Z</time>
      </trkpt>
      <trkpt lat="51.13823" lon="6.80721">
        <ele>124.878709</ele>
        <time>2021-08-07T08:42:54.000Z</time>
      </trkpt>
      <trkpt lat="51.13836" lon="6.80754">
        <ele>124.860307</ele>
        <time>2021-08-07T08:43:01.000Z</time>
      </trkpt>
      <trkpt lat="51.13842" lon="6.80765">
        <ele>124.853495</ele>
        <time>2021-08-07T08:43:04.000Z</time>
      </trkpt>
      <trkpt lat="51.13851" lon="6.80783">
        <ele>124.858274</ele>
        <time>2021-08-07T08:43:08.000Z</time>
      </trkpt>
      <trkpt lat="51.13856" lon="6.80797">
        <ele>124.876943</ele>
        <time>2021-08-07T08:43:11.000Z</time>
      </trkpt>
      <trkpt lat="51.13866" lon="6.80822">
        <ele>124.911716</ele>
        <time>2021-08-07T08:43:16.000Z</time>
      </trkpt>
      <trkpt lat="51.13873" lon="6.80837">
        <ele>124.933753</ele>
        <time>2021-08-07T08:43:19.000Z</time>
      </trkpt>
      <trkpt lat="51.13877" lon="6.80847">
        <ele>124.946929</ele>
        <time>2021-08-07T08:43:21.000Z</time>
      </trkpt>
      <trkpt lat="51.13891" lon="6.80879">
        <ele>124.991595</ele>
        <time>2021-08-07T08:43:27.000Z</time>
      </trkpt>
      <trkpt lat="51.13907" lon="6.80925">
        <ele>125.052927</ele>
        <time>2021-08-07T08:43:35.000Z</time>
      </trkpt>
      <trkpt lat="51.13915" lon="6.80946">
        <ele>125.081811</ele>
        <time>2021-08-07T08:43:38.000Z</time>
      </trkpt>
      <trkpt lat="51.1392" lon="6.80959">
        <ele>125.099117</ele>
        <time>2021-08-07T08:43:40.000Z</time>
      </trkpt>
      <trkpt lat="51.13929" lon="6.80989">
        <ele>125.137627</ele>
        <time>2021-08-07T08:43:44.000Z</time>
      </trkpt>
      <trkpt lat="51.13936" lon="6.81012">
        <ele>125.16808</ele>
        <time>2021-08-07T08:43:47.000Z</time>
      </trkpt>
      <trkpt lat="51.13942" lon="6.81031">
        <ele>125.167671</ele>
        <time>2021-08-07T08:43:50.000Z</time>
      </trkpt>
      <trkpt lat="51.1395" lon="6.81058">
        <ele>125.135949</ele>
        <time>2021-08-07T08:43:54.000Z</time>
      </trkpt>
      <trkpt lat="51.13957" lon="6.81079">
        <ele>125.109805</ele>
        <time>2021-08-07T08:43:57.000Z</time>
      </trkpt>
      <trkpt lat="51.13959" lon="6.81085">
        <ele>125.102737</ele>
        <time>2021-08-07T08:43:58.000Z</time>
      </trkpt>
      <trkpt lat="51.13964" lon="6.81103">
        <ele>125.0817</ele>
        <time>2021-08-07T08:44:01.000Z</time>
      </trkpt>
      <trkpt lat="51.13965" lon="6.8111">
        <ele>125.073466</ele>
        <time>2021-08-07T08:44:02.000Z</time>
      </trkpt>
      <trkpt lat="51.13972" lon="6.81129">
        <ele>125.049982</ele>
        <time>2021-08-07T08:44:05.000Z</time>
      </trkpt>
      <trkpt lat="51.13977" lon="6.81142">
        <ele>125.033682</ele>
        <time>2021-08-07T08:44:07.000Z</time>
      </trkpt>
      <trkpt lat="51.13991" lon="6.81195">
        <ele>124.971386</ele>
        <time>2021-08-07T08:44:15.000Z</time>
      </trkpt>
      <trkpt lat="51.14006" lon="6.81246">
        <ele>124.910258</ele>
        <time>2021-08-07T08:44:23.000Z</time>
      </trkpt>
      <trkpt lat="51.14017" lon="6.81281">
        <ele>124.880198</ele>
        <time>2021-08-07T08:44:29.000Z</time>
      </trkpt>
      <trkpt lat="51.14018" lon="6.81294">
        <ele>124.943503</ele>
        <time>2021-08-07T08:44:31.000Z</time>
      </trkpt>
      <trkpt lat="51.14022" lon="6.81305">
        <ele>125.008581</ele>
        <time>2021-08-07T08:44:33.000Z</time>
      </trkpt>
      <trkpt lat="51.14027" lon="6.81315">
        <ele>125.072712</ele>
        <time>2021-08-07T08:44:35.000Z</time>
      </trkpt>
      <trkpt lat="51.14033" lon="6.81333">
        <ele>125.175549</ele>
        <time>2021-08-07T08:44:38.000Z</time>
      </trkpt>
      <trkpt lat="51.14036" lon="6.81338">
        <ele>125.209927</ele>
        <time>2021-08-07T08:44:39.000Z</time>
      </trkpt>
      <trkpt lat="51.14044" lon="6.81354">
        <ele>125.310372</ele>
        <time>2021-08-07T08:44:42.000Z</time>
      </trkpt>
      <trkpt lat="51.14047" lon="6.81366">
        <ele>125.375885</ele>
        <time>2021-08-07T08:44:44.000Z</time>
      </trkpt>
      <trkpt lat="51.14048" lon="6.81373">
        <ele>125.414804</ele>
        <time>2021-08-07T08:44:45.000Z</time>
      </trkpt>
      <trkpt lat="51.14053" lon="6.81398">
        <ele>125.546934</ele>
        <time>2021-08-07T08:44:49.000Z</time>
      </trkpt>
      <trkpt lat="51.14054" lon="6.81405">
        <ele>125.580328</ele>
        <time>2021-08-07T08:44:50.000Z</time>
      </trkpt>
      <trkpt lat="51.14058" lon="6.81422">
        <ele>125.673777</ele>
        <time>2021-08-07T08:44:53.000Z</time>
      </trkpt>
      <trkpt lat="51.14061" lon="6.81443">
        <ele>125.778611</ele>
        <time>2021-08-07T08:44:56.000Z</time>
      </trkpt>
      <trkpt lat="51.14066" lon="6.81468">
        <ele>125.913138</ele>
        <time>2021-08-07T08:45:00.000Z</time>
      </trkpt>
      <trkpt lat="51.14071" lon="6.81485">
        <ele>126.005761</ele>
        <time>2021-08-07T08:45:03.000Z</time>
      </trkpt>
      <trkpt lat="51.14086" lon="6.81524">
        <ele>126.238659</ele>
        <time>2021-08-07T08:45:10.000Z</time>
      </trkpt>
      <trkpt lat="51.14088" lon="6.81529">
        <ele>126.266899</ele>
        <time>2021-08-07T08:45:11.000Z</time>
      </trkpt>
      <trkpt lat="51.14096" lon="6.8155">
        <ele>126.244237</ele>
        <time>2021-08-07T08:45:15.000Z</time>
      </trkpt>
      <trkpt lat="51.14097" lon="6.81564">
        <ele>126.182235</ele>
        <time>2021-08-07T08:45:18.000Z</time>
      </trkpt>
      <trkpt lat="51.14095" lon="6.81568">
        <ele>126.156077</ele>
        <time>2021-08-07T08:45:19.000Z</time>
      </trkpt>
      <trkpt lat="51.14074" lon="6.81613">
        <ele>125.900467</ele>
        <time>2021-08-07T08:45:27.000Z</time>
      </trkpt>
      <trkpt lat="51.14055" lon="6.8165">
        <ele>125.685687</ele>
        <time>2021-08-07T08:45:33.000Z</time>
      </trkpt>
      <trkpt lat="51.1402" lon="6.81715">
        <ele>125.30079</ele>
        <time>2021-08-07T08:45:43.000Z</time>
      </trkpt>
      <trkpt lat="51.14004" lon="6.81738">
        <ele>125.141906</ele>
        <time>2021-08-07T08:45:47.000Z</time>
      </trkpt>
      <trkpt lat="51.13985" lon="6.81768">
        <ele>125.086379</ele>
        <time>2021-08-07T08:45:52.000Z</time>
      </trkpt>
      <trkpt lat="51.13958" lon="6.81814">
        <ele>125.419215</ele>
        <time>2021-08-07T08:46:00.000Z</time>
      </trkpt>
      <trkpt lat="51.13951" lon="6.81826">
        <ele>125.509734</ele>
        <time>2021-08-07T08:46:02.000Z</time>
      </trkpt>
      <trkpt lat="51.13934" lon="6.81854">
        <ele>125.718006</ele>
        <time>2021-08-07T08:46:07.000Z</time>
      </trkpt>
      <trkpt lat="51.1391" lon="6.8189">
        <ele>125.995912</ele>
        <time>2021-08-07T08:46:14.000Z</time>
      </trkpt>
      <trkpt lat="51.13907" lon="6.81895">
        <ele>126.032587</ele>
        <time>2021-08-07T08:46:15.000Z</time>
      </trkpt>
      <trkpt lat="51.13901" lon="6.81905">
        <ele>126.10689</ele>
        <time>2021-08-07T08:46:17.000Z</time>
      </trkpt>
      <trkpt lat="51.13894" lon="6.81915">
        <ele>126.182743</ele>
        <time>2021-08-07T08:46:19.000Z</time>
      </trkpt>
      <trkpt lat="51.1388" lon="6.81932">
        <ele>126.333355</ele>
        <time>2021-08-07T08:46:23.000Z</time>
      </trkpt>
      <trkpt lat="51.13866" lon="6.8195">
        <ele>126.484639</ele>
        <time>2021-08-07T08:46:27.000Z</time>
      </trkpt>
      <trkpt lat="51.13847" lon="6.81974">
        <ele>126.631127</ele>
        <time>2021-08-07T08:46:33.000Z</time>
      </trkpt>
      <trkpt lat="51.13844" lon="6.81979">
        <ele>126.65281</ele>
        <time>2021-08-07T08:46:34.000Z</time>
      </trkpt>
      <trkpt lat="51.13838" lon="6.81988">
        <ele>126.697727</ele>
        <time>2021-08-07T08:46:36.000Z</time>
      </trkpt>
      <trkpt lat="51.13814" lon="6.82021">
        <ele>126.862423</ele>
        <time>2021-08-07T08:46:43.000Z</time>
      </trkpt>
      <trkpt lat="51.13812" lon="6.82027">
        <ele>126.886655</ele>
        <time>2021-08-07T08:46:44.000Z</time>
      </trkpt>
      <trkpt lat="51.13803" lon="6.82044">
        <ele>126.958985</ele>
        <time>2021-08-07T08:46:47.000Z</time>
      </trkpt>
      <trkpt lat="51.13793" lon="6.8206">
        <ele>127.033844</ele>
        <time>2021-08-07T08:46:50.000Z</time>
      </trkpt>
      <trkpt lat="51.1378" lon="6.82082">
        <ele>127.131361</ele>
        <time>2021-08-07T08:46:54.000Z</time>
      </trkpt>
      <trkpt lat="51.13774" lon="6.82091">
        <ele>127.176223</ele>
        <time>2021-08-07T08:46:56.000Z</time>
      </trkpt>
      <trkpt lat="51.13763" lon="6.82108">
        <ele>127.255171</ele>
        <time>2021-08-07T08:46:59.000Z</time>
      </trkpt>
      <trkpt lat="51.13742" lon="6.82146">
        <ele>127.421056</ele>
        <time>2021-08-07T08:47:06.000Z</time>
      </trkpt>
      <trkpt lat="51.13736" lon="6.82158">
        <ele>127.470982</ele>
        <time>2021-08-07T08:47:08.000Z</time>
      </trkpt>
      <trkpt lat="51.13719" lon="6.82193">
        <ele>127.505702</ele>
        <time>2021-08-07T08:47:14.000Z</time>
      </trkpt>
      <trkpt lat="51.13714" lon="6.82205">
        <ele>127.515558</ele>
        <time>2021-08-07T08:47:16.000Z</time>
      </trkpt>
      <trkpt lat="51.13692" lon="6.82254">
        <ele>127.557301</ele>
        <time>2021-08-07T08:47:24.000Z</time>
      </trkpt>
      <trkpt lat="51.13666" lon="6.82308">
        <ele>127.604274</ele>
        <time>2021-08-07T08:47:33.000Z</time>
      </trkpt>
      <trkpt lat="51.13646" lon="6.82351">
        <ele>127.641745</ele>
        <time>2021-08-07T08:47:40.000Z</time>
      </trkpt>
      <trkpt lat="51.13637" lon="6.8237">
        <ele>127.657972</ele>
        <time>2021-08-07T08:47:43.000Z</time>
      </trkpt>
      <trkpt lat="51.13628" lon="6.82387">
        <ele>127.673565</ele>
        <time>2021-08-07T08:47:46.000Z</time>
      </trkpt>
      <trkpt lat="51.13618" lon="6.8241">
        <ele>127.64142</ele>
        <time>2021-08-07T08:47:50.000Z</time>
      </trkpt>
      <trkpt lat="51.13611" lon="6.8243">
        <ele>127.612246</ele>
        <time>2021-08-07T08:47:54.000Z</time>
      </trkpt>
      <trkpt lat="51.1361" lon="6.82436">
        <ele>127.604059</ele>
        <time>2021-08-07T08:47:56.000Z</time>
      </trkpt>
      <trkpt lat="51.13609" lon="6.82441">
        <ele>127.596894</ele>
        <time>2021-08-07T08:47:58.000Z</time>
      </trkpt>
      <trkpt lat="51.136" lon="6.82463">
        <ele>127.563889</ele>
        <time>2021-08-07T08:48:04.000Z</time>
      </trkpt>
      <trkpt lat="51.13586" lon="6.82491">
        <ele>127.5193</ele>
        <time>2021-08-07T08:48:10.000Z</time>
      </trkpt>
      <trkpt lat="51.13577" lon="6.82512">
        <ele>127.487498</ele>
        <time>2021-08-07T08:48:14.000Z</time>
      </trkpt>
      <trkpt lat="51.13559" lon="6.82551">
        <ele>127.426047</ele>
        <time>2021-08-07T08:48:22.000Z</time>
      </trkpt>
      <trkpt lat="51.13544" lon="6.82579">
        <ele>127.380832</ele>
        <time>2021-08-07T08:48:29.000Z</time>
      </trkpt>
      <trkpt lat="51.13535" lon="6.82584">
        <ele>127.360484</ele>
        <time>2021-08-07T08:48:34.000Z</time>
      </trkpt>
      <trkpt lat="51.1353" lon="6.82583">
        <ele>127.350774</ele>
        <time>2021-08-07T08:48:36.000Z</time>
      </trkpt>
      <trkpt lat="51.13525" lon="6.82588">
        <ele>127.33922</ele>
        <time>2021-08-07T08:48:38.000Z</time>
      </trkpt>
      <trkpt lat="51.13513" lon="6.82605">
        <ele>127.273242</ele>
        <time>2021-08-07T08:48:43.000Z</time>
      </trkpt>
      <trkpt lat="51.13511" lon="6.82609">
        <ele>127.226918</ele>
        <time>2021-08-07T08:48:44.000Z</time>
      </trkpt>
      <trkpt lat="51.13495" lon="6.82631">
        <ele>126.952773</ele>
        <time>2021-08-07T08:48:49.000Z</time>
      </trkpt>
      <trkpt lat="51.13487" lon="6.82641">
        <ele>126.825903</ele>
        <time>2021-08-07T08:48:51.000Z</time>
      </trkpt>
      <trkpt lat="51.13461" lon="6.82677">
        <ele>126.372622</ele>
        <time>2021-08-07T08:48:58.000Z</time>
      </trkpt>
      <trkpt lat="51.13446" lon="6.82697">
        <ele>126.116542</ele>
        <time>2021-08-07T08:49:02.000Z</time>
      </trkpt>
      <trkpt lat="51.13436" lon="6.82711">
        <ele>125.939976</ele>
        <time>2021-08-07T08:49:05.000Z</time>
      </trkpt>
      <trkpt lat="51.13428" lon="6.82723">
        <ele>125.797024</ele>
        <time>2021-08-07T08:49:07.000Z</time>
      </trkpt>
      <trkpt lat="51.13424" lon="6.82729">
        <ele>125.729899</ele>
        <time>2021-08-07T08:49:08.000Z</time>
      </trkpt>
      <trkpt lat="51.13402" lon="6.8276">
        <ele>125.340431</ele>
        <time>2021-08-07T08:49:14.000Z</time>
      </trkpt>
      <trkpt lat="51.13398" lon="6.82765">
        <ele>125.277296</ele>
        <time>2021-08-07T08:49:15.000Z</time>
      </trkpt>
      <trkpt lat="51.13355" lon="6.82826">
        <ele>125.006591</ele>
        <time>2021-08-07T08:49:26.000Z</time>
      </trkpt>
      <trkpt lat="51.13338" lon="6.8285">
        <ele>125.038452</ele>
        <time>2021-08-07T08:49:31.000Z</time>
      </trkpt>
      <trkpt lat="51.13321" lon="6.82873">
        <ele>125.068468</ele>
        <time>2021-08-07T08:49:35.000Z</time>
      </trkpt>
      <trkpt lat="51.13313" lon="6.82882">
        <ele>125.081359</ele>
        <time>2021-08-07T08:49:37.000Z</time>
      </trkpt>
      <trkpt lat="51.13274" lon="6.82936">
        <ele>125.15275</ele>
        <time>2021-08-07T08:49:48.000Z</time>
      </trkpt>
      <trkpt lat="51.13266" lon="6.82946">
        <ele>125.166497</ele>
        <time>2021-08-07T08:49:50.000Z</time>
      </trkpt>
      <trkpt lat="51.1325" lon="6.82968">
        <ele>125.195458</ele>
        <time>2021-08-07T08:49:55.000Z</time>
      </trkpt>
      <trkpt lat="51.13244" lon="6.82977">
        <ele>125.206798</ele>
        <time>2021-08-07T08:49:57.000Z</time>
      </trkpt>
      <trkpt lat="51.13206" lon="6.8303">
        <ele>125.045156</ele>
        <time>2021-08-07T08:50:08.000Z</time>
      </trkpt>
      <trkpt lat="51.13164" lon="6.83088">
        <ele>124.865973</ele>
        <time>2021-08-07T08:50:19.000Z</time>
      </trkpt>
      <trkpt lat="51.1316" lon="6.83095">
        <ele>124.845933</ele>
        <time>2021-08-07T08:50:20.000Z</time>
      </trkpt>
      <trkpt lat="51.13137" lon="6.83126">
        <ele>124.749141</ele>
        <time>2021-08-07T08:50:26.000Z</time>
      </trkpt>
      <trkpt lat="51.13126" lon="6.83142">
        <ele>124.701297</ele>
        <time>2021-08-07T08:50:29.000Z</time>
      </trkpt>
      <trkpt lat="51.13123" lon="6.83147">
        <ele>124.685835</ele>
        <time>2021-08-07T08:50:30.000Z</time>
      </trkpt>
      <trkpt lat="51.13112" lon="6.83161">
        <ele>124.639864</ele>
        <time>2021-08-07T08:50:33.000Z</time>
      </trkpt>
      <trkpt lat="51.13083" lon="6.83201">
        <ele>125.064309</ele>
        <time>2021-08-07T08:50:41.000Z</time>
      </trkpt>
      <trkpt lat="51.1308" lon="6.83205">
        <ele>125.112189</ele>
        <time>2021-08-07T08:50:42.000Z</time>
      </trkpt>
      <trkpt lat="51.13055" lon="6.83241">
        <ele>125.551137</ele>
        <time>2021-08-07T08:50:50.000Z</time>
      </trkpt>
      <trkpt lat="51.13045" lon="6.83255">
        <ele>125.719784</ele>
        <time>2021-08-07T08:50:53.000Z</time>
      </trkpt>
      <trkpt lat="51.13024" lon="6.83284">
        <ele>126.091202</ele>
        <time>2021-08-07T08:51:00.000Z</time>
      </trkpt>
      <trkpt lat="51.13015" lon="6.83296">
        <ele>126.241538</ele>
        <time>2021-08-07T08:51:03.000Z</time>
      </trkpt>
      <trkpt lat="51.12991" lon="6.83329">
        <ele>126.649668</ele>
        <time>2021-08-07T08:51:12.000Z</time>
      </trkpt>
      <trkpt lat="51.12969" lon="6.83359">
        <ele>126.973654</ele>
        <time>2021-08-07T08:51:20.000Z</time>
      </trkpt>
      <trkpt lat="51.12963" lon="6.83368">
        <ele>126.987107</ele>
        <time>2021-08-07T08:51:22.000Z</time>
      </trkpt>
      <trkpt lat="51.12958" lon="6.83376">
        <ele>126.998345</ele>
        <time>2021-08-07T08:51:24.000Z</time>
      </trkpt>
      <trkpt lat="51.12944" lon="6.83395">
        <ele>127.027938</ele>
        <time>2021-08-07T08:51:29.000Z</time>
      </trkpt>
      <trkpt lat="51.12935" lon="6.83408">
        <ele>127.047443</ele>
        <time>2021-08-07T08:51:32.000Z</time>
      </trkpt>
      <trkpt lat="51.12929" lon="6.83416">
        <ele>127.059396</ele>
        <time>2021-08-07T08:51:34.000Z</time>
      </trkpt>
      <trkpt lat="51.12926" lon="6.83421">
        <ele>127.06604</ele>
        <time>2021-08-07T08:51:35.000Z</time>
      </trkpt>
      <trkpt lat="51.12923" lon="6.83425">
        <ele>127.072733</ele>
        <time>2021-08-07T08:51:36.000Z</time>
      </trkpt>
      <trkpt lat="51.12917" lon="6.83434">
        <ele>127.085918</ele>
        <time>2021-08-07T08:51:38.000Z</time>
      </trkpt>
      <trkpt lat="51.1291" lon="6.83443">
        <ele>127.100647</ele>
        <time>2021-08-07T08:51:40.000Z</time>
      </trkpt>
      <trkpt lat="51.12898" lon="6.83459">
        <ele>127.125375</ele>
        <time>2021-08-07T08:51:44.000Z</time>
      </trkpt>
      <trkpt lat="51.1287" lon="6.83497">
        <ele>127.183133</ele>
        <time>2021-08-07T08:51:52.000Z</time>
      </trkpt>
      <trkpt lat="51.12842" lon="6.83536">
        <ele>127.242925</ele>
        <time>2021-08-07T08:52:01.000Z</time>
      </trkpt>
      <trkpt lat="51.12803" lon="6.83589">
        <ele>127.164349</ele>
        <time>2021-08-07T08:52:13.000Z</time>
      </trkpt>
      <trkpt lat="51.12765" lon="6.83642">
        <ele>127.064596</ele>
        <time>2021-08-07T08:52:25.000Z</time>
      </trkpt>
      <trkpt lat="51.12726" lon="6.83697">
        <ele>126.961125</ele>
        <time>2021-08-07T08:52:37.000Z</time>
      </trkpt>
      <trkpt lat="51.12695" lon="6.83738">
        <ele>126.830806</ele>
        <time>2021-08-07T08:52:46.000Z</time>
      </trkpt>
      <trkpt lat="51.12685" lon="6.83752">
        <ele>126.713896</ele>
        <time>2021-08-07T08:52:49.000Z</time>
      </trkpt>
      <trkpt lat="51.12644" lon="6.8381">
        <ele>126.231685</ele>
        <time>2021-08-07T08:53:01.000Z</time>
      </trkpt>
      <trkpt lat="51.1264" lon="6.83815">
        <ele>126.189881</ele>
        <time>2021-08-07T08:53:02.000Z</time>
      </trkpt>
      <trkpt lat="51.12615" lon="6.83849">
        <ele>125.901849</ele>
        <time>2021-08-07T08:53:09.000Z</time>
      </trkpt>
      <trkpt lat="51.12608" lon="6.83858">
        <ele>125.821591</ele>
        <time>2021-08-07T08:53:11.000Z</time>
      </trkpt>
      <trkpt lat="51.12575" lon="6.83905">
        <ele>125.431716</ele>
        <time>2021-08-07T08:53:21.000Z</time>
      </trkpt>
      <trkpt lat="51.12563" lon="6.83921">
        <ele>125.283863</ele>
        <time>2021-08-07T08:53:25.000Z</time>
      </trkpt>
      <trkpt lat="51.12559" lon="6.83927">
        <ele>125.231363</ele>
        <time>2021-08-07T08:53:27.000Z</time>
      </trkpt>
      <trkpt lat="51.12559" lon="6.83929">
        <ele>125.217689</ele>
        <time>2021-08-07T08:53:30.000Z</time>
      </trkpt>
      <trkpt lat="51.12559" lon="6.83929">
        <ele>125.217689</ele>
        <time>2021-08-07T08:53:40.000Z</time>
      </trkpt>
      <trkpt lat="51.12559" lon="6.83929">
        <ele>125.217689</ele>
        <time>2021-08-07T08:53:52.000Z</time>
      </trkpt>
      <trkpt lat="51.12558" lon="6.8393">
        <ele>125.201996</ele>
        <time>2021-08-07T08:53:57.000Z</time>
      </trkpt>
      <trkpt lat="51.12556" lon="6.83932">
        <ele>125.176072</ele>
        <time>2021-08-07T08:54:03.000Z</time>
      </trkpt>
      <trkpt lat="51.12554" lon="6.83934">
        <ele>125.15608</ele>
        <time>2021-08-07T08:54:07.000Z</time>
      </trkpt>
      <trkpt lat="51.12551" lon="6.83938">
        <ele>125.112844</ele>
        <time>2021-08-07T08:54:09.000Z</time>
      </trkpt>
      <trkpt lat="51.12543" lon="6.83955">
        <ele>124.964917</ele>
        <time>2021-08-07T08:54:14.000Z</time>
      </trkpt>
      <trkpt lat="51.12526" lon="6.8398">
        <ele>124.715656</ele>
        <time>2021-08-07T08:54:20.000Z</time>
      </trkpt>
      <trkpt lat="51.12504" lon="6.84014">
        <ele>124.383717</ele>
        <time>2021-08-07T08:54:27.000Z</time>
      </trkpt>
      <trkpt lat="51.12501" lon="6.8402">
        <ele>124.333791</ele>
        <time>2021-08-07T08:54:28.000Z</time>
      </trkpt>
      <trkpt lat="51.12495" lon="6.84029">
        <ele>124.244044</ele>
        <time>2021-08-07T08:54:30.000Z</time>
      </trkpt>
      <trkpt lat="51.12489" lon="6.84036">
        <ele>124.16528</ele>
        <time>2021-08-07T08:54:32.000Z</time>
      </trkpt>
      <trkpt lat="51.12487" lon="6.84038">
        <ele>124.136461</ele>
        <time>2021-08-07T08:54:33.000Z</time>
      </trkpt>
      <trkpt lat="51.12485" lon="6.84041">
        <ele>124.108883</ele>
        <time>2021-08-07T08:54:34.000Z</time>
      </trkpt>
      <trkpt lat="51.12485" lon="6.84049">
        <ele>124.050238</ele>
        <time>2021-08-07T08:54:36.000Z</time>
      </trkpt>
      <trkpt lat="51.1248" lon="6.84074">
        <ele>123.870227</ele>
        <time>2021-08-07T08:54:41.000Z</time>
      </trkpt>
      <trkpt lat="51.12471" lon="6.84101">
        <ele>123.666775</ele>
        <time>2021-08-07T08:54:46.000Z</time>
      </trkpt>
      <trkpt lat="51.12465" lon="6.84118">
        <ele>123.533353</ele>
        <time>2021-08-07T08:54:49.000Z</time>
      </trkpt>
      <trkpt lat="51.1246" lon="6.84136">
        <ele>123.396456</ele>
        <time>2021-08-07T08:54:52.000Z</time>
      </trkpt>
      <trkpt lat="51.12456" lon="6.84148">
        <ele>123.398891</ele>
        <time>2021-08-07T08:54:54.000Z</time>
      </trkpt>
      <trkpt lat="51.12447" lon="6.84171">
        <ele>123.497118</ele>
        <time>2021-08-07T08:54:58.000Z</time>
      </trkpt>
      <trkpt lat="51.12433" lon="6.8422">
        <ele>123.691686</ele>
        <time>2021-08-07T08:55:06.000Z</time>
      </trkpt>
      <trkpt lat="51.12429" lon="6.84234">
        <ele>123.746265</ele>
        <time>2021-08-07T08:55:08.000Z</time>
      </trkpt>
      <trkpt lat="51.12419" lon="6.84271">
        <ele>123.89416</ele>
        <time>2021-08-07T08:55:14.000Z</time>
      </trkpt>
      <trkpt lat="51.12408" lon="6.84307">
        <ele>124.039488</ele>
        <time>2021-08-07T08:55:20.000Z</time>
      </trkpt>
      <trkpt lat="51.12406" lon="6.84311">
        <ele>124.058937</ele>
        <time>2021-08-07T08:55:21.000Z</time>
      </trkpt>
      <trkpt lat="51.12403" lon="6.84316">
        <ele>124.082983</ele>
        <time>2021-08-07T08:55:22.000Z</time>
      </trkpt>
      <trkpt lat="51.12385" lon="6.84353">
        <ele>124.253317</ele>
        <time>2021-08-07T08:55:29.000Z</time>
      </trkpt>
      <trkpt lat="51.12363" lon="6.84402">
        <ele>124.479886</ele>
        <time>2021-08-07T08:55:38.000Z</time>
      </trkpt>
      <trkpt lat="51.12343" lon="6.84445">
        <ele>124.700991</ele>
        <time>2021-08-07T08:55:47.000Z</time>
      </trkpt>
      <trkpt lat="51.12338" lon="6.84459">
        <ele>124.768865</ele>
        <time>2021-08-07T08:55:52.000Z</time>
      </trkpt>
      <trkpt lat="51.12336" lon="6.84463">
        <ele>124.786622</ele>
        <time>2021-08-07T08:55:57.000Z</time>
      </trkpt>
      <trkpt lat="51.12333" lon="6.84469">
        <ele>124.820029</ele>
        <time>2021-08-07T08:55:59.000Z</time>
      </trkpt>
      <trkpt lat="51.12333" lon="6.84473">
        <ele>124.837401</ele>
        <time>2021-08-07T08:56:00.000Z</time>
      </trkpt>
      <trkpt lat="51.12333" lon="6.84477">
        <ele>124.852496</ele>
        <time>2021-08-07T08:56:01.000Z</time>
      </trkpt>
      <trkpt lat="51.12344" lon="6.8449">
        <ele>124.943409</ele>
        <time>2021-08-07T08:56:05.000Z</time>
      </trkpt>
      <trkpt lat="51.12365" lon="6.84508">
        <ele>125.096665</ele>
        <time>2021-08-07T08:56:11.000Z</time>
      </trkpt>
      <trkpt lat="51.12368" lon="6.84512">
        <ele>125.123505</ele>
        <time>2021-08-07T08:56:12.000Z</time>
      </trkpt>
      <trkpt lat="51.12391" lon="6.84527">
        <ele>125.287458</ele>
        <time>2021-08-07T08:56:18.000Z</time>
      </trkpt>
      <trkpt lat="51.12418" lon="6.84534">
        <ele>125.463657</ele>
        <time>2021-08-07T08:56:25.000Z</time>
      </trkpt>
      <trkpt lat="51.12429" lon="6.84535">
        <ele>125.537837</ele>
        <time>2021-08-07T08:56:28.000Z</time>
      </trkpt>
      <trkpt lat="51.12434" lon="6.84542">
        <ele>125.582451</ele>
        <time>2021-08-07T08:56:30.000Z</time>
      </trkpt>
      <trkpt lat="51.12437" lon="6.84565">
        <ele>125.590041</ele>
        <time>2021-08-07T08:56:34.000Z</time>
      </trkpt>
      <trkpt lat="51.12435" lon="6.84597">
        <ele>125.597191</ele>
        <time>2021-08-07T08:56:39.000Z</time>
      </trkpt>
      <trkpt lat="51.12434" lon="6.84624">
        <ele>125.603045</ele>
        <time>2021-08-07T08:56:43.000Z</time>
      </trkpt>
      <trkpt lat="51.12434" lon="6.84632">
        <ele>125.604823</ele>
        <time>2021-08-07T08:56:44.000Z</time>
      </trkpt>
      <trkpt lat="51.12435" lon="6.84644">
        <ele>125.607399</ele>
        <time>2021-08-07T08:56:46.000Z</time>
      </trkpt>
      <trkpt lat="51.12434" lon="6.84656">
        <ele>125.610059</ele>
        <time>2021-08-07T08:56:48.000Z</time>
      </trkpt>
      <trkpt lat="51.12425" lon="6.84683">
        <ele>125.616908</ele>
        <time>2021-08-07T08:56:53.000Z</time>
      </trkpt>
      <trkpt lat="51.12422" lon="6.84692">
        <ele>125.619024</ele>
        <time>2021-08-07T08:56:55.000Z</time>
      </trkpt>
      <trkpt lat="51.12416" lon="6.847">
        <ele>125.621787</ele>
        <time>2021-08-07T08:56:58.000Z</time>
      </trkpt>
      <trkpt lat="51.12411" lon="6.8472">
        <ele>125.626508</ele>
        <time>2021-08-07T08:57:02.000Z</time>
      </trkpt>
      <trkpt lat="51.12411" lon="6.84733">
        <ele>125.62938</ele>
        <time>2021-08-07T08:57:04.000Z</time>
      </trkpt>
      <trkpt lat="51.12412" lon="6.84754">
        <ele>125.633917</ele>
        <time>2021-08-07T08:57:07.000Z</time>
      </trkpt>
      <trkpt lat="51.12414" lon="6.84801">
        <ele>125.644183</ele>
        <time>2021-08-07T08:57:13.000Z</time>
      </trkpt>
      <trkpt lat="51.12418" lon="6.84865">
        <ele>125.387942</ele>
        <time>2021-08-07T08:57:22.000Z</time>
      </trkpt>
      <trkpt lat="51.12427" lon="6.84927">
        <ele>125.043469</ele>
        <time>2021-08-07T08:57:31.000Z</time>
      </trkpt>
      <trkpt lat="51.12428" lon="6.84934">
        <ele>125.003663</ele>
        <time>2021-08-07T08:57:32.000Z</time>
      </trkpt>
      <trkpt lat="51.12429" lon="6.84941">
        <ele>124.964393</ele>
        <time>2021-08-07T08:57:33.000Z</time>
      </trkpt>
      <trkpt lat="51.12431" lon="6.84955">
        <ele>124.88463</ele>
        <time>2021-08-07T08:57:35.000Z</time>
      </trkpt>
      <trkpt lat="51.12434" lon="6.8497">
        <ele>124.799156</ele>
        <time>2021-08-07T08:57:37.000Z</time>
      </trkpt>
      <trkpt lat="51.1244" lon="6.85014">
        <ele>124.556528</ele>
        <time>2021-08-07T08:57:44.000Z</time>
      </trkpt>
      <trkpt lat="51.12443" lon="6.85047">
        <ele>124.375416</ele>
        <time>2021-08-07T08:57:49.000Z</time>
      </trkpt>
      <trkpt lat="51.12444" lon="6.85057">
        <ele>124.31662</ele>
        <time>2021-08-07T08:57:51.000Z</time>
      </trkpt>
      <trkpt lat="51.12443" lon="6.85067">
        <ele>124.264751</ele>
        <time>2021-08-07T08:57:53.000Z</time>
      </trkpt>
      <trkpt lat="51.12441" lon="6.85069">
        <ele>124.241929</ele>
        <time>2021-08-07T08:57:54.000Z</time>
      </trkpt>
      <trkpt lat="51.12422" lon="6.8508">
        <ele>124.095018</ele>
        <time>2021-08-07T08:58:00.000Z</time>
      </trkpt>
      <trkpt lat="51.12404" lon="6.85091">
        <ele>124.154968</ele>
        <time>2021-08-07T08:58:04.000Z</time>
      </trkpt>
      <trkpt lat="51.12395" lon="6.85093">
        <ele>124.182956</ele>
        <time>2021-08-07T08:58:06.000Z</time>
      </trkpt>
      <trkpt lat="51.12377" lon="6.85096">
        <ele>124.23973</ele>
        <time>2021-08-07T08:58:10.000Z</time>
      </trkpt>
      <trkpt lat="51.12368" lon="6.851">
        <ele>124.268454</ele>
        <time>2021-08-07T08:58:12.000Z</time>
      </trkpt>
      <trkpt lat="51.12365" lon="6.85101">
        <ele>124.278192</ele>
        <time>2021-08-07T08:58:13.000Z</time>
      </trkpt>
      <trkpt lat="51.12352" lon="6.85099">
        <ele>124.316699</ele>
        <time>2021-08-07T08:58:17.000Z</time>
      </trkpt>
      <trkpt lat="51.12347" lon="6.851">
        <ele>124.332513</ele>
        <time>2021-08-07T08:58:20.000Z</time>
      </trkpt>
      <trkpt lat="51.12347" lon="6.851">
        <ele>124.333163</ele>
        <time>2021-08-07T08:58:22.000Z</time>
      </trkpt>
      <trkpt lat="51.12347" lon="6.85099">
        <ele>124.334534</ele>
        <time>2021-08-07T08:58:33.000Z</time>
      </trkpt>
      <trkpt lat="51.12347" lon="6.85099">
        <ele>124.334534</ele>
        <time>2021-08-07T08:58:43.000Z</time>
      </trkpt>
      <trkpt lat="51.12347" lon="6.85099">
        <ele>124.334534</ele>
        <time>2021-08-07T08:58:47.000Z</time>
      </trkpt>
      <trkpt lat="51.12347" lon="6.85099">
        <ele>124.334534</ele>
        <time>2021-08-07T08:58:49.000Z</time>
      </trkpt>
      <trkpt lat="51.12346" lon="6.85099">
        <ele>124.33655</ele>
        <time>2021-08-07T08:58:53.000Z</time>
      </trkpt>
      <trkpt lat="51.12346" lon="6.85098">
        <ele>124.338541</ele>
        <time>2021-08-07T08:59:07.000Z</time>
      </trkpt>
      <trkpt lat="51.12346" lon="6.85098">
        <ele>124.338541</ele>
        <time>2021-08-07T08:59:10.000Z</time>
      </trkpt>
      <trkpt lat="51.12345" lon="6.85095">
        <ele>124.345875</ele>
        <time>2021-08-07T08:59:27.000Z</time>
      </trkpt>
      <trkpt lat="51.11982" lon="6.85193">
        <ele>125.314758</ele>
        <time>2021-08-07T09:21:59.000Z</time>
      </trkpt>
      <trkpt lat="51.11981" lon="6.85196">
        <ele>125.317503</ele>
        <time>2021-08-07T09:22:00.000Z</time>
      </trkpt>
      <trkpt lat="51.11978" lon="6.85202">
        <ele>125.323686</ele>
        <time>2021-08-07T09:22:02.000Z</time>
      </trkpt>
      <trkpt lat="51.12016" lon="6.85131">
        <ele>125.395031</ele>
        <time>2021-08-07T09:22:04.000Z</time>
      </trkpt>
      <trkpt lat="51.12023" lon="6.8512">
        <ele>125.407038</ele>
        <time>2021-08-07T09:22:06.000Z</time>
      </trkpt>
      <trkpt lat="51.12028" lon="6.85126">
        <ele>125.414941</ele>
        <time>2021-08-07T09:22:10.000Z</time>
      </trkpt>
      <trkpt lat="51.12033" lon="6.85128">
        <ele>125.420517</ele>
        <time>2021-08-07T09:22:16.000Z</time>
      </trkpt>
      <trkpt lat="51.12034" lon="6.85139">
        <ele>125.391211</ele>
        <time>2021-08-07T09:22:19.000Z</time>
      </trkpt>
      <trkpt lat="51.12035" lon="6.85146">
        <ele>125.360514</ele>
        <time>2021-08-07T09:22:21.000Z</time>
      </trkpt>
      <trkpt lat="51.12034" lon="6.8515">
        <ele>125.341507</ele>
        <time>2021-08-07T09:22:22.000Z</time>
      </trkpt>
      <trkpt lat="51.12041" lon="6.85164">
        <ele>125.267334</ele>
        <time>2021-08-07T09:22:28.000Z</time>
      </trkpt>
      <trkpt lat="51.12044" lon="6.85169">
        <ele>125.235988</ele>
        <time>2021-08-07T09:22:33.000Z</time>
      </trkpt>
      <trkpt lat="51.12045" lon="6.85167">
        <ele>125.226649</ele>
        <time>2021-08-07T09:22:39.000Z</time>
      </trkpt>
      <trkpt lat="51.12045" lon="6.85168">
        <ele>125.223408</ele>
        <time>2021-08-07T09:22:43.000Z</time>
      </trkpt>
      <trkpt lat="51.12045" lon="6.85168">
        <ele>125.222616</ele>
        <time>2021-08-07T09:22:45.000Z</time>
      </trkpt>
      <trkpt lat="51.12043" lon="6.85165">
        <ele>125.206662</ele>
        <time>2021-08-07T09:22:51.000Z</time>
      </trkpt>
      <trkpt lat="51.12042" lon="6.85168">
        <ele>125.192024</ele>
        <time>2021-08-07T09:22:56.000Z</time>
      </trkpt>
      <trkpt lat="51.12044" lon="6.85177">
        <ele>125.153634</ele>
        <time>2021-08-07T09:23:01.000Z</time>
      </trkpt>
      <trkpt lat="51.12043" lon="6.85178">
        <ele>125.148964</ele>
        <time>2021-08-07T09:23:03.000Z</time>
      </trkpt>
      <trkpt lat="51.12043" lon="6.85175">
        <ele>125.137569</ele>
        <time>2021-08-07T09:23:06.000Z</time>
      </trkpt>
      <trkpt lat="51.12044" lon="6.85175">
        <ele>125.133881</ele>
        <time>2021-08-07T09:23:10.000Z</time>
      </trkpt>
      <trkpt lat="51.12045" lon="6.85174">
        <ele>125.12538</ele>
        <time>2021-08-07T09:23:14.000Z</time>
      </trkpt>
      <trkpt lat="51.12045" lon="6.85172">
        <ele>125.120697</ele>
        <time>2021-08-07T09:23:19.000Z</time>
      </trkpt>
      <trkpt lat="51.12046" lon="6.85171">
        <ele>125.110194</ele>
        <time>2021-08-07T09:23:27.000Z</time>
      </trkpt>
      <trkpt lat="51.12046" lon="6.85171">
        <ele>125.108087</ele>
        <time>2021-08-07T09:23:42.000Z</time>
      </trkpt>
      <trkpt lat="51.12046" lon="6.85171">
        <ele>125.105876</ele>
        <time>2021-08-07T09:23:55.000Z</time>
      </trkpt>
      <trkpt lat="51.12046" lon="6.8517">
        <ele>125.101888</ele>
        <time>2021-08-07T09:24:11.000Z</time>
      </trkpt>
      <trkpt lat="51.12046" lon="6.85173">
        <ele>125.089308</ele>
        <time>2021-08-07T09:24:34.000Z</time>
      </trkpt>
      <trkpt lat="51.12045" lon="6.85173">
        <ele>125.086494</ele>
        <time>2021-08-07T09:24:40.000Z</time>
      </trkpt>
      <trkpt lat="51.12045" lon="6.85173">
        <ele>125.086494</ele>
        <time>2021-08-07T09:24:44.000Z</time>
      </trkpt>
      <trkpt lat="51.12044" lon="6.85173">
        <ele>125.079003</ele>
        <time>2021-08-07T09:24:52.000Z</time>
      </trkpt>
      <trkpt lat="51.12044" lon="6.85172">
        <ele>125.075567</ele>
        <time>2021-08-07T09:25:02.000Z</time>
      </trkpt>
      <trkpt lat="51.12044" lon="6.85172">
        <ele>125.073881</ele>
        <time>2021-08-07T09:25:10.000Z</time>
      </trkpt>
      <trkpt lat="51.12044" lon="6.85171">
        <ele>125.072196</ele>
        <time>2021-08-07T09:25:17.000Z</time>
      </trkpt>
      <trkpt lat="51.12044" lon="6.85171">
        <ele>125.071525</ele>
        <time>2021-08-07T09:25:20.000Z</time>
      </trkpt>
      <trkpt lat="51.12044" lon="6.85171">
        <ele>125.070732</ele>
        <time>2021-08-07T09:25:22.000Z</time>
      </trkpt>
      <trkpt lat="51.12045" lon="6.85171">
        <ele>125.068719</ele>
        <time>2021-08-07T09:25:25.000Z</time>
      </trkpt>
      <trkpt lat="51.12045" lon="6.85171">
        <ele>125.066705</ele>
        <time>2021-08-07T09:25:36.000Z</time>
      </trkpt>
      <trkpt lat="51.12047" lon="6.85169">
        <ele>125.05173</ele>
        <time>2021-08-07T09:25:51.000Z</time>
      </trkpt>
      <trkpt lat="51.12047" lon="6.85166">
        <ele>125.037254</ele>
        <time>2021-08-07T09:25:54.000Z</time>
      </trkpt>
      <trkpt lat="51.12047" lon="6.85163">
        <ele>125.025859</ele>
        <time>2021-08-07T09:26:01.000Z</time>
      </trkpt>
      <trkpt lat="51.12048" lon="6.85162">
        <ele>125.020795</ele>
        <time>2021-08-07T09:26:04.000Z</time>
      </trkpt>
      <trkpt lat="51.12048" lon="6.85163">
        <ele>125.020003</ele>
        <time>2021-08-07T09:26:07.000Z</time>
      </trkpt>
      <trkpt lat="51.12048" lon="6.85163">
        <ele>125.020003</ele>
        <time>2021-08-07T09:26:10.000Z</time>
      </trkpt>
      <trkpt lat="51.12047" lon="6.85161">
        <ele>125.012509</ele>
        <time>2021-08-07T09:26:27.000Z</time>
      </trkpt>
      <trkpt lat="51.12048" lon="6.85161">
        <ele>125.011102</ele>
        <time>2021-08-07T09:26:31.000Z</time>
      </trkpt>
      <trkpt lat="51.12049" lon="6.8516">
        <ele>124.997383</ele>
        <time>2021-08-07T09:26:35.000Z</time>
      </trkpt>
      <trkpt lat="51.12056" lon="6.85159">
        <ele>124.952953</ele>
        <time>2021-08-07T09:26:38.000Z</time>
      </trkpt>
      <trkpt lat="51.12062" lon="6.85159">
        <ele>124.916026</ele>
        <time>2021-08-07T09:26:40.000Z</time>
      </trkpt>
      <trkpt lat="51.12067" lon="6.85156">
        <ele>124.877635</ele>
        <time>2021-08-07T09:26:42.000Z</time>
      </trkpt>
      <trkpt lat="51.12079" lon="6.85149">
        <ele>124.791264</ele>
        <time>2021-08-07T09:26:47.000Z</time>
      </trkpt>
      <trkpt lat="51.1208" lon="6.85146">
        <ele>124.778384</ele>
        <time>2021-08-07T09:26:48.000Z</time>
      </trkpt>
      <trkpt lat="51.12079" lon="6.85139">
        <ele>124.748958</ele>
        <time>2021-08-07T09:26:51.000Z</time>
      </trkpt>
      <trkpt lat="51.12077" lon="6.85138">
        <ele>124.732408</ele>
        <time>2021-08-07T09:26:53.000Z</time>
      </trkpt>
      <trkpt lat="51.12076" lon="6.85143">
        <ele>124.712008</ele>
        <time>2021-08-07T09:26:55.000Z</time>
      </trkpt>
      <trkpt lat="51.12077" lon="6.85147">
        <ele>124.695139</ele>
        <time>2021-08-07T09:26:56.000Z</time>
      </trkpt>
      <trkpt lat="51.1208" lon="6.85152">
        <ele>124.664457</ele>
        <time>2021-08-07T09:26:58.000Z</time>
      </trkpt>
      <trkpt lat="51.12086" lon="6.85155">
        <ele>124.625784</ele>
        <time>2021-08-07T09:27:00.000Z</time>
      </trkpt>
      <trkpt lat="51.12098" lon="6.85159">
        <ele>124.543238</ele>
        <time>2021-08-07T09:27:05.000Z</time>
      </trkpt>
      <trkpt lat="51.12104" lon="6.8516">
        <ele>124.502332</ele>
        <time>2021-08-07T09:27:08.000Z</time>
      </trkpt>
      <trkpt lat="51.12115" lon="6.85163">
        <ele>124.425505</ele>
        <time>2021-08-07T09:27:14.000Z</time>
      </trkpt>
      <trkpt lat="51.12132" lon="6.85163">
        <ele>124.312017</ele>
        <time>2021-08-07T09:27:20.000Z</time>
      </trkpt>
      <trkpt lat="51.12142" lon="6.8516">
        <ele>124.243865</ele>
        <time>2021-08-07T09:27:24.000Z</time>
      </trkpt>
      <trkpt lat="51.12147" lon="6.85158">
        <ele>124.218754</ele>
        <time>2021-08-07T09:27:26.000Z</time>
      </trkpt>
      <trkpt lat="51.12152" lon="6.85158">
        <ele>124.231608</ele>
        <time>2021-08-07T09:27:28.000Z</time>
      </trkpt>
      <trkpt lat="51.12156" lon="6.85158">
        <ele>124.240872</ele>
        <time>2021-08-07T09:27:30.000Z</time>
      </trkpt>
      <trkpt lat="51.12164" lon="6.85158">
        <ele>124.261638</ele>
        <time>2021-08-07T09:27:35.000Z</time>
      </trkpt>
      <trkpt lat="51.12175" lon="6.85156">
        <ele>124.291184</ele>
        <time>2021-08-07T09:27:40.000Z</time>
      </trkpt>
      <trkpt lat="51.12195" lon="6.85153">
        <ele>124.340612</ele>
        <time>2021-08-07T09:27:47.000Z</time>
      </trkpt>
      <trkpt lat="51.12206" lon="6.85148">
        <ele>124.36969</ele>
        <time>2021-08-07T09:27:51.000Z</time>
      </trkpt>
      <trkpt lat="51.12208" lon="6.85146">
        <ele>124.37636</ele>
        <time>2021-08-07T09:27:52.000Z</time>
      </trkpt>
      <trkpt lat="51.1221" lon="6.85145">
        <ele>124.3816</ele>
        <time>2021-08-07T09:27:53.000Z</time>
      </trkpt>
      <trkpt lat="51.12219" lon="6.85143">
        <ele>124.404918</ele>
        <time>2021-08-07T09:27:56.000Z</time>
      </trkpt>
      <trkpt lat="51.12238" lon="6.85138">
        <ele>124.455099</ele>
        <time>2021-08-07T09:28:03.000Z</time>
      </trkpt>
      <trkpt lat="51.12245" lon="6.85132">
        <ele>124.475329</ele>
        <time>2021-08-07T09:28:07.000Z</time>
      </trkpt>
      <trkpt lat="51.12246" lon="6.85128">
        <ele>124.480782</ele>
        <time>2021-08-07T09:28:08.000Z</time>
      </trkpt>
      <trkpt lat="51.12248" lon="6.85125">
        <ele>124.487816</ele>
        <time>2021-08-07T09:28:09.000Z</time>
      </trkpt>
      <trkpt lat="51.12256" lon="6.85122">
        <ele>124.509885</ele>
        <time>2021-08-07T09:28:12.000Z</time>
      </trkpt>
      <trkpt lat="51.12261" lon="6.85122">
        <ele>124.521688</ele>
        <time>2021-08-07T09:28:13.000Z</time>
      </trkpt>
      <trkpt lat="51.12265" lon="6.85115">
        <ele>124.538735</ele>
        <time>2021-08-07T09:28:15.000Z</time>
      </trkpt>
      <trkpt lat="51.12268" lon="6.85107">
        <ele>124.552508</ele>
        <time>2021-08-07T09:28:17.000Z</time>
      </trkpt>
      <trkpt lat="51.1227" lon="6.85111">
        <ele>124.560488</ele>
        <time>2021-08-07T09:28:18.000Z</time>
      </trkpt>
      <trkpt lat="51.12273" lon="6.85116">
        <ele>124.571758</ele>
        <time>2021-08-07T09:28:20.000Z</time>
      </trkpt>
      <trkpt lat="51.12276" lon="6.85116">
        <ele>124.581266</ele>
        <time>2021-08-07T09:28:22.000Z</time>
      </trkpt>
      <trkpt lat="51.12291" lon="6.85109">
        <ele>124.620787</ele>
        <time>2021-08-07T09:28:27.000Z</time>
      </trkpt>
      <trkpt lat="51.12304" lon="6.85101">
        <ele>124.65688</ele>
        <time>2021-08-07T09:28:32.000Z</time>
      </trkpt>
      <trkpt lat="51.1231" lon="6.85093">
        <ele>124.676353</ele>
        <time>2021-08-07T09:28:36.000Z</time>
      </trkpt>
      <trkpt lat="51.12326" lon="6.85101">
        <ele>124.612748</ele>
        <time>2021-08-07T09:28:41.000Z</time>
      </trkpt>
      <trkpt lat="51.12335" lon="6.85102">
        <ele>124.575753</ele>
        <time>2021-08-07T09:28:44.000Z</time>
      </trkpt>
      <trkpt lat="51.12345" lon="6.85105">
        <ele>124.537693</ele>
        <time>2021-08-07T09:28:48.000Z</time>
      </trkpt>
      <trkpt lat="51.12356" lon="6.85123">
        <ele>124.476684</ele>
        <time>2021-08-07T09:28:52.000Z</time>
      </trkpt>
      <trkpt lat="51.12361" lon="6.85129">
        <ele>124.454601</ele>
        <time>2021-08-07T09:28:53.000Z</time>
      </trkpt>
      <trkpt lat="51.12372" lon="6.85146">
        <ele>124.39262</ele>
        <time>2021-08-07T09:28:56.000Z</time>
      </trkpt>
      <trkpt lat="51.12389" lon="6.85169">
        <ele>124.306549</ele>
        <time>2021-08-07T09:29:00.000Z</time>
      </trkpt>
      <trkpt lat="51.12403" lon="6.8519">
        <ele>124.230148</ele>
        <time>2021-08-07T09:29:04.000Z</time>
      </trkpt>
      <trkpt lat="51.1241" lon="6.85204">
        <ele>124.189351</ele>
        <time>2021-08-07T09:29:06.000Z</time>
      </trkpt>
      <trkpt lat="51.12419" lon="6.85217">
        <ele>124.141405</ele>
        <time>2021-08-07T09:29:10.000Z</time>
      </trkpt>
      <trkpt lat="51.12421" lon="6.85218">
        <ele>124.134518</ele>
        <time>2021-08-07T09:29:11.000Z</time>
      </trkpt>
      <trkpt lat="51.12426" lon="6.85215">
        <ele>124.112359</ele>
        <time>2021-08-07T09:29:13.000Z</time>
      </trkpt>
      <trkpt lat="51.12448" lon="6.8519">
        <ele>124.007073</ele>
        <time>2021-08-07T09:29:20.000Z</time>
      </trkpt>
      <trkpt lat="51.12461" lon="6.85173">
        <ele>124.114981</ele>
        <time>2021-08-07T09:29:24.000Z</time>
      </trkpt>
      <trkpt lat="51.12479" lon="6.85151">
        <ele>124.424209</ele>
        <time>2021-08-07T09:29:29.000Z</time>
      </trkpt>
      <trkpt lat="51.12497" lon="6.8513">
        <ele>124.73013</ele>
        <time>2021-08-07T09:29:34.000Z</time>
      </trkpt>
      <trkpt lat="51.12504" lon="6.85121">
        <ele>124.86787</ele>
        <time>2021-08-07T09:29:36.000Z</time>
      </trkpt>
      <trkpt lat="51.12509" lon="6.85118">
        <ele>124.932849</ele>
        <time>2021-08-07T09:29:37.000Z</time>
      </trkpt>
      <trkpt lat="51.12525" lon="6.85104">
        <ele>125.19578</ele>
        <time>2021-08-07T09:29:41.000Z</time>
      </trkpt>
      <trkpt lat="51.12537" lon="6.85093">
        <ele>125.379579</ele>
        <time>2021-08-07T09:29:44.000Z</time>
      </trkpt>
      <trkpt lat="51.12544" lon="6.85086">
        <ele>125.503746</ele>
        <time>2021-08-07T09:29:46.000Z</time>
      </trkpt>
      <trkpt lat="51.12571" lon="6.85058">
        <ele>125.943892</ele>
        <time>2021-08-07T09:29:54.000Z</time>
      </trkpt>
      <trkpt lat="51.12573" lon="6.85055">
        <ele>125.986045</ele>
        <time>2021-08-07T09:29:55.000Z</time>
      </trkpt>
      <trkpt lat="51.12581" lon="6.85038">
        <ele>126.1788</ele>
        <time>2021-08-07T09:30:00.000Z</time>
      </trkpt>
      <trkpt lat="51.12585" lon="6.85029">
        <ele>126.272398</ele>
        <time>2021-08-07T09:30:03.000Z</time>
      </trkpt>
      <trkpt lat="51.12588" lon="6.85018">
        <ele>126.379568</ele>
        <time>2021-08-07T09:30:06.000Z</time>
      </trkpt>
      <trkpt lat="51.12589" lon="6.85008">
        <ele>126.469399</ele>
        <time>2021-08-07T09:30:09.000Z</time>
      </trkpt>
      <trkpt lat="51.12591" lon="6.85001">
        <ele>126.436441</ele>
        <time>2021-08-07T09:30:12.000Z</time>
      </trkpt>
      <trkpt lat="51.12592" lon="6.84996">
        <ele>126.37664</ele>
        <time>2021-08-07T09:30:14.000Z</time>
      </trkpt>
      <trkpt lat="51.12604" lon="6.8499">
        <ele>126.160373</ele>
        <time>2021-08-07T09:30:20.000Z</time>
      </trkpt>
      <trkpt lat="51.12623" lon="6.8498">
        <ele>125.794975</ele>
        <time>2021-08-07T09:30:27.000Z</time>
      </trkpt>
      <trkpt lat="51.12638" lon="6.84973">
        <ele>125.506568</ele>
        <time>2021-08-07T09:30:32.000Z</time>
      </trkpt>
      <trkpt lat="51.12642" lon="6.84972">
        <ele>125.437773</ele>
        <time>2021-08-07T09:30:33.000Z</time>
      </trkpt>
      <trkpt lat="51.12651" lon="6.84968">
        <ele>125.261406</ele>
        <time>2021-08-07T09:30:36.000Z</time>
      </trkpt>
      <trkpt lat="51.12657" lon="6.84965">
        <ele>125.154133</ele>
        <time>2021-08-07T09:30:38.000Z</time>
      </trkpt>
      <trkpt lat="51.12671" lon="6.84958">
        <ele>124.88001</ele>
        <time>2021-08-07T09:30:43.000Z</time>
      </trkpt>
      <trkpt lat="51.12684" lon="6.84953">
        <ele>124.638385</ele>
        <time>2021-08-07T09:30:47.000Z</time>
      </trkpt>
      <trkpt lat="51.12687" lon="6.84952">
        <ele>124.587784</ele>
        <time>2021-08-07T09:30:48.000Z</time>
      </trkpt>
      <trkpt lat="51.12689" lon="6.84951">
        <ele>124.542035</ele>
        <time>2021-08-07T09:30:49.000Z</time>
      </trkpt>
      <trkpt lat="51.12692" lon="6.84952">
        <ele>124.491704</ele>
        <time>2021-08-07T09:30:50.000Z</time>
      </trkpt>
      <trkpt lat="51.12697" lon="6.84959">
        <ele>124.375084</ele>
        <time>2021-08-07T09:30:52.000Z</time>
      </trkpt>
      <trkpt lat="51.12703" lon="6.84977">
        <ele>124.140229</ele>
        <time>2021-08-07T09:30:55.000Z</time>
      </trkpt>
      <trkpt lat="51.12707" lon="6.84991">
        <ele>123.962556</ele>
        <time>2021-08-07T09:30:57.000Z</time>
      </trkpt>
      <trkpt lat="51.12715" lon="6.85019">
        <ele>123.61222</ele>
        <time>2021-08-07T09:31:01.000Z</time>
      </trkpt>
      <trkpt lat="51.1272" lon="6.85031">
        <ele>123.457637</ele>
        <time>2021-08-07T09:31:03.000Z</time>
      </trkpt>
      <trkpt lat="51.1273" lon="6.85063">
        <ele>123.272212</ele>
        <time>2021-08-07T09:31:09.000Z</time>
      </trkpt>
      <trkpt lat="51.12738" lon="6.85096">
        <ele>123.376879</ele>
        <time>2021-08-07T09:31:16.000Z</time>
      </trkpt>
      <trkpt lat="51.12743" lon="6.85123">
        <ele>123.456828</ele>
        <time>2021-08-07T09:31:23.000Z</time>
      </trkpt>
      <trkpt lat="51.12751" lon="6.85134">
        <ele>123.505445</ele>
        <time>2021-08-07T09:31:29.000Z</time>
      </trkpt>
      <trkpt lat="51.12753" lon="6.85134">
        <ele>123.513928</ele>
        <time>2021-08-07T09:31:32.000Z</time>
      </trkpt>
      <trkpt lat="51.12753" lon="6.85135">
        <ele>123.517849</ele>
        <time>2021-08-07T09:31:35.000Z</time>
      </trkpt>
      <trkpt lat="51.12753" lon="6.85136">
        <ele>123.519313</ele>
        <time>2021-08-07T09:31:37.000Z</time>
      </trkpt>
      <trkpt lat="51.12753" lon="6.85136">
        <ele>123.519313</ele>
        <time>2021-08-07T09:31:41.000Z</time>
      </trkpt>
      <trkpt lat="51.12753" lon="6.85135">
        <ele>123.52105</ele>
        <time>2021-08-07T09:31:44.000Z</time>
      </trkpt>
      <trkpt lat="51.12753" lon="6.85135">
        <ele>123.52105</ele>
        <time>2021-08-07T09:31:47.000Z</time>
      </trkpt>
      <trkpt lat="51.12753" lon="6.85135">
        <ele>123.52105</ele>
        <time>2021-08-07T09:31:51.000Z</time>
      </trkpt>
      <trkpt lat="51.12753" lon="6.85135">
        <ele>123.52105</ele>
        <time>2021-08-07T09:32:02.000Z</time>
      </trkpt>
      <trkpt lat="51.12753" lon="6.85135">
        <ele>123.52105</ele>
        <time>2021-08-07T09:32:11.000Z</time>
      </trkpt>
      <trkpt lat="51.12753" lon="6.85135">
        <ele>123.52105</ele>
        <time>2021-08-07T09:32:31.000Z</time>
      </trkpt>
      <trkpt lat="51.12753" lon="6.85135">
        <ele>123.52105</ele>
        <time>2021-08-07T09:32:43.000Z</time>
      </trkpt>
      <trkpt lat="51.12753" lon="6.85135">
        <ele>123.52105</ele>
        <time>2021-08-07T09:32:46.000Z</time>
      </trkpt>
      <trkpt lat="51.12753" lon="6.85135">
        <ele>123.52105</ele>
        <time>2021-08-07T09:33:06.000Z</time>
      </trkpt>
      <trkpt lat="51.12753" lon="6.85135">
        <ele>123.52105</ele>
        <time>2021-08-07T09:33:07.000Z</time>
      </trkpt>
      <trkpt lat="51.12753" lon="6.85135">
        <ele>123.52105</ele>
        <time>2021-08-07T09:33:08.000Z</time>
      </trkpt>
      <trkpt lat="51.12753" lon="6.85135">
        <ele>123.52105</ele>
        <time>2021-08-07T09:33:21.000Z</time>
      </trkpt>
      <trkpt lat="51.12753" lon="6.85135">
        <ele>123.52105</ele>
        <time>2021-08-07T09:33:37.000Z</time>
      </trkpt>
      <trkpt lat="51.12753" lon="6.85135">
        <ele>123.52105</ele>
        <time>2021-08-07T09:34:00.000Z</time>
      </trkpt>
      <trkpt lat="51.12753" lon="6.85135">
        <ele>123.52105</ele>
        <time>2021-08-07T09:34:08.000Z</time>
      </trkpt>
      <trkpt lat="51.12753" lon="6.85135">
        <ele>123.52105</ele>
        <time>2021-08-07T09:34:15.000Z</time>
      </trkpt>
      <trkpt lat="51.12753" lon="6.85135">
        <ele>123.52105</ele>
        <time>2021-08-07T09:34:25.000Z</time>
      </trkpt>
      <trkpt lat="51.12753" lon="6.85135">
        <ele>123.52105</ele>
        <time>2021-08-07T09:34:30.000Z</time>
      </trkpt>
      <trkpt lat="51.13282" lon="6.85454">
        <ele>126.739919</ele>
        <time>2021-08-07T09:52:02.000Z</time>
      </trkpt>
      <trkpt lat="51.13268" lon="6.85442">
        <ele>126.816017</ele>
        <time>2021-08-07T09:52:04.000Z</time>
      </trkpt>
      <trkpt lat="51.13283" lon="6.85443">
        <ele>126.888834</ele>
        <time>2021-08-07T09:52:06.000Z</time>
      </trkpt>
      <trkpt lat="51.13285" lon="6.8544">
        <ele>126.90052</ele>
        <time>2021-08-07T09:52:07.000Z</time>
      </trkpt>
      <trkpt lat="51.13318" lon="6.85418">
        <ele>127.074884</ele>
        <time>2021-08-07T09:52:15.000Z</time>
      </trkpt>
      <trkpt lat="51.13324" lon="6.85414">
        <ele>127.109459</ele>
        <time>2021-08-07T09:52:17.000Z</time>
      </trkpt>
      <trkpt lat="51.13347" lon="6.85405">
        <ele>127.169735</ele>
        <time>2021-08-07T09:52:21.000Z</time>
      </trkpt>
      <trkpt lat="51.13383" lon="6.854">
        <ele>127.129739</ele>
        <time>2021-08-07T09:52:28.000Z</time>
      </trkpt>
      <trkpt lat="51.13392" lon="6.85399">
        <ele>127.118691</ele>
        <time>2021-08-07T09:52:30.000Z</time>
      </trkpt>
      <trkpt lat="51.13404" lon="6.85403">
        <ele>127.105717</ele>
        <time>2021-08-07T09:52:32.000Z</time>
      </trkpt>
      <trkpt lat="51.13443" lon="6.85419">
        <ele>127.060936</ele>
        <time>2021-08-07T09:52:40.000Z</time>
      </trkpt>
      <trkpt lat="51.13483" lon="6.85442">
        <ele>127.013306</ele>
        <time>2021-08-07T09:52:49.000Z</time>
      </trkpt>
      <trkpt lat="51.13513" lon="6.85456">
        <ele>126.978687</ele>
        <time>2021-08-07T09:52:56.000Z</time>
      </trkpt>
      <trkpt lat="51.13517" lon="6.85459">
        <ele>126.968645</ele>
        <time>2021-08-07T09:52:57.000Z</time>
      </trkpt>
      <trkpt lat="51.13521" lon="6.85462">
        <ele>126.958866</ele>
        <time>2021-08-07T09:52:58.000Z</time>
      </trkpt>
      <trkpt lat="51.13525" lon="6.85465">
        <ele>126.948938</ele>
        <time>2021-08-07T09:52:59.000Z</time>
      </trkpt>
      <trkpt lat="51.13546" lon="6.85482">
        <ele>126.897718</ele>
        <time>2021-08-07T09:53:04.000Z</time>
      </trkpt>
      <trkpt lat="51.13573" lon="6.85499">
        <ele>126.834544</ele>
        <time>2021-08-07T09:53:10.000Z</time>
      </trkpt>
      <trkpt lat="51.13587" lon="6.85508">
        <ele>126.803033</ele>
        <time>2021-08-07T09:53:13.000Z</time>
      </trkpt>
      <trkpt lat="51.13606" lon="6.8552">
        <ele>126.758693</ele>
        <time>2021-08-07T09:53:17.000Z</time>
      </trkpt>
      <trkpt lat="51.13622" lon="6.85529">
        <ele>126.722622</ele>
        <time>2021-08-07T09:53:20.000Z</time>
      </trkpt>
      <trkpt lat="51.13627" lon="6.85533">
        <ele>126.710498</ele>
        <time>2021-08-07T09:53:21.000Z</time>
      </trkpt>
      <trkpt lat="51.13681" lon="6.85563">
        <ele>126.587617</ele>
        <time>2021-08-07T09:53:31.000Z</time>
      </trkpt>
      <trkpt lat="51.13702" lon="6.85579">
        <ele>126.548574</ele>
        <time>2021-08-07T09:53:35.000Z</time>
      </trkpt>
      <trkpt lat="51.13717" lon="6.8559">
        <ele>126.51906</ele>
        <time>2021-08-07T09:53:38.000Z</time>
      </trkpt>
      <trkpt lat="51.13727" lon="6.85599">
        <ele>126.499355</ele>
        <time>2021-08-07T09:53:40.000Z</time>
      </trkpt>
      <trkpt lat="51.13767" lon="6.85638">
        <ele>126.420305</ele>
        <time>2021-08-07T09:53:48.000Z</time>
      </trkpt>
      <trkpt lat="51.13814" lon="6.8569">
        <ele>126.321717</ele>
        <time>2021-08-07T09:53:58.000Z</time>
      </trkpt>
      <trkpt lat="51.13827" lon="6.85704">
        <ele>126.294253</ele>
        <time>2021-08-07T09:54:01.000Z</time>
      </trkpt>
      <trkpt lat="51.13842" lon="6.85718">
        <ele>126.296588</ele>
        <time>2021-08-07T09:54:04.000Z</time>
      </trkpt>
      <trkpt lat="51.13859" lon="6.85731">
        <ele>126.320801</ele>
        <time>2021-08-07T09:54:07.000Z</time>
      </trkpt>
      <trkpt lat="51.13884" lon="6.85754">
        <ele>126.357958</ele>
        <time>2021-08-07T09:54:12.000Z</time>
      </trkpt>
      <trkpt lat="51.13904" lon="6.85772">
        <ele>126.38705</ele>
        <time>2021-08-07T09:54:16.000Z</time>
      </trkpt>
      <trkpt lat="51.13926" lon="6.85795">
        <ele>126.421464</ele>
        <time>2021-08-07T09:54:21.000Z</time>
      </trkpt>
      <trkpt lat="51.13939" lon="6.85809">
        <ele>126.441261</ele>
        <time>2021-08-07T09:54:24.000Z</time>
      </trkpt>
      <trkpt lat="51.13964" lon="6.85836">
        <ele>126.479612</ele>
        <time>2021-08-07T09:54:30.000Z</time>
      </trkpt>
      <trkpt lat="51.13968" lon="6.8584">
        <ele>126.486051</ele>
        <time>2021-08-07T09:54:31.000Z</time>
      </trkpt>
      <trkpt lat="51.14004" lon="6.85864">
        <ele>126.560282</ele>
        <time>2021-08-07T09:54:39.000Z</time>
      </trkpt>
      <trkpt lat="51.14058" lon="6.85896">
        <ele>126.709156</ele>
        <time>2021-08-07T09:54:50.000Z</time>
      </trkpt>
      <trkpt lat="51.14102" lon="6.85929">
        <ele>126.837281</ele>
        <time>2021-08-07T09:54:59.000Z</time>
      </trkpt>
      <trkpt lat="51.14108" lon="6.85933">
        <ele>126.852406</ele>
        <time>2021-08-07T09:55:00.000Z</time>
      </trkpt>
      <trkpt lat="51.14138" lon="6.8595">
        <ele>126.936273</ele>
        <time>2021-08-07T09:55:06.000Z</time>
      </trkpt>
      <trkpt lat="51.14158" lon="6.85961">
        <ele>126.976894</ele>
        <time>2021-08-07T09:55:10.000Z</time>
      </trkpt>
      <trkpt lat="51.142" lon="6.85989">
        <ele>126.855848</ele>
        <time>2021-08-07T09:55:19.000Z</time>
      </trkpt>
      <trkpt lat="51.14229" lon="6.86007">
        <ele>126.772923</ele>
        <time>2021-08-07T09:55:25.000Z</time>
      </trkpt>
      <trkpt lat="51.14248" lon="6.86018">
        <ele>126.718413</ele>
        <time>2021-08-07T09:55:29.000Z</time>
      </trkpt>
      <trkpt lat="51.14296" lon="6.86044">
        <ele>126.582835</ele>
        <time>2021-08-07T09:55:38.000Z</time>
      </trkpt>
      <trkpt lat="51.14309" lon="6.86056">
        <ele>126.544468</ele>
        <time>2021-08-07T09:55:41.000Z</time>
      </trkpt>
      <trkpt lat="51.14313" lon="6.86068">
        <ele>126.521704</ele>
        <time>2021-08-07T09:55:43.000Z</time>
      </trkpt>
      <trkpt lat="51.14315" lon="6.86082">
        <ele>126.500262</ele>
        <time>2021-08-07T09:55:45.000Z</time>
      </trkpt>
      <trkpt lat="51.14315" lon="6.86103">
        <ele>126.475854</ele>
        <time>2021-08-07T09:55:48.000Z</time>
      </trkpt>
      <trkpt lat="51.14318" lon="6.86151">
        <ele>126.421011</ele>
        <time>2021-08-07T09:55:54.000Z</time>
      </trkpt>
      <trkpt lat="51.14318" lon="6.86159">
        <ele>126.411429</ele>
        <time>2021-08-07T09:55:55.000Z</time>
      </trkpt>
      <trkpt lat="51.1432" lon="6.86235">
        <ele>126.325148</ele>
        <time>2021-08-07T09:56:03.000Z</time>
      </trkpt>
      <trkpt lat="51.14321" lon="6.86246">
        <ele>126.312383</ele>
        <time>2021-08-07T09:56:04.000Z</time>
      </trkpt>
      <trkpt lat="51.14322" lon="6.86253">
        <ele>126.304004</ele>
        <time>2021-08-07T09:56:05.000Z</time>
      </trkpt>
      <trkpt lat="51.14328" lon="6.86278">
        <ele>126.273908</ele>
        <time>2021-08-07T09:56:08.000Z</time>
      </trkpt>
      <trkpt lat="51.14328" lon="6.86289">
        <ele>126.261672</ele>
        <time>2021-08-07T09:56:09.000Z</time>
      </trkpt>
      <trkpt lat="51.14329" lon="6.86334">
        <ele>126.209635</ele>
        <time>2021-08-07T09:56:15.000Z</time>
      </trkpt>
      <trkpt lat="51.14331" lon="6.86341">
        <ele>126.201637</ele>
        <time>2021-08-07T09:56:16.000Z</time>
      </trkpt>
      <trkpt lat="51.14333" lon="6.86349">
        <ele>126.190955</ele>
        <time>2021-08-07T09:56:17.000Z</time>
      </trkpt>
      <trkpt lat="51.14338" lon="6.86381">
        <ele>126.281832</ele>
        <time>2021-08-07T09:56:21.000Z</time>
      </trkpt>
      <trkpt lat="51.14339" lon="6.86388">
        <ele>126.318796</ele>
        <time>2021-08-07T09:56:22.000Z</time>
      </trkpt>
      <trkpt lat="51.14345" lon="6.86419">
        <ele>126.473724</ele>
        <time>2021-08-07T09:56:26.000Z</time>
      </trkpt>
      <trkpt lat="51.14347" lon="6.86426">
        <ele>126.508861</ele>
        <time>2021-08-07T09:56:27.000Z</time>
      </trkpt>
      <trkpt lat="51.14353" lon="6.86445">
        <ele>126.613411</ele>
        <time>2021-08-07T09:56:30.000Z</time>
      </trkpt>
      <trkpt lat="51.14355" lon="6.86452">
        <ele>126.646688</ele>
        <time>2021-08-07T09:56:31.000Z</time>
      </trkpt>
      <trkpt lat="51.14358" lon="6.86465">
        <ele>126.713996</ele>
        <time>2021-08-07T09:56:33.000Z</time>
      </trkpt>
      <trkpt lat="51.14363" lon="6.86492">
        <ele>126.848925</ele>
        <time>2021-08-07T09:56:37.000Z</time>
      </trkpt>
      <trkpt lat="51.14365" lon="6.86505">
        <ele>126.912751</ele>
        <time>2021-08-07T09:56:39.000Z</time>
      </trkpt>
      <trkpt lat="51.14367" lon="6.86525">
        <ele>127.01033</ele>
        <time>2021-08-07T09:56:42.000Z</time>
      </trkpt>
      <trkpt lat="51.14369" lon="6.86537">
        <ele>127.072131</ele>
        <time>2021-08-07T09:56:44.000Z</time>
      </trkpt>
      <trkpt lat="51.14378" lon="6.86559">
        <ele>127.197321</ele>
        <time>2021-08-07T09:56:48.000Z</time>
      </trkpt>
      <trkpt lat="51.14382" lon="6.86561">
        <ele>127.227904</ele>
        <time>2021-08-07T09:56:49.000Z</time>
      </trkpt>
      <trkpt lat="51.14398" lon="6.86557">
        <ele>127.354167</ele>
        <time>2021-08-07T09:56:54.000Z</time>
      </trkpt>
      <trkpt lat="51.1441" lon="6.86554">
        <ele>127.44504</ele>
        <time>2021-08-07T09:56:59.000Z</time>
      </trkpt>
      <trkpt lat="51.14417" lon="6.86552">
        <ele>127.502255</ele>
        <time>2021-08-07T09:57:05.000Z</time>
      </trkpt>
      <trkpt lat="51.14418" lon="6.86552">
        <ele>127.504591</ele>
        <time>2021-08-07T09:57:08.000Z</time>
      </trkpt>
      <trkpt lat="51.14419" lon="6.86551">
        <ele>127.517409</ele>
        <time>2021-08-07T09:57:10.000Z</time>
      </trkpt>
      <trkpt lat="51.1442" lon="6.8655">
        <ele>127.525166</ele>
        <time>2021-08-07T09:57:11.000Z</time>
      </trkpt>
      <trkpt lat="51.1443" lon="6.86538">
        <ele>127.703567</ele>
        <time>2021-08-07T09:57:16.000Z</time>
      </trkpt>
      <trkpt lat="51.14434" lon="6.86531">
        <ele>127.805928</ele>
        <time>2021-08-07T09:57:18.000Z</time>
      </trkpt>
      <trkpt lat="51.14441" lon="6.86515">
        <ele>128.009615</ele>
        <time>2021-08-07T09:57:22.000Z</time>
      </trkpt>
      <trkpt lat="51.14447" lon="6.86502">
        <ele>128.168749</ele>
        <time>2021-08-07T09:57:25.000Z</time>
      </trkpt>
      <trkpt lat="51.14455" lon="6.86485">
        <ele>128.386371</ele>
        <time>2021-08-07T09:57:29.000Z</time>
      </trkpt>
      <trkpt lat="51.14456" lon="6.86481">
        <ele>128.434781</ele>
        <time>2021-08-07T09:57:30.000Z</time>
      </trkpt>
      <trkpt lat="51.14462" lon="6.8647">
        <ele>128.591292</ele>
        <time>2021-08-07T09:57:33.000Z</time>
      </trkpt>
      <trkpt lat="51.14466" lon="6.86463">
        <ele>128.684952</ele>
        <time>2021-08-07T09:57:35.000Z</time>
      </trkpt>
      <trkpt lat="51.14469" lon="6.86455">
        <ele>128.779971</ele>
        <time>2021-08-07T09:57:37.000Z</time>
      </trkpt>
      <trkpt lat="51.14473" lon="6.86448">
        <ele>128.873056</ele>
        <time>2021-08-07T09:57:39.000Z</time>
      </trkpt>
      <trkpt lat="51.14476" lon="6.86441">
        <ele>128.969858</ele>
        <time>2021-08-07T09:57:41.000Z</time>
      </trkpt>
      <trkpt lat="51.14478" lon="6.86438">
        <ele>129.012302</ele>
        <time>2021-08-07T09:57:42.000Z</time>
      </trkpt>
      <trkpt lat="51.14481" lon="6.86433">
        <ele>129.083117</ele>
        <time>2021-08-07T09:57:44.000Z</time>
      </trkpt>
      <trkpt lat="51.14486" lon="6.86422">
        <ele>129.218201</ele>
        <time>2021-08-07T09:57:48.000Z</time>
      </trkpt>
      <trkpt lat="51.14489" lon="6.86416">
        <ele>129.298284</ele>
        <time>2021-08-07T09:57:50.000Z</time>
      </trkpt>
      <trkpt lat="51.14492" lon="6.86408">
        <ele>129.39595</ele>
        <time>2021-08-07T09:57:52.000Z</time>
      </trkpt>
      <trkpt lat="51.14501" lon="6.8639">
        <ele>129.633077</ele>
        <time>2021-08-07T09:57:57.000Z</time>
      </trkpt>
      <trkpt lat="51.14505" lon="6.86383">
        <ele>129.741877</ele>
        <time>2021-08-07T09:58:00.000Z</time>
      </trkpt>
      <trkpt lat="51.14507" lon="6.86381">
        <ele>129.773051</ele>
        <time>2021-08-07T09:58:02.000Z</time>
      </trkpt>
      <trkpt lat="51.14507" lon="6.86381">
        <ele>129.778428</ele>
        <time>2021-08-07T09:58:05.000Z</time>
      </trkpt>
      <trkpt lat="51.14509" lon="6.86382">
        <ele>129.8111</ele>
        <time>2021-08-07T09:58:07.000Z</time>
      </trkpt>
      <trkpt lat="51.14512" lon="6.86386">
        <ele>129.869296</ele>
        <time>2021-08-07T09:58:09.000Z</time>
      </trkpt>
      <trkpt lat="51.14512" lon="6.86391">
        <ele>129.918158</ele>
        <time>2021-08-07T09:58:11.000Z</time>
      </trkpt>
      <trkpt lat="51.14511" lon="6.86394">
        <ele>129.960233</ele>
        <time>2021-08-07T09:58:15.000Z</time>
      </trkpt>
      <trkpt lat="51.14511" lon="6.86395">
        <ele>129.968565</ele>
        <time>2021-08-07T09:58:16.000Z</time>
      </trkpt>
      <trkpt lat="51.1451" lon="6.86395">
        <ele>129.986231</ele>
        <time>2021-08-07T09:58:18.000Z</time>
      </trkpt>
      <trkpt lat="51.14509" lon="6.86396">
        <ele>130.000598</ele>
        <time>2021-08-07T09:58:19.000Z</time>
      </trkpt>
      <trkpt lat="51.14507" lon="6.864">
        <ele>130.060341</ele>
        <time>2021-08-07T09:58:21.000Z</time>
      </trkpt>
      <trkpt lat="51.14502" lon="6.86405">
        <ele>130.153326</ele>
        <time>2021-08-07T09:58:23.000Z</time>
      </trkpt>
      <trkpt lat="51.14494" lon="6.86418">
        <ele>130.335373</ele>
        <time>2021-08-07T09:58:28.000Z</time>
      </trkpt>
      <trkpt lat="51.14493" lon="6.86421">
        <ele>130.372277</ele>
        <time>2021-08-07T09:58:29.000Z</time>
      </trkpt>
      <trkpt lat="51.14492" lon="6.86424">
        <ele>130.411059</ele>
        <time>2021-08-07T09:58:30.000Z</time>
      </trkpt>
      <trkpt lat="51.14489" lon="6.8643">
        <ele>130.488464</ele>
        <time>2021-08-07T09:58:35.000Z</time>
      </trkpt>
      <trkpt lat="51.1449" lon="6.86432">
        <ele>130.509252</ele>
        <time>2021-08-07T09:58:39.000Z</time>
      </trkpt>
      <trkpt lat="51.1449" lon="6.86432">
        <ele>130.509252</ele>
        <time>2021-08-07T09:58:41.000Z</time>
      </trkpt>
      <trkpt lat="51.1449" lon="6.86432">
        <ele>130.509252</ele>
        <time>2021-08-07T09:58:48.000Z</time>
      </trkpt>
      <trkpt lat="51.14489" lon="6.8644">
        <ele>130.605099</ele>
        <time>2021-08-07T09:58:56.000Z</time>
      </trkpt>
      <trkpt lat="51.14486" lon="6.86448">
        <ele>130.712147</ele>
        <time>2021-08-07T09:59:01.000Z</time>
      </trkpt>
      <trkpt lat="51.14484" lon="6.86449">
        <ele>130.745111</ele>
        <time>2021-08-07T09:59:05.000Z</time>
      </trkpt>
      <trkpt lat="51.14482" lon="6.8645">
        <ele>130.781484</ele>
        <time>2021-08-07T09:59:09.000Z</time>
      </trkpt>
      <trkpt lat="51.14487" lon="6.86452">
        <ele>130.875495</ele>
        <time>2021-08-07T09:59:15.000Z</time>
      </trkpt>
      <trkpt lat="51.14489" lon="6.86452">
        <ele>130.901829</ele>
        <time>2021-08-07T09:59:16.000Z</time>
      </trkpt>
      <trkpt lat="51.14492" lon="6.86449">
        <ele>130.971037</ele>
        <time>2021-08-07T09:59:21.000Z</time>
      </trkpt>
      <trkpt lat="51.14492" lon="6.86448">
        <ele>130.991265</ele>
        <time>2021-08-07T09:59:22.000Z</time>
      </trkpt>
      <trkpt lat="51.14491" lon="6.86442">
        <ele>131.060486</ele>
        <time>2021-08-07T09:59:26.000Z</time>
      </trkpt>
      <trkpt lat="51.14491" lon="6.86442">
        <ele>131.060486</ele>
        <time>2021-08-07T09:59:30.000Z</time>
      </trkpt>
      <trkpt lat="51.14491" lon="6.86442">
        <ele>131.060486</ele>
        <time>2021-08-07T09:59:33.000Z</time>
      </trkpt>
      <trkpt lat="51.14491" lon="6.86441">
        <ele>131.067503</ele>
        <time>2021-08-07T09:59:46.000Z</time>
      </trkpt>
      <trkpt lat="51.14491" lon="6.86441">
        <ele>131.067503</ele>
        <time>2021-08-07T09:59:48.000Z</time>
      </trkpt>
      <trkpt lat="51.14491" lon="6.86441">
        <ele>131.067503</ele>
        <time>2021-08-07T09:59:58.000Z</time>
      </trkpt>
      <trkpt lat="51.14491" lon="6.86442">
        <ele>131.078404</ele>
        <time>2021-08-07T10:00:01.000Z</time>
      </trkpt>
      <trkpt lat="51.14493" lon="6.86443">
        <ele>131.101526</ele>
        <time>2021-08-07T10:00:06.000Z</time>
      </trkpt>
      <trkpt lat="51.14493" lon="6.86443">
        <ele>131.116622</ele>
        <time>2021-08-07T10:00:15.000Z</time>
      </trkpt>
      <trkpt lat="51.14493" lon="6.86443">
        <ele>131.116622</ele>
        <time>2021-08-07T10:00:17.000Z</time>
      </trkpt>
      <trkpt lat="51.14493" lon="6.86443">
        <ele>131.116622</ele>
        <time>2021-08-07T10:00:27.000Z</time>
      </trkpt>
      <trkpt lat="51.14493" lon="6.86443">
        <ele>131.116622</ele>
        <time>2021-08-07T10:00:30.000Z</time>
      </trkpt>
      <trkpt lat="51.14493" lon="6.86443">
        <ele>131.116622</ele>
        <time>2021-08-07T10:00:31.000Z</time>
      </trkpt>
      <trkpt lat="51.14493" lon="6.86443">
        <ele>131.116622</ele>
        <time>2021-08-07T10:00:34.000Z</time>
      </trkpt>
      <trkpt lat="51.14679" lon="6.86158">
        <ele>135.341206</ele>
        <time>2021-08-07T11:11:10.000Z</time>
      </trkpt>
      <trkpt lat="51.14705" lon="6.86148">
        <ele>135.69517</ele>
        <time>2021-08-07T11:11:15.000Z</time>
      </trkpt>
      <trkpt lat="51.14714" lon="6.86144">
        <ele>135.818647</ele>
        <time>2021-08-07T11:11:17.000Z</time>
      </trkpt>
      <trkpt lat="51.14721" lon="6.86144">
        <ele>135.922815</ele>
        <time>2021-08-07T11:11:19.000Z</time>
      </trkpt>
      <trkpt lat="51.14741" lon="6.86147">
        <ele>136.185586</ele>
        <time>2021-08-07T11:11:23.000Z</time>
      </trkpt>
      <trkpt lat="51.14783" lon="6.86144">
        <ele>136.30262</ele>
        <time>2021-08-07T11:11:31.000Z</time>
      </trkpt>
      <trkpt lat="51.14822" lon="6.86137">
        <ele>136.329802</ele>
        <time>2021-08-07T11:11:39.000Z</time>
      </trkpt>
      <trkpt lat="51.14862" lon="6.86131">
        <ele>136.357159</ele>
        <time>2021-08-07T11:11:47.000Z</time>
      </trkpt>
      <trkpt lat="51.14876" lon="6.86128">
        <ele>136.367015</ele>
        <time>2021-08-07T11:11:50.000Z</time>
      </trkpt>
      <trkpt lat="51.14899" lon="6.86123">
        <ele>136.383323</ele>
        <time>2021-08-07T11:11:55.000Z</time>
      </trkpt>
      <trkpt lat="51.1491" lon="6.86121">
        <ele>136.390795</ele>
        <time>2021-08-07T11:11:57.000Z</time>
      </trkpt>
      <trkpt lat="51.1492" lon="6.8612">
        <ele>136.39768</ele>
        <time>2021-08-07T11:11:59.000Z</time>
      </trkpt>
      <trkpt lat="51.14935" lon="6.86119">
        <ele>136.403722</ele>
        <time>2021-08-07T11:12:02.000Z</time>
      </trkpt>
      <trkpt lat="51.1496" lon="6.86114">
        <ele>136.407589</ele>
        <time>2021-08-07T11:12:07.000Z</time>
      </trkpt>
      <trkpt lat="51.14963" lon="6.86113">
        <ele>136.4082</ele>
        <time>2021-08-07T11:12:08.000Z</time>
      </trkpt>
      <trkpt lat="51.14994" lon="6.86108">
        <ele>136.413069</ele>
        <time>2021-08-07T11:12:14.000Z</time>
      </trkpt>
      <trkpt lat="51.15004" lon="6.86105">
        <ele>136.414719</ele>
        <time>2021-08-07T11:12:16.000Z</time>
      </trkpt>
      <trkpt lat="51.15035" lon="6.861">
        <ele>136.419673</ele>
        <time>2021-08-07T11:12:22.000Z</time>
      </trkpt>
      <trkpt lat="51.15071" lon="6.86098">
        <ele>136.425247</ele>
        <time>2021-08-07T11:12:29.000Z</time>
      </trkpt>
      <trkpt lat="51.15119" lon="6.86107">
        <ele>136.535024</ele>
        <time>2021-08-07T11:12:39.000Z</time>
      </trkpt>
      <trkpt lat="51.15141" lon="6.86109">
        <ele>136.713052</ele>
        <time>2021-08-07T11:12:44.000Z</time>
      </trkpt>
      <trkpt lat="51.15154" lon="6.86109">
        <ele>136.815857</ele>
        <time>2021-08-07T11:12:47.000Z</time>
      </trkpt>
      <trkpt lat="51.15175" lon="6.86105">
        <ele>136.985081</ele>
        <time>2021-08-07T11:12:52.000Z</time>
      </trkpt>
      <trkpt lat="51.15183" lon="6.86104">
        <ele>137.047371</ele>
        <time>2021-08-07T11:12:54.000Z</time>
      </trkpt>
      <trkpt lat="51.15204" lon="6.86101">
        <ele>137.213858</ele>
        <time>2021-08-07T11:12:59.000Z</time>
      </trkpt>
      <trkpt lat="51.15213" lon="6.861">
        <ele>137.287285</ele>
        <time>2021-08-07T11:13:01.000Z</time>
      </trkpt>
      <trkpt lat="51.15217" lon="6.86099">
        <ele>137.32034</ele>
        <time>2021-08-07T11:13:02.000Z</time>
      </trkpt>
      <trkpt lat="51.1525" lon="6.86095">
        <ele>137.586716</ele>
        <time>2021-08-07T11:13:10.000Z</time>
      </trkpt>
      <trkpt lat="51.15285" lon="6.8609">
        <ele>137.863543</ele>
        <time>2021-08-07T11:13:18.000Z</time>
      </trkpt>
      <trkpt lat="51.15301" lon="6.86089">
        <ele>137.888158</ele>
        <time>2021-08-07T11:13:22.000Z</time>
      </trkpt>
      <trkpt lat="51.15331" lon="6.86083">
        <ele>137.934302</ele>
        <time>2021-08-07T11:13:29.000Z</time>
      </trkpt>
      <trkpt lat="51.15335" lon="6.86083">
        <ele>137.940541</ele>
        <time>2021-08-07T11:13:30.000Z</time>
      </trkpt>
      <trkpt lat="51.15371" lon="6.86078">
        <ele>137.995281</ele>
        <time>2021-08-07T11:13:39.000Z</time>
      </trkpt>
      <trkpt lat="51.15405" lon="6.86074">
        <ele>138.047687</ele>
        <time>2021-08-07T11:13:47.000Z</time>
      </trkpt>
      <trkpt lat="51.15429" lon="6.86071">
        <ele>138.084052</ele>
        <time>2021-08-07T11:13:53.000Z</time>
      </trkpt>
      <trkpt lat="51.15443" lon="6.8607">
        <ele>138.104877</ele>
        <time>2021-08-07T11:13:56.000Z</time>
      </trkpt>
      <trkpt lat="51.1545" lon="6.8607">
        <ele>138.115687</ele>
        <time>2021-08-07T11:13:58.000Z</time>
      </trkpt>
      <trkpt lat="51.1547" lon="6.86067">
        <ele>138.149589</ele>
        <time>2021-08-07T11:14:03.000Z</time>
      </trkpt>
      <trkpt lat="51.15494" lon="6.86063">
        <ele>138.205106</ele>
        <time>2021-08-07T11:14:10.000Z</time>
      </trkpt>
      <trkpt lat="51.15505" lon="6.86062">
        <ele>138.229748</ele>
        <time>2021-08-07T11:14:17.000Z</time>
      </trkpt>
      <trkpt lat="51.15505" lon="6.86066">
        <ele>138.235074</ele>
        <time>2021-08-07T11:14:22.000Z</time>
      </trkpt>
      <trkpt lat="51.15503" lon="6.86076">
        <ele>138.250295</ele>
        <time>2021-08-07T11:14:25.000Z</time>
      </trkpt>
      <trkpt lat="51.15501" lon="6.86078">
        <ele>138.25528</ele>
        <time>2021-08-07T11:14:26.000Z</time>
      </trkpt>
      <trkpt lat="51.15498" lon="6.86093">
        <ele>138.277623</ele>
        <time>2021-08-07T11:14:30.000Z</time>
      </trkpt>
      <trkpt lat="51.15513" lon="6.86117">
        <ele>138.325176</ele>
        <time>2021-08-07T11:14:37.000Z</time>
      </trkpt>
      <trkpt lat="51.15516" lon="6.86121">
        <ele>138.3349</ele>
        <time>2021-08-07T11:14:39.000Z</time>
      </trkpt>
      <trkpt lat="51.15519" lon="6.86129">
        <ele>138.34693</ele>
        <time>2021-08-07T11:14:42.000Z</time>
      </trkpt>
      <trkpt lat="51.15521" lon="6.86142">
        <ele>138.365994</ele>
        <time>2021-08-07T11:14:47.000Z</time>
      </trkpt>
      <trkpt lat="51.15521" lon="6.86142">
        <ele>138.366521</ele>
        <time>2021-08-07T11:14:48.000Z</time>
      </trkpt>
      <trkpt lat="51.15522" lon="6.86143">
        <ele>138.367395</ele>
        <time>2021-08-07T11:14:51.000Z</time>
      </trkpt>
      <trkpt lat="51.15522" lon="6.86143">
        <ele>138.367395</ele>
        <time>2021-08-07T11:15:01.000Z</time>
      </trkpt>
      <trkpt lat="51.15522" lon="6.86143">
        <ele>138.367395</ele>
        <time>2021-08-07T11:15:17.000Z</time>
      </trkpt>
      <trkpt lat="51.15522" lon="6.86142">
        <ele>138.36808</ele>
        <time>2021-08-07T11:15:20.000Z</time>
      </trkpt>
      <trkpt lat="51.15525" lon="6.86137">
        <ele>138.378292</ele>
        <time>2021-08-07T11:15:23.000Z</time>
      </trkpt>
      <trkpt lat="51.15523" lon="6.86129">
        <ele>138.391053</ele>
        <time>2021-08-07T11:15:26.000Z</time>
      </trkpt>
      <trkpt lat="51.1552" lon="6.86128">
        <ele>138.396813</ele>
        <time>2021-08-07T11:15:27.000Z</time>
      </trkpt>
      <trkpt lat="51.15517" lon="6.86126">
        <ele>138.405714</ele>
        <time>2021-08-07T11:15:31.000Z</time>
      </trkpt>
      <trkpt lat="51.15515" lon="6.86126">
        <ele>138.408855</ele>
        <time>2021-08-07T11:15:32.000Z</time>
      </trkpt>
      <trkpt lat="51.15513" lon="6.86129">
        <ele>138.4152</ele>
        <time>2021-08-07T11:15:34.000Z</time>
      </trkpt>
      <trkpt lat="51.15514" lon="6.86134">
        <ele>138.422655</ele>
        <time>2021-08-07T11:15:36.000Z</time>
      </trkpt>
      <trkpt lat="51.15523" lon="6.86141">
        <ele>138.445438</ele>
        <time>2021-08-07T11:15:41.000Z</time>
      </trkpt>
      <trkpt lat="51.15527" lon="6.86146">
        <ele>138.456748</ele>
        <time>2021-08-07T11:15:44.000Z</time>
      </trkpt>
      <trkpt lat="51.15528" lon="6.86154">
        <ele>138.467404</ele>
        <time>2021-08-07T11:15:46.000Z</time>
      </trkpt>
      <trkpt lat="51.15521" lon="6.86172">
        <ele>138.496683</ele>
        <time>2021-08-07T11:15:50.000Z</time>
      </trkpt>
      <trkpt lat="51.15521" lon="6.86208">
        <ele>138.541561</ele>
        <time>2021-08-07T11:15:56.000Z</time>
      </trkpt>
      <trkpt lat="51.1552" lon="6.8624">
        <ele>138.553496</ele>
        <time>2021-08-07T11:16:01.000Z</time>
      </trkpt>
      <trkpt lat="51.15522" lon="6.86277">
        <ele>138.567755</ele>
        <time>2021-08-07T11:16:07.000Z</time>
      </trkpt>
      <trkpt lat="51.15524" lon="6.86308">
        <ele>138.579276</ele>
        <time>2021-08-07T11:16:11.000Z</time>
      </trkpt>
      <trkpt lat="51.15525" lon="6.86315">
        <ele>138.582009</ele>
        <time>2021-08-07T11:16:12.000Z</time>
      </trkpt>
      <trkpt lat="51.15524" lon="6.8635">
        <ele>138.595309</ele>
        <time>2021-08-07T11:16:18.000Z</time>
      </trkpt>
      <trkpt lat="51.15525" lon="6.86378">
        <ele>138.605811</ele>
        <time>2021-08-07T11:16:22.000Z</time>
      </trkpt>
      <trkpt lat="51.15526" lon="6.86385">
        <ele>138.608535</ele>
        <time>2021-08-07T11:16:23.000Z</time>
      </trkpt>
      <trkpt lat="51.15526" lon="6.86402">
        <ele>138.614912</ele>
        <time>2021-08-07T11:16:26.000Z</time>
      </trkpt>
      <trkpt lat="51.1553" lon="6.86411">
        <ele>138.619532</ele>
        <time>2021-08-07T11:16:28.000Z</time>
      </trkpt>
      <trkpt lat="51.15538" lon="6.8643">
        <ele>138.627912</ele>
        <time>2021-08-07T11:16:32.000Z</time>
      </trkpt>
      <trkpt lat="51.15547" lon="6.86449">
        <ele>138.636781</ele>
        <time>2021-08-07T11:16:37.000Z</time>
      </trkpt>
      <trkpt lat="51.1555" lon="6.86457">
        <ele>138.640598</ele>
        <time>2021-08-07T11:16:39.000Z</time>
      </trkpt>
      <trkpt lat="51.1555" lon="6.86467">
        <ele>138.644376</ele>
        <time>2021-08-07T11:16:41.000Z</time>
      </trkpt>
      <trkpt lat="51.15547" lon="6.86492">
        <ele>138.620083</ele>
        <time>2021-08-07T11:16:45.000Z</time>
      </trkpt>
      <trkpt lat="51.15546" lon="6.86521">
        <ele>138.573685</ele>
        <time>2021-08-07T11:16:49.000Z</time>
      </trkpt>
      <trkpt lat="51.15546" lon="6.86534">
        <ele>138.551793</ele>
        <time>2021-08-07T11:16:51.000Z</time>
      </trkpt>
      <trkpt lat="51.15544" lon="6.86546">
        <ele>138.532477</ele>
        <time>2021-08-07T11:16:53.000Z</time>
      </trkpt>
      <trkpt lat="51.15544" lon="6.86587">
        <ele>138.466157</ele>
        <time>2021-08-07T11:16:59.000Z</time>
      </trkpt>
      <trkpt lat="51.15543" lon="6.86599">
        <ele>138.445772</ele>
        <time>2021-08-07T11:17:01.000Z</time>
      </trkpt>
      <trkpt lat="51.15544" lon="6.86611">
        <ele>138.426143</ele>
        <time>2021-08-07T11:17:03.000Z</time>
      </trkpt>
      <trkpt lat="51.15545" lon="6.86623">
        <ele>138.406599</ele>
        <time>2021-08-07T11:17:05.000Z</time>
      </trkpt>
      <trkpt lat="51.15546" lon="6.8663">
        <ele>138.395274</ele>
        <time>2021-08-07T11:17:06.000Z</time>
      </trkpt>
      <trkpt lat="51.15549" lon="6.86644">
        <ele>138.371046</ele>
        <time>2021-08-07T11:17:08.000Z</time>
      </trkpt>
      <trkpt lat="51.15552" lon="6.86651">
        <ele>138.35826</ele>
        <time>2021-08-07T11:17:09.000Z</time>
      </trkpt>
      <trkpt lat="51.15564" lon="6.86665">
        <ele>138.31993</ele>
        <time>2021-08-07T11:17:13.000Z</time>
      </trkpt>
      <trkpt lat="51.15571" lon="6.86674">
        <ele>138.295873</ele>
        <time>2021-08-07T11:17:16.000Z</time>
      </trkpt>
      <trkpt lat="51.15571" lon="6.86679">
        <ele>138.288022</ele>
        <time>2021-08-07T11:17:17.000Z</time>
      </trkpt>
      <trkpt lat="51.15572" lon="6.86713">
        <ele>138.233154</ele>
        <time>2021-08-07T11:17:22.000Z</time>
      </trkpt>
      <trkpt lat="51.15572" lon="6.86737">
        <ele>138.193262</ele>
        <time>2021-08-07T11:17:26.000Z</time>
      </trkpt>
      <trkpt lat="51.15573" lon="6.86746">
        <ele>138.185941</ele>
        <time>2021-08-07T11:17:27.000Z</time>
      </trkpt>
      <trkpt lat="51.15575" lon="6.86789">
        <ele>138.243701</ele>
        <time>2021-08-07T11:17:33.000Z</time>
      </trkpt>
      <trkpt lat="51.15591" lon="6.86819">
        <ele>138.297851</ele>
        <time>2021-08-07T11:17:38.000Z</time>
      </trkpt>
      <trkpt lat="51.15598" lon="6.86829">
        <ele>138.319082</ele>
        <time>2021-08-07T11:17:40.000Z</time>
      </trkpt>
      <trkpt lat="51.15602" lon="6.8684">
        <ele>138.336518</ele>
        <time>2021-08-07T11:17:43.000Z</time>
      </trkpt>
      <trkpt lat="51.15602" lon="6.86844">
        <ele>138.341949</ele>
        <time>2021-08-07T11:17:44.000Z</time>
      </trkpt>
      <trkpt lat="51.15603" lon="6.86846">
        <ele>138.345766</ele>
        <time>2021-08-07T11:17:45.000Z</time>
      </trkpt>
      <trkpt lat="51.15607" lon="6.86849">
        <ele>138.354557</ele>
        <time>2021-08-07T11:17:47.000Z</time>
      </trkpt>
      <trkpt lat="51.15608" lon="6.86848">
        <ele>138.357774</ele>
        <time>2021-08-07T11:17:48.000Z</time>
      </trkpt>
      <trkpt lat="51.15613" lon="6.86842">
        <ele>138.369972</ele>
        <time>2021-08-07T11:17:51.000Z</time>
      </trkpt>
      <trkpt lat="51.15625" lon="6.86824">
        <ele>138.406611</ele>
        <time>2021-08-07T11:17:57.000Z</time>
      </trkpt>
      <trkpt lat="51.15629" lon="6.86816">
        <ele>138.419903</ele>
        <time>2021-08-07T11:17:59.000Z</time>
      </trkpt>
      <trkpt lat="51.15637" lon="6.86801">
        <ele>138.446729</ele>
        <time>2021-08-07T11:18:03.000Z</time>
      </trkpt>
      <trkpt lat="51.15651" lon="6.86782">
        <ele>138.485445</ele>
        <time>2021-08-07T11:18:08.000Z</time>
      </trkpt>
      <trkpt lat="51.15658" lon="6.8677">
        <ele>138.507578</ele>
        <time>2021-08-07T11:18:11.000Z</time>
      </trkpt>
      <trkpt lat="51.1566" lon="6.86765">
        <ele>138.517249</ele>
        <time>2021-08-07T11:18:12.000Z</time>
      </trkpt>
      <trkpt lat="51.15662" lon="6.8676">
        <ele>138.523924</ele>
        <time>2021-08-07T11:18:13.000Z</time>
      </trkpt>
      <trkpt lat="51.15669" lon="6.86749">
        <ele>138.546745</ele>
        <time>2021-08-07T11:18:15.000Z</time>
      </trkpt>
      <trkpt lat="51.15677" lon="6.8674">
        <ele>138.567412</ele>
        <time>2021-08-07T11:18:17.000Z</time>
      </trkpt>
      <trkpt lat="51.15699" lon="6.86703">
        <ele>138.786529</ele>
        <time>2021-08-07T11:18:24.000Z</time>
      </trkpt>
      <trkpt lat="51.15716" lon="6.8667">
        <ele>138.986269</ele>
        <time>2021-08-07T11:18:31.000Z</time>
      </trkpt>
      <trkpt lat="51.15734" lon="6.86639">
        <ele>139.178246</ele>
        <time>2021-08-07T11:18:39.000Z</time>
      </trkpt>
      <trkpt lat="51.15749" lon="6.86619">
        <ele>139.31988</ele>
        <time>2021-08-07T11:18:44.000Z</time>
      </trkpt>
      <trkpt lat="51.15756" lon="6.86606">
        <ele>139.396077</ele>
        <time>2021-08-07T11:18:47.000Z</time>
      </trkpt>
      <trkpt lat="51.15761" lon="6.86597">
        <ele>139.456253</ele>
        <time>2021-08-07T11:18:50.000Z</time>
      </trkpt>
      <trkpt lat="51.15769" lon="6.86581">
        <ele>139.54963</ele>
        <time>2021-08-07T11:18:55.000Z</time>
      </trkpt>
      <trkpt lat="51.15774" lon="6.86578">
        <ele>139.586236</ele>
        <time>2021-08-07T11:18:57.000Z</time>
      </trkpt>
      <trkpt lat="51.15781" lon="6.8658">
        <ele>139.636455</ele>
        <time>2021-08-07T11:18:59.000Z</time>
      </trkpt>
      <trkpt lat="51.15798" lon="6.86582">
        <ele>139.764494</ele>
        <time>2021-08-07T11:19:05.000Z</time>
      </trkpt>
      <trkpt lat="51.15809" lon="6.86595">
        <ele>139.863805</ele>
        <time>2021-08-07T11:19:09.000Z</time>
      </trkpt>
      <trkpt lat="51.15817" lon="6.86605">
        <ele>139.907802</ele>
        <time>2021-08-07T11:19:12.000Z</time>
      </trkpt>
      <trkpt lat="51.15829" lon="6.86621">
        <ele>139.959741</ele>
        <time>2021-08-07T11:19:16.000Z</time>
      </trkpt>
      <trkpt lat="51.15835" lon="6.86632">
        <ele>139.991607</ele>
        <time>2021-08-07T11:19:18.000Z</time>
      </trkpt>
      <trkpt lat="51.15838" lon="6.86637">
        <ele>140.005967</ele>
        <time>2021-08-07T11:19:19.000Z</time>
      </trkpt>
      <trkpt lat="51.15845" lon="6.86648">
        <ele>140.038811</ele>
        <time>2021-08-07T11:19:21.000Z</time>
      </trkpt>
      <trkpt lat="51.15851" lon="6.86657">
        <ele>140.067284</ele>
        <time>2021-08-07T11:19:23.000Z</time>
      </trkpt>
      <trkpt lat="51.15858" lon="6.86666">
        <ele>140.097517</ele>
        <time>2021-08-07T11:19:25.000Z</time>
      </trkpt>
      <trkpt lat="51.15871" lon="6.86686">
        <ele>140.1575</ele>
        <time>2021-08-07T11:19:29.000Z</time>
      </trkpt>
      <trkpt lat="51.15873" lon="6.86692">
        <ele>140.1722</ele>
        <time>2021-08-07T11:19:30.000Z</time>
      </trkpt>
      <trkpt lat="51.15888" lon="6.86725">
        <ele>140.258942</ele>
        <time>2021-08-07T11:19:36.000Z</time>
      </trkpt>
      <trkpt lat="51.15897" lon="6.86734">
        <ele>140.293467</ele>
        <time>2021-08-07T11:19:38.000Z</time>
      </trkpt>
      <trkpt lat="51.15907" lon="6.86748">
        <ele>140.338803</ele>
        <time>2021-08-07T11:19:41.000Z</time>
      </trkpt>
      <trkpt lat="51.15917" lon="6.86764">
        <ele>140.384498</ele>
        <time>2021-08-07T11:19:44.000Z</time>
      </trkpt>
      <trkpt lat="51.15923" lon="6.86773">
        <ele>140.413752</ele>
        <time>2021-08-07T11:19:46.000Z</time>
      </trkpt>
      <trkpt lat="51.1594" lon="6.86797">
        <ele>140.487098</ele>
        <time>2021-08-07T11:19:51.000Z</time>
      </trkpt>
      <trkpt lat="51.15943" lon="6.86802">
        <ele>140.473539</ele>
        <time>2021-08-07T11:19:52.000Z</time>
      </trkpt>
      <trkpt lat="51.1596" lon="6.86829">
        <ele>140.400368</ele>
        <time>2021-08-07T11:19:57.000Z</time>
      </trkpt>
      <trkpt lat="51.15973" lon="6.86851">
        <ele>140.341485</ele>
        <time>2021-08-07T11:20:01.000Z</time>
      </trkpt>
      <trkpt lat="51.15981" lon="6.86862">
        <ele>140.310927</ele>
        <time>2021-08-07T11:20:03.000Z</time>
      </trkpt>
      <trkpt lat="51.16003" lon="6.86901">
        <ele>140.209369</ele>
        <time>2021-08-07T11:20:10.000Z</time>
      </trkpt>
      <trkpt lat="51.16005" lon="6.86904">
        <ele>140.199416</ele>
        <time>2021-08-07T11:20:11.000Z</time>
      </trkpt>
      <trkpt lat="51.16018" lon="6.86925">
        <ele>140.144235</ele>
        <time>2021-08-07T11:20:15.000Z</time>
      </trkpt>
      <trkpt lat="51.16024" lon="6.86933">
        <ele>140.118891</ele>
        <time>2021-08-07T11:20:17.000Z</time>
      </trkpt>
      <trkpt lat="51.16027" lon="6.86938">
        <ele>140.106739</ele>
        <time>2021-08-07T11:20:18.000Z</time>
      </trkpt>
      <trkpt lat="51.16034" lon="6.86952">
        <ele>140.071488</ele>
        <time>2021-08-07T11:20:22.000Z</time>
      </trkpt>
      <trkpt lat="51.16036" lon="6.86956">
        <ele>140.062353</ele>
        <time>2021-08-07T11:20:23.000Z</time>
      </trkpt>
      <trkpt lat="51.16039" lon="6.86961">
        <ele>140.047828</ele>
        <time>2021-08-07T11:20:25.000Z</time>
      </trkpt>
      <trkpt lat="51.16046" lon="6.86969">
        <ele>140.02115</ele>
        <time>2021-08-07T11:20:29.000Z</time>
      </trkpt>
      <trkpt lat="51.16057" lon="6.86988">
        <ele>139.973133</ele>
        <time>2021-08-07T11:20:36.000Z</time>
      </trkpt>
      <trkpt lat="51.16057" lon="6.86999">
        <ele>139.951716</ele>
        <time>2021-08-07T11:20:39.000Z</time>
      </trkpt>
      <trkpt lat="51.16057" lon="6.87013">
        <ele>139.940788</ele>
        <time>2021-08-07T11:20:43.000Z</time>
      </trkpt>
      <trkpt lat="51.16056" lon="6.87039">
        <ele>139.956199</ele>
        <time>2021-08-07T11:20:51.000Z</time>
      </trkpt>
      <trkpt lat="51.16055" lon="6.87047">
        <ele>139.961286</ele>
        <time>2021-08-07T11:20:57.000Z</time>
      </trkpt>
      <trkpt lat="51.16055" lon="6.87047">
        <ele>139.961286</ele>
        <time>2021-08-07T11:20:59.000Z</time>
      </trkpt>
      <trkpt lat="51.16055" lon="6.87047">
        <ele>139.961286</ele>
        <time>2021-08-07T11:21:01.000Z</time>
      </trkpt>
      <trkpt lat="51.16055" lon="6.87047">
        <ele>139.961286</ele>
        <time>2021-08-07T11:21:04.000Z</time>
      </trkpt>
      <trkpt lat="51.16055" lon="6.87047">
        <ele>139.961286</ele>
        <time>2021-08-07T11:21:05.000Z</time>
      </trkpt>
      <trkpt lat="51.16055" lon="6.87047">
        <ele>139.961286</ele>
        <time>2021-08-07T11:21:20.000Z</time>
      </trkpt>
      <trkpt lat="51.16055" lon="6.87047">
        <ele>139.961286</ele>
        <time>2021-08-07T11:21:30.000Z</time>
      </trkpt>
      <trkpt lat="51.16055" lon="6.87047">
        <ele>139.961286</ele>
        <time>2021-08-07T11:21:36.000Z</time>
      </trkpt>
      <trkpt lat="51.16054" lon="6.87047">
        <ele>139.961817</ele>
        <time>2021-08-07T11:21:38.000Z</time>
      </trkpt>
      <trkpt lat="51.16054" lon="6.87047">
        <ele>139.961817</ele>
        <time>2021-08-07T11:21:48.000Z</time>
      </trkpt>
      <trkpt lat="51.16054" lon="6.87047">
        <ele>139.961817</ele>
        <time>2021-08-07T11:21:56.000Z</time>
      </trkpt>
      <trkpt lat="51.16054" lon="6.87047">
        <ele>139.961817</ele>
        <time>2021-08-07T11:22:00.000Z</time>
      </trkpt>
      <trkpt lat="51.16054" lon="6.87047">
        <ele>139.961877</ele>
        <time>2021-08-07T11:22:09.000Z</time>
      </trkpt>
      <trkpt lat="51.16054" lon="6.87047">
        <ele>139.961877</ele>
        <time>2021-08-07T11:22:16.000Z</time>
      </trkpt>
      <trkpt lat="51.16054" lon="6.87047">
        <ele>139.961877</ele>
        <time>2021-08-07T11:22:21.000Z</time>
      </trkpt>
      <trkpt lat="51.16054" lon="6.87047">
        <ele>139.96207</ele>
        <time>2021-08-07T11:22:26.000Z</time>
      </trkpt>
      <trkpt lat="51.16054" lon="6.87047">
        <ele>139.962252</ele>
        <time>2021-08-07T11:22:36.000Z</time>
      </trkpt>
      <trkpt lat="51.16054" lon="6.87047">
        <ele>139.962252</ele>
        <time>2021-08-07T11:22:42.000Z</time>
      </trkpt>
      <trkpt lat="51.16056" lon="6.87048">
        <ele>139.963646</ele>
        <time>2021-08-07T11:22:52.000Z</time>
      </trkpt>
      <trkpt lat="51.16059" lon="6.87046">
        <ele>139.967035</ele>
        <time>2021-08-07T11:22:54.000Z</time>
      </trkpt>
      <trkpt lat="51.16059" lon="6.87031">
        <ele>139.976372</ele>
        <time>2021-08-07T11:22:58.000Z</time>
      </trkpt>
      <trkpt lat="51.1606" lon="6.87016">
        <ele>139.9851</ele>
        <time>2021-08-07T11:23:01.000Z</time>
      </trkpt>
      <trkpt lat="51.1606" lon="6.87002">
        <ele>139.994024</ele>
        <time>2021-08-07T11:23:04.000Z</time>
      </trkpt>
      <trkpt lat="51.16057" lon="6.86981">
        <ele>140.007104</ele>
        <time>2021-08-07T11:23:08.000Z</time>
      </trkpt>
      <trkpt lat="51.16055" lon="6.8697">
        <ele>140.014049</ele>
        <time>2021-08-07T11:23:10.000Z</time>
      </trkpt>
      <trkpt lat="51.16054" lon="6.86958">
        <ele>140.02101</ele>
        <time>2021-08-07T11:23:12.000Z</time>
      </trkpt>
      <trkpt lat="51.16055" lon="6.86921">
        <ele>140.043449</ele>
        <time>2021-08-07T11:23:18.000Z</time>
      </trkpt>
      <trkpt lat="51.16055" lon="6.86874">
        <ele>140.071861</ele>
        <time>2021-08-07T11:23:25.000Z</time>
      </trkpt>
      <trkpt lat="51.16056" lon="6.86867">
        <ele>140.075984</ele>
        <time>2021-08-07T11:23:26.000Z</time>
      </trkpt>
      <trkpt lat="51.16057" lon="6.86847">
        <ele>140.088698</ele>
        <time>2021-08-07T11:23:29.000Z</time>
      </trkpt>
      <trkpt lat="51.16057" lon="6.86819">
        <ele>140.10566</ele>
        <time>2021-08-07T11:23:33.000Z</time>
      </trkpt>
      <trkpt lat="51.16056" lon="6.86747">
        <ele>140.048737</ele>
        <time>2021-08-07T11:23:43.000Z</time>
      </trkpt>
      <trkpt lat="51.16055" lon="6.86711">
        <ele>140.013298</ele>
        <time>2021-08-07T11:23:48.000Z</time>
      </trkpt>
      <trkpt lat="51.16055" lon="6.86689">
        <ele>139.992099</ele>
        <time>2021-08-07T11:23:51.000Z</time>
      </trkpt>
      <trkpt lat="51.16055" lon="6.86624">
        <ele>139.92861</ele>
        <time>2021-08-07T11:24:00.000Z</time>
      </trkpt>
      <trkpt lat="51.16055" lon="6.86568">
        <ele>139.87426</ele>
        <time>2021-08-07T11:24:08.000Z</time>
      </trkpt>
      <trkpt lat="51.16054" lon="6.86541">
        <ele>139.848382</ele>
        <time>2021-08-07T11:24:13.000Z</time>
      </trkpt>
      <trkpt lat="51.16054" lon="6.865">
        <ele>139.802938</ele>
        <time>2021-08-07T11:24:20.000Z</time>
      </trkpt>
      <trkpt lat="51.16053" lon="6.8648">
        <ele>139.778327</ele>
        <time>2021-08-07T11:24:24.000Z</time>
      </trkpt>
      <trkpt lat="51.16053" lon="6.86471">
        <ele>139.766759</ele>
        <time>2021-08-07T11:24:26.000Z</time>
      </trkpt>
      <trkpt lat="51.16052" lon="6.86448">
        <ele>139.739551</ele>
        <time>2021-08-07T11:24:31.000Z</time>
      </trkpt>
      <trkpt lat="51.16054" lon="6.86432">
        <ele>139.719742</ele>
        <time>2021-08-07T11:24:34.000Z</time>
      </trkpt>
      <trkpt lat="51.16052" lon="6.86416">
        <ele>139.6996</ele>
        <time>2021-08-07T11:24:37.000Z</time>
      </trkpt>
      <trkpt lat="51.16051" lon="6.864">
        <ele>139.679747</ele>
        <time>2021-08-07T11:24:40.000Z</time>
      </trkpt>
      <trkpt lat="51.16052" lon="6.86375">
        <ele>139.650168</ele>
        <time>2021-08-07T11:24:44.000Z</time>
      </trkpt>
      <trkpt lat="51.16052" lon="6.86344">
        <ele>139.612076</ele>
        <time>2021-08-07T11:24:49.000Z</time>
      </trkpt>
      <trkpt lat="51.16051" lon="6.86331">
        <ele>139.596609</ele>
        <time>2021-08-07T11:24:51.000Z</time>
      </trkpt>
      <trkpt lat="51.16053" lon="6.86285">
        <ele>139.539569</ele>
        <time>2021-08-07T11:24:58.000Z</time>
      </trkpt>
      <trkpt lat="51.16054" lon="6.86246">
        <ele>139.493046</ele>
        <time>2021-08-07T11:25:04.000Z</time>
      </trkpt>
      <trkpt lat="51.16053" lon="6.86208">
        <ele>139.493829</ele>
        <time>2021-08-07T11:25:11.000Z</time>
      </trkpt>
      <trkpt lat="51.16047" lon="6.86191">
        <ele>139.501268</ele>
        <time>2021-08-07T11:25:15.000Z</time>
      </trkpt>
      <trkpt lat="51.16031" lon="6.86177">
        <ele>139.512338</ele>
        <time>2021-08-07T11:25:20.000Z</time>
      </trkpt>
      <trkpt lat="51.16022" lon="6.86152">
        <ele>139.523047</ele>
        <time>2021-08-07T11:25:25.000Z</time>
      </trkpt>
      <trkpt lat="51.16009" lon="6.8614">
        <ele>139.532148</ele>
        <time>2021-08-07T11:25:30.000Z</time>
      </trkpt>
      <trkpt lat="51.16002" lon="6.8614">
        <ele>139.536435</ele>
        <time>2021-08-07T11:25:35.000Z</time>
      </trkpt>
      <trkpt lat="51.16002" lon="6.8614">
        <ele>139.536435</ele>
        <time>2021-08-07T11:25:43.000Z</time>
      </trkpt>
      <trkpt lat="51.16002" lon="6.8614">
        <ele>139.536435</ele>
        <time>2021-08-07T11:25:52.000Z</time>
      </trkpt>
      <trkpt lat="51.16002" lon="6.8614">
        <ele>139.536435</ele>
        <time>2021-08-07T11:25:55.000Z</time>
      </trkpt>
      <trkpt lat="51.16001" lon="6.8614">
        <ele>139.536563</ele>
        <time>2021-08-07T11:26:13.000Z</time>
      </trkpt>
      <trkpt lat="51.16002" lon="6.86141">
        <ele>139.537033</ele>
        <time>2021-08-07T11:26:17.000Z</time>
      </trkpt>
      <trkpt lat="51.16005" lon="6.86142">
        <ele>139.539311</ele>
        <time>2021-08-07T11:26:21.000Z</time>
      </trkpt>
      <trkpt lat="51.16008" lon="6.86143">
        <ele>139.541011</ele>
        <time>2021-08-07T11:26:22.000Z</time>
      </trkpt>
      <trkpt lat="51.16019" lon="6.86152">
        <ele>139.548204</ele>
        <time>2021-08-07T11:26:26.000Z</time>
      </trkpt>
      <trkpt lat="51.16032" lon="6.86181">
        <ele>139.561901</ele>
        <time>2021-08-07T11:26:32.000Z</time>
      </trkpt>
      <trkpt lat="51.16042" lon="6.86192">
        <ele>139.569352</ele>
        <time>2021-08-07T11:26:35.000Z</time>
      </trkpt>
      <trkpt lat="51.16049" lon="6.862">
        <ele>139.574121</ele>
        <time>2021-08-07T11:26:37.000Z</time>
      </trkpt>
      <trkpt lat="51.16051" lon="6.86207">
        <ele>139.577369</ele>
        <time>2021-08-07T11:26:39.000Z</time>
      </trkpt>
      <trkpt lat="51.1605" lon="6.86218">
        <ele>139.581445</ele>
        <time>2021-08-07T11:26:41.000Z</time>
      </trkpt>
      <trkpt lat="51.16047" lon="6.86248">
        <ele>139.587444</ele>
        <time>2021-08-07T11:26:46.000Z</time>
      </trkpt>
      <trkpt lat="51.16048" lon="6.86283">
        <ele>139.564151</ele>
        <time>2021-08-07T11:26:51.000Z</time>
      </trkpt>
      <trkpt lat="51.16049" lon="6.86326">
        <ele>139.534895</ele>
        <time>2021-08-07T11:26:57.000Z</time>
      </trkpt>
      <trkpt lat="51.16052" lon="6.86346">
        <ele>139.520806</ele>
        <time>2021-08-07T11:27:00.000Z</time>
      </trkpt>
      <trkpt lat="51.16051" lon="6.86364">
        <ele>139.508219</ele>
        <time>2021-08-07T11:27:03.000Z</time>
      </trkpt>
      <trkpt lat="51.1605" lon="6.86376">
        <ele>139.500467</ele>
        <time>2021-08-07T11:27:05.000Z</time>
      </trkpt>
      <trkpt lat="51.1605" lon="6.86406">
        <ele>139.479961</ele>
        <time>2021-08-07T11:27:10.000Z</time>
      </trkpt>
      <trkpt lat="51.16055" lon="6.86425">
        <ele>139.466098</ele>
        <time>2021-08-07T11:27:14.000Z</time>
      </trkpt>
      <trkpt lat="51.16069" lon="6.86426">
        <ele>139.451396</ele>
        <time>2021-08-07T11:27:18.000Z</time>
      </trkpt>
      <trkpt lat="51.16072" lon="6.86426">
        <ele>139.447724</ele>
        <time>2021-08-07T11:27:19.000Z</time>
      </trkpt>
      <trkpt lat="51.16079" lon="6.86426">
        <ele>139.440602</ele>
        <time>2021-08-07T11:27:21.000Z</time>
      </trkpt>
      <trkpt lat="51.16096" lon="6.86425">
        <ele>139.421494</ele>
        <time>2021-08-07T11:27:26.000Z</time>
      </trkpt>
      <trkpt lat="51.16104" lon="6.86425">
        <ele>139.413723</ele>
        <time>2021-08-07T11:27:28.000Z</time>
      </trkpt>
      <trkpt lat="51.16117" lon="6.86428">
        <ele>139.398735</ele>
        <time>2021-08-07T11:27:34.000Z</time>
      </trkpt>
      <trkpt lat="51.16129" lon="6.86423">
        <ele>139.387289</ele>
        <time>2021-08-07T11:27:40.000Z</time>
      </trkpt>
      <trkpt lat="51.16131" lon="6.86404">
        <ele>139.375663</ele>
        <time>2021-08-07T11:27:45.000Z</time>
      </trkpt>
      <trkpt lat="51.16131" lon="6.86377">
        <ele>139.360437</ele>
        <time>2021-08-07T11:27:50.000Z</time>
      </trkpt>
      <trkpt lat="51.16131" lon="6.86354">
        <ele>139.347013</ele>
        <time>2021-08-07T11:27:54.000Z</time>
      </trkpt>
      <trkpt lat="51.16131" lon="6.86348">
        <ele>139.343397</ele>
        <time>2021-08-07T11:27:55.000Z</time>
      </trkpt>
      <trkpt lat="51.16131" lon="6.86342">
        <ele>139.339546</ele>
        <time>2021-08-07T11:27:56.000Z</time>
      </trkpt>
      <trkpt lat="51.16131" lon="6.86297">
        <ele>139.31324</ele>
        <time>2021-08-07T11:28:03.000Z</time>
      </trkpt>
      <trkpt lat="51.16131" lon="6.86246">
        <ele>139.28384</ele>
        <time>2021-08-07T11:28:11.000Z</time>
      </trkpt>
      <trkpt lat="51.16131" lon="6.86234">
        <ele>139.276897</ele>
        <time>2021-08-07T11:28:13.000Z</time>
      </trkpt>
      <trkpt lat="51.16131" lon="6.86228">
        <ele>139.273029</ele>
        <time>2021-08-07T11:28:14.000Z</time>
      </trkpt>
      <trkpt lat="51.1613" lon="6.86221">
        <ele>139.269278</ele>
        <time>2021-08-07T11:28:15.000Z</time>
      </trkpt>
      <trkpt lat="51.16131" lon="6.86215">
        <ele>139.265893</ele>
        <time>2021-08-07T11:28:16.000Z</time>
      </trkpt>
      <trkpt lat="51.16131" lon="6.86191">
        <ele>139.25154</ele>
        <time>2021-08-07T11:28:20.000Z</time>
      </trkpt>
      <trkpt lat="51.16131" lon="6.86149">
        <ele>139.224411</ele>
        <time>2021-08-07T11:28:27.000Z</time>
      </trkpt>
      <trkpt lat="51.16131" lon="6.86144">
        <ele>139.217151</ele>
        <time>2021-08-07T11:28:28.000Z</time>
      </trkpt>
      <trkpt lat="51.16131" lon="6.86121">
        <ele>139.188022</ele>
        <time>2021-08-07T11:28:32.000Z</time>
      </trkpt>
      <trkpt lat="51.16131" lon="6.86084">
        <ele>139.140261</ele>
        <time>2021-08-07T11:28:38.000Z</time>
      </trkpt>
      <trkpt lat="51.16131" lon="6.86054">
        <ele>139.100784</ele>
        <time>2021-08-07T11:28:43.000Z</time>
      </trkpt>
      <trkpt lat="51.16129" lon="6.86038">
        <ele>139.080228</ele>
        <time>2021-08-07T11:28:46.000Z</time>
      </trkpt>
      <trkpt lat="51.16127" lon="6.8603">
        <ele>139.068955</ele>
        <time>2021-08-07T11:28:48.000Z</time>
      </trkpt>
      <trkpt lat="51.16125" lon="6.86026">
        <ele>139.062665</ele>
        <time>2021-08-07T11:28:49.000Z</time>
      </trkpt>
      <trkpt lat="51.16119" lon="6.86024">
        <ele>139.048535</ele>
        <time>2021-08-07T11:28:51.000Z</time>
      </trkpt>
      <trkpt lat="51.1609" lon="6.86025">
        <ele>138.989064</ele>
        <time>2021-08-07T11:28:58.000Z</time>
      </trkpt>
      <trkpt lat="51.1607" lon="6.86026">
        <ele>138.948595</ele>
        <time>2021-08-07T11:29:03.000Z</time>
      </trkpt>
      <trkpt lat="51.16068" lon="6.86022">
        <ele>138.941901</ele>
        <time>2021-08-07T11:29:04.000Z</time>
      </trkpt>
      <trkpt lat="51.16066" lon="6.86017">
        <ele>138.933566</ele>
        <time>2021-08-07T11:29:05.000Z</time>
      </trkpt>
      <trkpt lat="51.16063" lon="6.85998">
        <ele>138.908142</ele>
        <time>2021-08-07T11:29:08.000Z</time>
      </trkpt>
      <trkpt lat="51.16059" lon="6.85943">
        <ele>138.872792</ele>
        <time>2021-08-07T11:29:16.000Z</time>
      </trkpt>
      <trkpt lat="51.1606" lon="6.85911">
        <ele>138.901611</ele>
        <time>2021-08-07T11:29:23.000Z</time>
      </trkpt>
      <trkpt lat="51.1606" lon="6.85873">
        <ele>138.934607</ele>
        <time>2021-08-07T11:29:30.000Z</time>
      </trkpt>
      <trkpt lat="51.1606" lon="6.85866">
        <ele>138.940604</ele>
        <time>2021-08-07T11:29:31.000Z</time>
      </trkpt>
      <trkpt lat="51.16059" lon="6.85853">
        <ele>138.952313</ele>
        <time>2021-08-07T11:29:33.000Z</time>
      </trkpt>
      <trkpt lat="51.16059" lon="6.85835">
        <ele>138.967989</ele>
        <time>2021-08-07T11:29:36.000Z</time>
      </trkpt>
      <trkpt lat="51.16065" lon="6.8581">
        <ele>138.991524</ele>
        <time>2021-08-07T11:29:41.000Z</time>
      </trkpt>
      <trkpt lat="51.16085" lon="6.85784">
        <ele>139.027834</ele>
        <time>2021-08-07T11:29:47.000Z</time>
      </trkpt>
      <trkpt lat="51.16103" lon="6.8576">
        <ele>139.060638</ele>
        <time>2021-08-07T11:29:52.000Z</time>
      </trkpt>
      <trkpt lat="51.16114" lon="6.85745">
        <ele>139.081549</ele>
        <time>2021-08-07T11:29:55.000Z</time>
      </trkpt>
      <trkpt lat="51.16118" lon="6.8574">
        <ele>139.088024</ele>
        <time>2021-08-07T11:29:56.000Z</time>
      </trkpt>
      <trkpt lat="51.16131" lon="6.8572">
        <ele>139.10266</ele>
        <time>2021-08-07T11:30:01.000Z</time>
      </trkpt>
      <trkpt lat="51.16142" lon="6.85702">
        <ele>139.047663</ele>
        <time>2021-08-07T11:30:05.000Z</time>
      </trkpt>
      <trkpt lat="51.16147" lon="6.85692">
        <ele>139.019067</ele>
        <time>2021-08-07T11:30:07.000Z</time>
      </trkpt>
      <trkpt lat="51.1615" lon="6.85687">
        <ele>139.005206</ele>
        <time>2021-08-07T11:30:08.000Z</time>
      </trkpt>
      <trkpt lat="51.16155" lon="6.85679">
        <ele>138.977916</ele>
        <time>2021-08-07T11:30:10.000Z</time>
      </trkpt>
      <trkpt lat="51.16167" lon="6.85663">
        <ele>138.925451</ele>
        <time>2021-08-07T11:30:15.000Z</time>
      </trkpt>
      <trkpt lat="51.16168" lon="6.85662">
        <ele>138.921743</ele>
        <time>2021-08-07T11:30:16.000Z</time>
      </trkpt>
      <trkpt lat="51.16168" lon="6.85662">
        <ele>138.920601</ele>
        <time>2021-08-07T11:30:19.000Z</time>
      </trkpt>
      <trkpt lat="51.16168" lon="6.85662">
        <ele>138.918706</ele>
        <time>2021-08-07T11:30:31.000Z</time>
      </trkpt>
      <trkpt lat="51.16168" lon="6.85662">
        <ele>138.918706</ele>
        <time>2021-08-07T11:30:33.000Z</time>
      </trkpt>
      <trkpt lat="51.16168" lon="6.85662">
        <ele>138.918706</ele>
        <time>2021-08-07T11:30:35.000Z</time>
      </trkpt>
      <trkpt lat="51.16167" lon="6.85658">
        <ele>138.907994</ele>
        <time>2021-08-07T11:30:49.000Z</time>
      </trkpt>
      <trkpt lat="51.16167" lon="6.85654">
        <ele>138.900722</ele>
        <time>2021-08-07T11:30:50.000Z</time>
      </trkpt>
      <trkpt lat="51.16167" lon="6.85651">
        <ele>138.892727</ele>
        <time>2021-08-07T11:30:51.000Z</time>
      </trkpt>
      <trkpt lat="51.16174" lon="6.85639">
        <ele>138.85816</ele>
        <time>2021-08-07T11:30:55.000Z</time>
      </trkpt>
      <trkpt lat="51.16182" lon="6.85619">
        <ele>138.806605</ele>
        <time>2021-08-07T11:31:01.000Z</time>
      </trkpt>
      <trkpt lat="51.16188" lon="6.85582">
        <ele>138.722043</ele>
        <time>2021-08-07T11:31:08.000Z</time>
      </trkpt>
      <trkpt lat="51.16191" lon="6.85559">
        <ele>138.668954</ele>
        <time>2021-08-07T11:31:14.000Z</time>
      </trkpt>
      <trkpt lat="51.16189" lon="6.85548">
        <ele>138.644903</ele>
        <time>2021-08-07T11:31:17.000Z</time>
      </trkpt>
      <trkpt lat="51.16184" lon="6.85538">
        <ele>138.615705</ele>
        <time>2021-08-07T11:31:20.000Z</time>
      </trkpt>
      <trkpt lat="51.16181" lon="6.85528">
        <ele>138.592546</ele>
        <time>2021-08-07T11:31:23.000Z</time>
      </trkpt>
      <trkpt lat="51.16182" lon="6.85524">
        <ele>138.583999</ele>
        <time>2021-08-07T11:31:24.000Z</time>
      </trkpt>
      <trkpt lat="51.16183" lon="6.8552">
        <ele>138.574585</ele>
        <time>2021-08-07T11:31:25.000Z</time>
      </trkpt>
      <trkpt lat="51.16195" lon="6.85495">
        <ele>138.504968</ele>
        <time>2021-08-07T11:31:31.000Z</time>
      </trkpt>
      <trkpt lat="51.16203" lon="6.85477">
        <ele>138.539844</ele>
        <time>2021-08-07T11:31:35.000Z</time>
      </trkpt>
      <trkpt lat="51.16211" lon="6.85461">
        <ele>138.653753</ele>
        <time>2021-08-07T11:31:39.000Z</time>
      </trkpt>
      <trkpt lat="51.16213" lon="6.85457">
        <ele>138.683961</ele>
        <time>2021-08-07T11:31:40.000Z</time>
      </trkpt>
      <trkpt lat="51.16218" lon="6.85449">
        <ele>138.744791</ele>
        <time>2021-08-07T11:31:42.000Z</time>
      </trkpt>
      <trkpt lat="51.16232" lon="6.85425">
        <ele>138.927694</ele>
        <time>2021-08-07T11:31:48.000Z</time>
      </trkpt>
      <trkpt lat="51.16233" lon="6.85421">
        <ele>138.955953</ele>
        <time>2021-08-07T11:31:49.000Z</time>
      </trkpt>
      <trkpt lat="51.16242" lon="6.85394">
        <ele>139.127333</ele>
        <time>2021-08-07T11:31:55.000Z</time>
      </trkpt>
      <trkpt lat="51.16245" lon="6.85383">
        <ele>139.191042</ele>
        <time>2021-08-07T11:31:57.000Z</time>
      </trkpt>
      <trkpt lat="51.16259" lon="6.85333">
        <ele>139.503113</ele>
        <time>2021-08-07T11:32:06.000Z</time>
      </trkpt>
      <trkpt lat="51.16271" lon="6.85304">
        <ele>139.699413</ele>
        <time>2021-08-07T11:32:11.000Z</time>
      </trkpt>
      <trkpt lat="51.16274" lon="6.85299">
        <ele>139.73895</ele>
        <time>2021-08-07T11:32:12.000Z</time>
      </trkpt>
      <trkpt lat="51.1628" lon="6.85288">
        <ele>139.821985</ele>
        <time>2021-08-07T11:32:14.000Z</time>
      </trkpt>
      <trkpt lat="51.1629" lon="6.85271">
        <ele>139.95149</ele>
        <time>2021-08-07T11:32:17.000Z</time>
      </trkpt>
      <trkpt lat="51.16293" lon="6.85265">
        <ele>139.994234</ele>
        <time>2021-08-07T11:32:18.000Z</time>
      </trkpt>
      <trkpt lat="51.16295" lon="6.85259">
        <ele>140.033946</ele>
        <time>2021-08-07T11:32:19.000Z</time>
      </trkpt>
      <trkpt lat="51.16298" lon="6.85253">
        <ele>140.076369</ele>
        <time>2021-08-07T11:32:20.000Z</time>
      </trkpt>
      <trkpt lat="51.16305" lon="6.85242">
        <ele>140.0766</ele>
        <time>2021-08-07T11:32:22.000Z</time>
      </trkpt>
      <trkpt lat="51.16309" lon="6.85235">
        <ele>140.058079</ele>
        <time>2021-08-07T11:32:24.000Z</time>
      </trkpt>
      <trkpt lat="51.16311" lon="6.85233">
        <ele>140.051203</ele>
        <time>2021-08-07T11:32:25.000Z</time>
      </trkpt>
      <trkpt lat="51.16313" lon="6.85231">
        <ele>140.045728</ele>
        <time>2021-08-07T11:32:27.000Z</time>
      </trkpt>
      <trkpt lat="51.16313" lon="6.85231">
        <ele>140.045728</ele>
        <time>2021-08-07T11:32:29.000Z</time>
      </trkpt>
      <trkpt lat="51.16313" lon="6.85231">
        <ele>140.045728</ele>
        <time>2021-08-07T11:32:38.000Z</time>
      </trkpt>
      <trkpt lat="51.16313" lon="6.85231">
        <ele>140.045728</ele>
        <time>2021-08-07T11:32:40.000Z</time>
      </trkpt>
      <trkpt lat="51.16313" lon="6.85231">
        <ele>140.045728</ele>
        <time>2021-08-07T11:32:45.000Z</time>
      </trkpt>
      <trkpt lat="51.16313" lon="6.85231">
        <ele>140.045728</ele>
        <time>2021-08-07T11:32:47.000Z</time>
      </trkpt>
      <trkpt lat="51.16313" lon="6.85231">
        <ele>140.045728</ele>
        <time>2021-08-07T11:32:50.000Z</time>
      </trkpt>
      <trkpt lat="51.16313" lon="6.85231">
        <ele>140.045728</ele>
        <time>2021-08-07T11:32:52.000Z</time>
      </trkpt>
      <trkpt lat="51.16313" lon="6.85231">
        <ele>140.045728</ele>
        <time>2021-08-07T11:32:55.000Z</time>
      </trkpt>
      <trkpt lat="51.16313" lon="6.85231">
        <ele>140.045728</ele>
        <time>2021-08-07T11:33:01.000Z</time>
      </trkpt>
      <trkpt lat="51.16313" lon="6.85231">
        <ele>140.045728</ele>
        <time>2021-08-07T11:33:10.000Z</time>
      </trkpt>
      <trkpt lat="51.16313" lon="6.85231">
        <ele>140.045728</ele>
        <time>2021-08-07T11:33:13.000Z</time>
      </trkpt>
      <trkpt lat="51.16313" lon="6.85231">
        <ele>140.045728</ele>
        <time>2021-08-07T11:33:20.000Z</time>
      </trkpt>
      <trkpt lat="51.16314" lon="6.85227">
        <ele>140.037833</ele>
        <time>2021-08-07T11:33:28.000Z</time>
      </trkpt>
      <trkpt lat="51.16318" lon="6.8522">
        <ele>140.021013</ele>
        <time>2021-08-07T11:33:30.000Z</time>
      </trkpt>
      <trkpt lat="51.1633" lon="6.85192">
        <ele>139.959229</ele>
        <time>2021-08-07T11:33:36.000Z</time>
      </trkpt>
      <trkpt lat="51.16348" lon="6.85158">
        <ele>139.877854</ele>
        <time>2021-08-07T11:33:43.000Z</time>
      </trkpt>
      <trkpt lat="51.16351" lon="6.85153">
        <ele>139.86488</ele>
        <time>2021-08-07T11:33:44.000Z</time>
      </trkpt>
      <trkpt lat="51.16367" lon="6.85128">
        <ele>139.799297</ele>
        <time>2021-08-07T11:33:49.000Z</time>
      </trkpt>
      <trkpt lat="51.1637" lon="6.85122">
        <ele>139.784462</ele>
        <time>2021-08-07T11:33:50.000Z</time>
      </trkpt>
      <trkpt lat="51.16386" lon="6.85098">
        <ele>139.72164</ele>
        <time>2021-08-07T11:33:54.000Z</time>
      </trkpt>
      <trkpt lat="51.16389" lon="6.85091">
        <ele>139.706538</ele>
        <time>2021-08-07T11:33:55.000Z</time>
      </trkpt>
      <trkpt lat="51.16396" lon="6.85079">
        <ele>139.676665</ele>
        <time>2021-08-07T11:33:57.000Z</time>
      </trkpt>
      <trkpt lat="51.16406" lon="6.85063">
        <ele>139.634446</ele>
        <time>2021-08-07T11:34:00.000Z</time>
      </trkpt>
      <trkpt lat="51.1641" lon="6.85057">
        <ele>139.618935</ele>
        <time>2021-08-07T11:34:01.000Z</time>
      </trkpt>
      <trkpt lat="51.1642" lon="6.85039">
        <ele>139.57619</ele>
        <time>2021-08-07T11:34:04.000Z</time>
      </trkpt>
      <trkpt lat="51.16426" lon="6.85026">
        <ele>139.574305</ele>
        <time>2021-08-07T11:34:06.000Z</time>
      </trkpt>
      <trkpt lat="51.16449" lon="6.84987">
        <ele>139.57548</ele>
        <time>2021-08-07T11:34:13.000Z</time>
      </trkpt>
      <trkpt lat="51.16453" lon="6.84981">
        <ele>139.575654</ele>
        <time>2021-08-07T11:34:14.000Z</time>
      </trkpt>
      <trkpt lat="51.16484" lon="6.84926">
        <ele>139.577272</ele>
        <time>2021-08-07T11:34:23.000Z</time>
      </trkpt>
      <trkpt lat="51.16515" lon="6.84868">
        <ele>139.578927</ele>
        <time>2021-08-07T11:34:32.000Z</time>
      </trkpt>
      <trkpt lat="51.16522" lon="6.84847">
        <ele>139.579454</ele>
        <time>2021-08-07T11:34:35.000Z</time>
      </trkpt>
      <trkpt lat="51.16528" lon="6.84833">
        <ele>139.579816</ele>
        <time>2021-08-07T11:34:37.000Z</time>
      </trkpt>
      <trkpt lat="51.16536" lon="6.8482">
        <ele>139.580212</ele>
        <time>2021-08-07T11:34:39.000Z</time>
      </trkpt>
      <trkpt lat="51.16542" lon="6.84807">
        <ele>139.538961</ele>
        <time>2021-08-07T11:34:41.000Z</time>
      </trkpt>
      <trkpt lat="51.16548" lon="6.84794">
        <ele>139.499279</ele>
        <time>2021-08-07T11:34:43.000Z</time>
      </trkpt>
      <trkpt lat="51.16558" lon="6.84774">
        <ele>139.432393</ele>
        <time>2021-08-07T11:34:47.000Z</time>
      </trkpt>
      <trkpt lat="51.16559" lon="6.8477">
        <ele>139.420091</ele>
        <time>2021-08-07T11:34:48.000Z</time>
      </trkpt>
      <trkpt lat="51.16564" lon="6.84761">
        <ele>139.390122</ele>
        <time>2021-08-07T11:34:51.000Z</time>
      </trkpt>
      <trkpt lat="51.16567" lon="6.84755">
        <ele>139.37137</ele>
        <time>2021-08-07T11:34:54.000Z</time>
      </trkpt>
      <trkpt lat="51.16567" lon="6.84754">
        <ele>139.369189</ele>
        <time>2021-08-07T11:34:59.000Z</time>
      </trkpt>
      <trkpt lat="51.16567" lon="6.84754">
        <ele>139.369189</ele>
        <time>2021-08-07T11:35:01.000Z</time>
      </trkpt>
      <trkpt lat="51.16567" lon="6.84754">
        <ele>139.369189</ele>
        <time>2021-08-07T11:35:06.000Z</time>
      </trkpt>
      <trkpt lat="51.16567" lon="6.84754">
        <ele>139.369189</ele>
        <time>2021-08-07T11:35:11.000Z</time>
      </trkpt>
      <trkpt lat="51.16567" lon="6.84754">
        <ele>139.369189</ele>
        <time>2021-08-07T11:35:12.000Z</time>
      </trkpt>
      <trkpt lat="51.16567" lon="6.84754">
        <ele>139.369189</ele>
        <time>2021-08-07T11:35:13.000Z</time>
      </trkpt>
      <trkpt lat="51.16567" lon="6.84754">
        <ele>139.369189</ele>
        <time>2021-08-07T11:35:17.000Z</time>
      </trkpt>
      <trkpt lat="51.16567" lon="6.84754">
        <ele>139.369189</ele>
        <time>2021-08-07T11:35:19.000Z</time>
      </trkpt>
      <trkpt lat="51.16567" lon="6.84754">
        <ele>139.369189</ele>
        <time>2021-08-07T11:35:21.000Z</time>
      </trkpt>
      <trkpt lat="51.16569" lon="6.84753">
        <ele>139.361812</ele>
        <time>2021-08-07T11:35:30.000Z</time>
      </trkpt>
      <trkpt lat="51.16573" lon="6.84748">
        <ele>139.339401</ele>
        <time>2021-08-07T11:35:32.000Z</time>
      </trkpt>
      <trkpt lat="51.16579" lon="6.84734">
        <ele>139.29594</ele>
        <time>2021-08-07T11:35:35.000Z</time>
      </trkpt>
      <trkpt lat="51.16581" lon="6.84729">
        <ele>139.281555</ele>
        <time>2021-08-07T11:35:36.000Z</time>
      </trkpt>
      <trkpt lat="51.166" lon="6.84698">
        <ele>139.168922</ele>
        <time>2021-08-07T11:35:43.000Z</time>
      </trkpt>
      <trkpt lat="51.16621" lon="6.8467">
        <ele>139.056467</ele>
        <time>2021-08-07T11:35:49.000Z</time>
      </trkpt>
      <trkpt lat="51.16644" lon="6.8464">
        <ele>138.936286</ele>
        <time>2021-08-07T11:35:55.000Z</time>
      </trkpt>
      <trkpt lat="51.16651" lon="6.84628">
        <ele>138.895061</ele>
        <time>2021-08-07T11:35:57.000Z</time>
      </trkpt>
      <trkpt lat="51.16668" lon="6.84597">
        <ele>138.839303</ele>
        <time>2021-08-07T11:36:02.000Z</time>
      </trkpt>
      <trkpt lat="51.16678" lon="6.84578">
        <ele>138.83557</ele>
        <time>2021-08-07T11:36:05.000Z</time>
      </trkpt>
      <trkpt lat="51.16685" lon="6.84566">
        <ele>138.833124</ele>
        <time>2021-08-07T11:36:07.000Z</time>
      </trkpt>
      <trkpt lat="51.16691" lon="6.84553">
        <ele>138.830704</ele>
        <time>2021-08-07T11:36:09.000Z</time>
      </trkpt>
      <trkpt lat="51.16694" lon="6.84547">
        <ele>138.829533</ele>
        <time>2021-08-07T11:36:10.000Z</time>
      </trkpt>
      <trkpt lat="51.16697" lon="6.8454">
        <ele>138.828316</ele>
        <time>2021-08-07T11:36:11.000Z</time>
      </trkpt>
      <trkpt lat="51.167" lon="6.84533">
        <ele>138.827118</ele>
        <time>2021-08-07T11:36:12.000Z</time>
      </trkpt>
      <trkpt lat="51.16717" lon="6.84502">
        <ele>138.821031</ele>
        <time>2021-08-07T11:36:17.000Z</time>
      </trkpt>
      <trkpt lat="51.16735" lon="6.84471">
        <ele>138.814883</ele>
        <time>2021-08-07T11:36:22.000Z</time>
      </trkpt>
      <trkpt lat="51.16738" lon="6.84466">
        <ele>138.813651</ele>
        <time>2021-08-07T11:36:23.000Z</time>
      </trkpt>
      <trkpt lat="51.16742" lon="6.8446">
        <ele>138.812424</ele>
        <time>2021-08-07T11:36:24.000Z</time>
      </trkpt>
      <trkpt lat="51.16761" lon="6.84433">
        <ele>138.806495</ele>
        <time>2021-08-07T11:36:29.000Z</time>
      </trkpt>
      <trkpt lat="51.16764" lon="6.84427">
        <ele>138.805313</ele>
        <time>2021-08-07T11:36:30.000Z</time>
      </trkpt>
      <trkpt lat="51.1679" lon="6.84379">
        <ele>138.80861</ele>
        <time>2021-08-07T11:36:38.000Z</time>
      </trkpt>
      <trkpt lat="51.16796" lon="6.84366">
        <ele>138.813929</ele>
        <time>2021-08-07T11:36:40.000Z</time>
      </trkpt>
      <trkpt lat="51.16806" lon="6.84347">
        <ele>138.822123</ele>
        <time>2021-08-07T11:36:43.000Z</time>
      </trkpt>
      <trkpt lat="51.16813" lon="6.84334">
        <ele>138.827696</ele>
        <time>2021-08-07T11:36:45.000Z</time>
      </trkpt>
      <trkpt lat="51.16827" lon="6.8431">
        <ele>138.838288</ele>
        <time>2021-08-07T11:36:49.000Z</time>
      </trkpt>
      <trkpt lat="51.16837" lon="6.8429">
        <ele>138.846823</ele>
        <time>2021-08-07T11:36:52.000Z</time>
      </trkpt>
      <trkpt lat="51.16845" lon="6.84277">
        <ele>138.852556</ele>
        <time>2021-08-07T11:36:54.000Z</time>
      </trkpt>
      <trkpt lat="51.16856" lon="6.84258">
        <ele>138.86128</ele>
        <time>2021-08-07T11:36:57.000Z</time>
      </trkpt>
      <trkpt lat="51.16872" lon="6.84235">
        <ele>138.872455</ele>
        <time>2021-08-07T11:37:01.000Z</time>
      </trkpt>
      <trkpt lat="51.16892" lon="6.84205">
        <ele>138.886312</ele>
        <time>2021-08-07T11:37:06.000Z</time>
      </trkpt>
      <trkpt lat="51.16928" lon="6.84147">
        <ele>138.839263</ele>
        <time>2021-08-07T11:37:16.000Z</time>
      </trkpt>
      <trkpt lat="51.16954" lon="6.84111">
        <ele>138.789174</ele>
        <time>2021-08-07T11:37:24.000Z</time>
      </trkpt>
      <trkpt lat="51.16959" lon="6.84101">
        <ele>138.777658</ele>
        <time>2021-08-07T11:37:26.000Z</time>
      </trkpt>
      <trkpt lat="51.16962" lon="6.84089">
        <ele>138.765895</ele>
        <time>2021-08-07T11:37:28.000Z</time>
      </trkpt>
      <trkpt lat="51.16965" lon="6.84077">
        <ele>138.754328</ele>
        <time>2021-08-07T11:37:30.000Z</time>
      </trkpt>
      <trkpt lat="51.16972" lon="6.84059">
        <ele>138.735249</ele>
        <time>2021-08-07T11:37:34.000Z</time>
      </trkpt>
      <trkpt lat="51.16975" lon="6.84052">
        <ele>138.727894</ele>
        <time>2021-08-07T11:37:36.000Z</time>
      </trkpt>
      <trkpt lat="51.16997" lon="6.8401">
        <ele>138.678441</ele>
        <time>2021-08-07T11:37:44.000Z</time>
      </trkpt>
      <trkpt lat="51.17008" lon="6.83997">
        <ele>138.658315</ele>
        <time>2021-08-07T11:37:49.000Z</time>
      </trkpt>
      <trkpt lat="51.17012" lon="6.83996">
        <ele>138.652824</ele>
        <time>2021-08-07T11:37:53.000Z</time>
      </trkpt>
      <trkpt lat="51.1701" lon="6.83996">
        <ele>138.650358</ele>
        <time>2021-08-07T11:38:01.000Z</time>
      </trkpt>
      <trkpt lat="51.1701" lon="6.83996">
        <ele>138.650358</ele>
        <time>2021-08-07T11:38:08.000Z</time>
      </trkpt>
      <trkpt lat="51.1701" lon="6.83996">
        <ele>138.650358</ele>
        <time>2021-08-07T11:38:17.000Z</time>
      </trkpt>
      <trkpt lat="51.1701" lon="6.83996">
        <ele>138.650358</ele>
        <time>2021-08-07T11:38:20.000Z</time>
      </trkpt>
      <trkpt lat="51.1701" lon="6.83996">
        <ele>138.650358</ele>
        <time>2021-08-07T11:38:22.000Z</time>
      </trkpt>
      <trkpt lat="51.1701" lon="6.83996">
        <ele>138.650358</ele>
        <time>2021-08-07T11:38:24.000Z</time>
      </trkpt>
      <trkpt lat="51.1701" lon="6.83996">
        <ele>138.650358</ele>
        <time>2021-08-07T11:38:28.000Z</time>
      </trkpt>
      <trkpt lat="51.1701" lon="6.83996">
        <ele>138.650358</ele>
        <time>2021-08-07T11:38:31.000Z</time>
      </trkpt>
      <trkpt lat="51.1701" lon="6.83996">
        <ele>138.649925</ele>
        <time>2021-08-07T11:38:33.000Z</time>
      </trkpt>
      <trkpt lat="51.17012" lon="6.83994">
        <ele>138.647219</ele>
        <time>2021-08-07T11:38:34.000Z</time>
      </trkpt>
      <trkpt lat="51.17014" lon="6.83992">
        <ele>138.643596</ele>
        <time>2021-08-07T11:38:35.000Z</time>
      </trkpt>
      <trkpt lat="51.17016" lon="6.83989">
        <ele>138.639086</ele>
        <time>2021-08-07T11:38:36.000Z</time>
      </trkpt>
      <trkpt lat="51.17021" lon="6.8398">
        <ele>138.676598</ele>
        <time>2021-08-07T11:38:38.000Z</time>
      </trkpt>
      <trkpt lat="51.17035" lon="6.8396">
        <ele>138.867904</ele>
        <time>2021-08-07T11:38:42.000Z</time>
      </trkpt>
      <trkpt lat="51.17056" lon="6.83931">
        <ele>139.157375</ele>
        <time>2021-08-07T11:38:49.000Z</time>
      </trkpt>
      <trkpt lat="51.17058" lon="6.83929">
        <ele>139.185454</ele>
        <time>2021-08-07T11:38:50.000Z</time>
      </trkpt>
      <trkpt lat="51.17064" lon="6.83919">
        <ele>139.273533</ele>
        <time>2021-08-07T11:38:53.000Z</time>
      </trkpt>
      <trkpt lat="51.17067" lon="6.83906">
        <ele>139.361857</ele>
        <time>2021-08-07T11:38:57.000Z</time>
      </trkpt>
      <trkpt lat="51.17068" lon="6.83902">
        <ele>139.392359</ele>
        <time>2021-08-07T11:38:59.000Z</time>
      </trkpt>
      <trkpt lat="51.17068" lon="6.83899">
        <ele>139.410708</ele>
        <time>2021-08-07T11:39:00.000Z</time>
      </trkpt>
      <trkpt lat="51.17067" lon="6.83894">
        <ele>139.445803</ele>
        <time>2021-08-07T11:39:02.000Z</time>
      </trkpt>
      <trkpt lat="51.17062" lon="6.83889">
        <ele>139.507621</ele>
        <time>2021-08-07T11:39:05.000Z</time>
      </trkpt>
      <trkpt lat="51.17059" lon="6.83883">
        <ele>139.555339</ele>
        <time>2021-08-07T11:39:07.000Z</time>
      </trkpt>
      <trkpt lat="51.17053" lon="6.83873">
        <ele>139.642697</ele>
        <time>2021-08-07T11:39:10.000Z</time>
      </trkpt>
      <trkpt lat="51.17047" lon="6.83864">
        <ele>139.734174</ele>
        <time>2021-08-07T11:39:13.000Z</time>
      </trkpt>
      <trkpt lat="51.17041" lon="6.83854">
        <ele>139.820818</ele>
        <time>2021-08-07T11:39:16.000Z</time>
      </trkpt>
      <trkpt lat="51.17039" lon="6.8385">
        <ele>139.852166</ele>
        <time>2021-08-07T11:39:17.000Z</time>
      </trkpt>
      <trkpt lat="51.17026" lon="6.83829">
        <ele>140.044925</ele>
        <time>2021-08-07T11:39:23.000Z</time>
      </trkpt>
      <trkpt lat="51.17017" lon="6.83814">
        <ele>140.184801</ele>
        <time>2021-08-07T11:39:27.000Z</time>
      </trkpt>
      <trkpt lat="51.16998" lon="6.83783">
        <ele>140.465889</ele>
        <time>2021-08-07T11:39:35.000Z</time>
      </trkpt>
      <trkpt lat="51.16993" lon="6.83774">
        <ele>140.508281</ele>
        <time>2021-08-07T11:39:37.000Z</time>
      </trkpt>
      <trkpt lat="51.16989" lon="6.83765">
        <ele>140.517867</ele>
        <time>2021-08-07T11:39:39.000Z</time>
      </trkpt>
      <trkpt lat="51.16977" lon="6.83734">
        <ele>140.546984</ele>
        <time>2021-08-07T11:39:45.000Z</time>
      </trkpt>
      <trkpt lat="51.16961" lon="6.83685">
        <ele>140.590304</ele>
        <time>2021-08-07T11:39:53.000Z</time>
      </trkpt>
      <trkpt lat="51.1695" lon="6.8364">
        <ele>140.629566</ele>
        <time>2021-08-07T11:40:00.000Z</time>
      </trkpt>
      <trkpt lat="51.16949" lon="6.83626">
        <ele>140.640502</ele>
        <time>2021-08-07T11:40:02.000Z</time>
      </trkpt>
      <trkpt lat="51.16947" lon="6.83619">
        <ele>140.646567</ele>
        <time>2021-08-07T11:40:03.000Z</time>
      </trkpt>
      <trkpt lat="51.16946" lon="6.83612">
        <ele>140.652213</ele>
        <time>2021-08-07T11:40:04.000Z</time>
      </trkpt>
      <trkpt lat="51.16945" lon="6.83605">
        <ele>140.657717</ele>
        <time>2021-08-07T11:40:05.000Z</time>
      </trkpt>
      <trkpt lat="51.16944" lon="6.83599">
        <ele>140.663252</ele>
        <time>2021-08-07T11:40:06.000Z</time>
      </trkpt>
      <trkpt lat="51.1694" lon="6.83576">
        <ele>140.681547</ele>
        <time>2021-08-07T11:40:09.000Z</time>
      </trkpt>
      <trkpt lat="51.16933" lon="6.8354">
        <ele>140.712205</ele>
        <time>2021-08-07T11:40:14.000Z</time>
      </trkpt>
      <trkpt lat="51.16927" lon="6.83517">
        <ele>140.732514</ele>
        <time>2021-08-07T11:40:17.000Z</time>
      </trkpt>
      <trkpt lat="51.16916" lon="6.83471">
        <ele>140.705262</ele>
        <time>2021-08-07T11:40:23.000Z</time>
      </trkpt>
      <trkpt lat="51.16913" lon="6.83455">
        <ele>140.695592</ele>
        <time>2021-08-07T11:40:25.000Z</time>
      </trkpt>
      <trkpt lat="51.16902" lon="6.83392">
        <ele>140.657601</ele>
        <time>2021-08-07T11:40:33.000Z</time>
      </trkpt>
      <trkpt lat="51.169" lon="6.83384">
        <ele>140.652822</ele>
        <time>2021-08-07T11:40:34.000Z</time>
      </trkpt>
      <trkpt lat="51.16891" lon="6.83339">
        <ele>140.625281</ele>
        <time>2021-08-07T11:40:41.000Z</time>
      </trkpt>
      <trkpt lat="51.16886" lon="6.83307">
        <ele>140.606276</ele>
        <time>2021-08-07T11:40:46.000Z</time>
      </trkpt>
      <trkpt lat="51.16885" lon="6.833">
        <ele>140.602157</ele>
        <time>2021-08-07T11:40:47.000Z</time>
      </trkpt>
      <trkpt lat="51.1688" lon="6.83272">
        <ele>140.585027</ele>
        <time>2021-08-07T11:40:51.000Z</time>
      </trkpt>
      <trkpt lat="51.16877" lon="6.83256">
        <ele>140.575938</ele>
        <time>2021-08-07T11:40:53.000Z</time>
      </trkpt>
      <trkpt lat="51.16874" lon="6.83243">
        <ele>140.567456</ele>
        <time>2021-08-07T11:40:55.000Z</time>
      </trkpt>
      <trkpt lat="51.16871" lon="6.8322">
        <ele>140.537944</ele>
        <time>2021-08-07T11:40:58.000Z</time>
      </trkpt>
      <trkpt lat="51.16868" lon="6.83182">
        <ele>140.487178</ele>
        <time>2021-08-07T11:41:03.000Z</time>
      </trkpt>
      <trkpt lat="51.16867" lon="6.83166">
        <ele>140.466285</ele>
        <time>2021-08-07T11:41:05.000Z</time>
      </trkpt>
      <trkpt lat="51.16867" lon="6.83158">
        <ele>140.45602</ele>
        <time>2021-08-07T11:41:06.000Z</time>
      </trkpt>
      <trkpt lat="51.16863" lon="6.8313">
        <ele>140.417717</ele>
        <time>2021-08-07T11:41:10.000Z</time>
      </trkpt>
      <trkpt lat="51.16863" lon="6.83121">
        <ele>140.406167</ele>
        <time>2021-08-07T11:41:11.000Z</time>
      </trkpt>
      <trkpt lat="51.16863" lon="6.83104">
        <ele>140.384393</ele>
        <time>2021-08-07T11:41:13.000Z</time>
      </trkpt>
      <trkpt lat="51.16864" lon="6.83092">
        <ele>140.368779</ele>
        <time>2021-08-07T11:41:15.000Z</time>
      </trkpt>
      <trkpt lat="51.16863" lon="6.83077">
        <ele>140.348902</ele>
        <time>2021-08-07T11:41:17.000Z</time>
      </trkpt>
      <trkpt lat="51.16858" lon="6.83037">
        <ele>140.294977</ele>
        <time>2021-08-07T11:41:22.000Z</time>
      </trkpt>
      <trkpt lat="51.16858" lon="6.83022">
        <ele>140.275564</ele>
        <time>2021-08-07T11:41:24.000Z</time>
      </trkpt>
      <trkpt lat="51.16858" lon="6.83007">
        <ele>140.255311</ele>
        <time>2021-08-07T11:41:26.000Z</time>
      </trkpt>
      <trkpt lat="51.16858" lon="6.82977">
        <ele>140.216721</ele>
        <time>2021-08-07T11:41:30.000Z</time>
      </trkpt>
      <trkpt lat="51.16858" lon="6.82963">
        <ele>140.197698</ele>
        <time>2021-08-07T11:41:32.000Z</time>
      </trkpt>
      <trkpt lat="51.16862" lon="6.82944">
        <ele>140.130688</ele>
        <time>2021-08-07T11:41:35.000Z</time>
      </trkpt>
      <trkpt lat="51.16868" lon="6.82907">
        <ele>139.977612</ele>
        <time>2021-08-07T11:41:40.000Z</time>
      </trkpt>
      <trkpt lat="51.16868" lon="6.82899">
        <ele>139.94405</ele>
        <time>2021-08-07T11:41:41.000Z</time>
      </trkpt>
      <trkpt lat="51.16869" lon="6.8289">
        <ele>139.909343</ele>
        <time>2021-08-07T11:41:42.000Z</time>
      </trkpt>
      <trkpt lat="51.1687" lon="6.82848">
        <ele>139.735481</ele>
        <time>2021-08-07T11:41:47.000Z</time>
      </trkpt>
      <trkpt lat="51.1687" lon="6.8284">
        <ele>139.702952</ele>
        <time>2021-08-07T11:41:48.000Z</time>
      </trkpt>
      <trkpt lat="51.16871" lon="6.82824">
        <ele>139.639008</ele>
        <time>2021-08-07T11:41:50.000Z</time>
      </trkpt>
      <trkpt lat="51.16871" lon="6.82809">
        <ele>139.577215</ele>
        <time>2021-08-07T11:41:52.000Z</time>
      </trkpt>
      <trkpt lat="51.16871" lon="6.82794">
        <ele>139.516992</ele>
        <time>2021-08-07T11:41:54.000Z</time>
      </trkpt>
      <trkpt lat="51.16872" lon="6.82787">
        <ele>139.48978</ele>
        <time>2021-08-07T11:41:55.000Z</time>
      </trkpt>
      <trkpt lat="51.16875" lon="6.82773">
        <ele>139.427885</ele>
        <time>2021-08-07T11:41:57.000Z</time>
      </trkpt>
      <trkpt lat="51.16879" lon="6.82758">
        <ele>139.36162</ele>
        <time>2021-08-07T11:41:59.000Z</time>
      </trkpt>
      <trkpt lat="51.16885" lon="6.82728">
        <ele>139.233201</ele>
        <time>2021-08-07T11:42:03.000Z</time>
      </trkpt>
      <trkpt lat="51.16888" lon="6.82712">
        <ele>139.167443</ele>
        <time>2021-08-07T11:42:05.000Z</time>
      </trkpt>
      <trkpt lat="51.16889" lon="6.82704">
        <ele>139.134401</ele>
        <time>2021-08-07T11:42:06.000Z</time>
      </trkpt>
      <trkpt lat="51.1689" lon="6.82696">
        <ele>139.098321</ele>
        <time>2021-08-07T11:42:07.000Z</time>
      </trkpt>
      <trkpt lat="51.16895" lon="6.82673">
        <ele>139.008899</ele>
        <time>2021-08-07T11:42:10.000Z</time>
      </trkpt>
      <trkpt lat="51.16898" lon="6.82658">
        <ele>138.963164</ele>
        <time>2021-08-07T11:42:12.000Z</time>
      </trkpt>
      <trkpt lat="51.16905" lon="6.82628">
        <ele>138.87058</ele>
        <time>2021-08-07T11:42:16.000Z</time>
      </trkpt>
      <trkpt lat="51.16912" lon="6.826">
        <ele>138.783653</ele>
        <time>2021-08-07T11:42:20.000Z</time>
      </trkpt>
      <trkpt lat="51.16916" lon="6.82586">
        <ele>138.738801</ele>
        <time>2021-08-07T11:42:22.000Z</time>
      </trkpt>
      <trkpt lat="51.16928" lon="6.82544">
        <ele>138.607128</ele>
        <time>2021-08-07T11:42:28.000Z</time>
      </trkpt>
      <trkpt lat="51.1693" lon="6.82538">
        <ele>138.585905</ele>
        <time>2021-08-07T11:42:29.000Z</time>
      </trkpt>
      <trkpt lat="51.16934" lon="6.82525">
        <ele>138.545092</ele>
        <time>2021-08-07T11:42:31.000Z</time>
      </trkpt>
      <trkpt lat="51.16937" lon="6.82512">
        <ele>138.505255</ele>
        <time>2021-08-07T11:42:33.000Z</time>
      </trkpt>
      <trkpt lat="51.1694" lon="6.82499">
        <ele>138.463776</ele>
        <time>2021-08-07T11:42:35.000Z</time>
      </trkpt>
      <trkpt lat="51.16944" lon="6.82485">
        <ele>138.422522</ele>
        <time>2021-08-07T11:42:37.000Z</time>
      </trkpt>
      <trkpt lat="51.16948" lon="6.82472">
        <ele>138.38086</ele>
        <time>2021-08-07T11:42:39.000Z</time>
      </trkpt>
      <trkpt lat="51.16952" lon="6.82461">
        <ele>138.340883</ele>
        <time>2021-08-07T11:42:41.000Z</time>
      </trkpt>
      <trkpt lat="51.16959" lon="6.82445">
        <ele>138.284723</ele>
        <time>2021-08-07T11:42:44.000Z</time>
      </trkpt>
      <trkpt lat="51.16965" lon="6.82427">
        <ele>138.226866</ele>
        <time>2021-08-07T11:42:47.000Z</time>
      </trkpt>
      <trkpt lat="51.16967" lon="6.82421">
        <ele>138.20766</ele>
        <time>2021-08-07T11:42:48.000Z</time>
      </trkpt>
      <trkpt lat="51.16971" lon="6.82409">
        <ele>138.152346</ele>
        <time>2021-08-07T11:42:50.000Z</time>
      </trkpt>
      <trkpt lat="51.16975" lon="6.82397">
        <ele>138.092555</ele>
        <time>2021-08-07T11:42:52.000Z</time>
      </trkpt>
      <trkpt lat="51.16984" lon="6.82375">
        <ele>137.976976</ele>
        <time>2021-08-07T11:42:56.000Z</time>
      </trkpt>
      <trkpt lat="51.17004" lon="6.82352">
        <ele>137.80102</ele>
        <time>2021-08-07T11:43:02.000Z</time>
      </trkpt>
      <trkpt lat="51.17012" lon="6.8233">
        <ele>137.687338</ele>
        <time>2021-08-07T11:43:06.000Z</time>
      </trkpt>
      <trkpt lat="51.17014" lon="6.82326">
        <ele>137.66383</ele>
        <time>2021-08-07T11:43:07.000Z</time>
      </trkpt>
      <trkpt lat="51.17015" lon="6.82323">
        <ele>137.649806</ele>
        <time>2021-08-07T11:43:08.000Z</time>
      </trkpt>
      <trkpt lat="51.17015" lon="6.82323">
        <ele>137.648023</ele>
        <time>2021-08-07T11:43:11.000Z</time>
      </trkpt>
      <trkpt lat="51.17015" lon="6.82323">
        <ele>137.648023</ele>
        <time>2021-08-07T11:43:12.000Z</time>
      </trkpt>
      <trkpt lat="51.17015" lon="6.82323">
        <ele>137.648023</ele>
        <time>2021-08-07T11:43:22.000Z</time>
      </trkpt>
      <trkpt lat="51.17015" lon="6.82323">
        <ele>137.648023</ele>
        <time>2021-08-07T11:43:23.000Z</time>
      </trkpt>
      <trkpt lat="51.17015" lon="6.82323">
        <ele>137.648023</ele>
        <time>2021-08-07T11:43:30.000Z</time>
      </trkpt>
      <trkpt lat="51.17015" lon="6.82323">
        <ele>137.648023</ele>
        <time>2021-08-07T11:43:35.000Z</time>
      </trkpt>
      <trkpt lat="51.17015" lon="6.82323">
        <ele>137.648023</ele>
        <time>2021-08-07T11:43:37.000Z</time>
      </trkpt>
      <trkpt lat="51.17015" lon="6.82323">
        <ele>137.646883</ele>
        <time>2021-08-07T11:43:40.000Z</time>
      </trkpt>
      <trkpt lat="51.17015" lon="6.82313">
        <ele>137.606315</ele>
        <time>2021-08-07T11:43:43.000Z</time>
      </trkpt>
      <trkpt lat="51.17007" lon="6.82296">
        <ele>137.50808</ele>
        <time>2021-08-07T11:43:47.000Z</time>
      </trkpt>
      <trkpt lat="51.17004" lon="6.82288">
        <ele>137.46752</ele>
        <time>2021-08-07T11:43:49.000Z</time>
      </trkpt>
      <trkpt lat="51.17005" lon="6.82283">
        <ele>137.445831</ele>
        <time>2021-08-07T11:43:50.000Z</time>
      </trkpt>
      <trkpt lat="51.17013" lon="6.82261">
        <ele>137.333567</ele>
        <time>2021-08-07T11:43:55.000Z</time>
      </trkpt>
      <trkpt lat="51.17017" lon="6.82247">
        <ele>137.263905</ele>
        <time>2021-08-07T11:43:58.000Z</time>
      </trkpt>
      <trkpt lat="51.17017" lon="6.82242">
        <ele>137.238014</ele>
        <time>2021-08-07T11:43:59.000Z</time>
      </trkpt>
      <trkpt lat="51.17018" lon="6.82229">
        <ele>137.179912</ele>
        <time>2021-08-07T11:44:01.000Z</time>
      </trkpt>
      <trkpt lat="51.17021" lon="6.82216">
        <ele>137.119717</ele>
        <time>2021-08-07T11:44:03.000Z</time>
      </trkpt>
      <trkpt lat="51.17024" lon="6.82203">
        <ele>137.057467</ele>
        <time>2021-08-07T11:44:05.000Z</time>
      </trkpt>
      <trkpt lat="51.17029" lon="6.82182">
        <ele>136.959094</ele>
        <time>2021-08-07T11:44:08.000Z</time>
      </trkpt>
      <trkpt lat="51.17032" lon="6.82168">
        <ele>136.91056</ele>
        <time>2021-08-07T11:44:10.000Z</time>
      </trkpt>
      <trkpt lat="51.17045" lon="6.82115">
        <ele>136.817583</ele>
        <time>2021-08-07T11:44:18.000Z</time>
      </trkpt>
      <trkpt lat="51.17052" lon="6.82088">
        <ele>136.770189</ele>
        <time>2021-08-07T11:44:22.000Z</time>
      </trkpt>
      <trkpt lat="51.17059" lon="6.82062">
        <ele>136.723754</ele>
        <time>2021-08-07T11:44:26.000Z</time>
      </trkpt>
      <trkpt lat="51.17062" lon="6.82049">
        <ele>136.699898</ele>
        <time>2021-08-07T11:44:28.000Z</time>
      </trkpt>
      <trkpt lat="51.1707" lon="6.82022">
        <ele>136.651547</ele>
        <time>2021-08-07T11:44:32.000Z</time>
      </trkpt>
      <trkpt lat="51.17074" lon="6.82007">
        <ele>136.624733</ele>
        <time>2021-08-07T11:44:34.000Z</time>
      </trkpt>
      <trkpt lat="51.17078" lon="6.81991">
        <ele>136.597172</ele>
        <time>2021-08-07T11:44:36.000Z</time>
      </trkpt>
      <trkpt lat="51.1708" lon="6.81984">
        <ele>136.584871</ele>
        <time>2021-08-07T11:44:37.000Z</time>
      </trkpt>
      <trkpt lat="51.17085" lon="6.81971">
        <ele>136.560776</ele>
        <time>2021-08-07T11:44:39.000Z</time>
      </trkpt>
      <trkpt lat="51.1709" lon="6.81959">
        <ele>136.53568</ele>
        <time>2021-08-07T11:44:41.000Z</time>
      </trkpt>
      <trkpt lat="51.17096" lon="6.81945">
        <ele>136.508833</ele>
        <time>2021-08-07T11:44:43.000Z</time>
      </trkpt>
      <trkpt lat="51.171" lon="6.81933">
        <ele>136.485864</ele>
        <time>2021-08-07T11:44:45.000Z</time>
      </trkpt>
      <trkpt lat="51.17105" lon="6.8192">
        <ele>136.461664</ele>
        <time>2021-08-07T11:44:47.000Z</time>
      </trkpt>
      <trkpt lat="51.17111" lon="6.819">
        <ele>136.456913</ele>
        <time>2021-08-07T11:44:50.000Z</time>
      </trkpt>
      <trkpt lat="51.17117" lon="6.8188">
        <ele>136.462775</ele>
        <time>2021-08-07T11:44:53.000Z</time>
      </trkpt>
      <trkpt lat="51.17119" lon="6.81874">
        <ele>136.464761</ele>
        <time>2021-08-07T11:44:54.000Z</time>
      </trkpt>
      <trkpt lat="51.17123" lon="6.8186">
        <ele>136.46867</ele>
        <time>2021-08-07T11:44:56.000Z</time>
      </trkpt>
      <trkpt lat="51.17131" lon="6.8184">
        <ele>136.475013</ele>
        <time>2021-08-07T11:44:59.000Z</time>
      </trkpt>
      <trkpt lat="51.17134" lon="6.81834">
        <ele>136.477299</ele>
        <time>2021-08-07T11:45:00.000Z</time>
      </trkpt>
      <trkpt lat="51.17141" lon="6.81821">
        <ele>136.481754</ele>
        <time>2021-08-07T11:45:02.000Z</time>
      </trkpt>
      <trkpt lat="51.17146" lon="6.81807">
        <ele>136.486167</ele>
        <time>2021-08-07T11:45:04.000Z</time>
      </trkpt>
      <trkpt lat="51.1715" lon="6.818">
        <ele>136.48856</ele>
        <time>2021-08-07T11:45:05.000Z</time>
      </trkpt>
      <trkpt lat="51.17156" lon="6.81786">
        <ele>136.493217</ele>
        <time>2021-08-07T11:45:07.000Z</time>
      </trkpt>
      <trkpt lat="51.17163" lon="6.81764">
        <ele>136.499645</ele>
        <time>2021-08-07T11:45:10.000Z</time>
      </trkpt>
      <trkpt lat="51.17165" lon="6.81758">
        <ele>136.501692</ele>
        <time>2021-08-07T11:45:11.000Z</time>
      </trkpt>
      <trkpt lat="51.1717" lon="6.81745">
        <ele>136.505648</ele>
        <time>2021-08-07T11:45:13.000Z</time>
      </trkpt>
      <trkpt lat="51.17179" lon="6.81727">
        <ele>136.511668</ele>
        <time>2021-08-07T11:45:16.000Z</time>
      </trkpt>
      <trkpt lat="51.17184" lon="6.81716">
        <ele>136.515618</ele>
        <time>2021-08-07T11:45:18.000Z</time>
      </trkpt>
      <trkpt lat="51.17192" lon="6.81697">
        <ele>136.521762</ele>
        <time>2021-08-07T11:45:21.000Z</time>
      </trkpt>
      <trkpt lat="51.17203" lon="6.81671">
        <ele>136.525988</ele>
        <time>2021-08-07T11:45:25.000Z</time>
      </trkpt>
      <trkpt lat="51.17209" lon="6.81659">
        <ele>136.505401</ele>
        <time>2021-08-07T11:45:27.000Z</time>
      </trkpt>
      <trkpt lat="51.17223" lon="6.81626">
        <ele>136.451353</ele>
        <time>2021-08-07T11:45:32.000Z</time>
      </trkpt>
      <trkpt lat="51.17227" lon="6.81618">
        <ele>136.438683</ele>
        <time>2021-08-07T11:45:33.000Z</time>
      </trkpt>
      <trkpt lat="51.17234" lon="6.81605">
        <ele>136.415414</ele>
        <time>2021-08-07T11:45:35.000Z</time>
      </trkpt>
      <trkpt lat="51.17237" lon="6.81598">
        <ele>136.403642</ele>
        <time>2021-08-07T11:45:36.000Z</time>
      </trkpt>
      <trkpt lat="51.17244" lon="6.81586">
        <ele>136.381929</ele>
        <time>2021-08-07T11:45:38.000Z</time>
      </trkpt>
      <trkpt lat="51.17247" lon="6.8158">
        <ele>136.370768</ele>
        <time>2021-08-07T11:45:39.000Z</time>
      </trkpt>
      <trkpt lat="51.17258" lon="6.81561">
        <ele>136.336108</ele>
        <time>2021-08-07T11:45:42.000Z</time>
      </trkpt>
      <trkpt lat="51.17265" lon="6.81548">
        <ele>136.313359</ele>
        <time>2021-08-07T11:45:44.000Z</time>
      </trkpt>
      <trkpt lat="51.17276" lon="6.81527">
        <ele>136.276096</ele>
        <time>2021-08-07T11:45:47.000Z</time>
      </trkpt>
      <trkpt lat="51.17279" lon="6.81519">
        <ele>136.264074</ele>
        <time>2021-08-07T11:45:48.000Z</time>
      </trkpt>
      <trkpt lat="51.17285" lon="6.81507">
        <ele>136.24187</ele>
        <time>2021-08-07T11:45:50.000Z</time>
      </trkpt>
      <trkpt lat="51.17292" lon="6.81496">
        <ele>136.221467</ele>
        <time>2021-08-07T11:45:52.000Z</time>
      </trkpt>
      <trkpt lat="51.17299" lon="6.81483">
        <ele>136.198643</ele>
        <time>2021-08-07T11:45:54.000Z</time>
      </trkpt>
      <trkpt lat="51.17306" lon="6.81471">
        <ele>136.17671</ele>
        <time>2021-08-07T11:45:56.000Z</time>
      </trkpt>
      <trkpt lat="51.17325" lon="6.81438">
        <ele>136.162477</ele>
        <time>2021-08-07T11:46:02.000Z</time>
      </trkpt>
      <trkpt lat="51.17328" lon="6.81433">
        <ele>136.16974</ele>
        <time>2021-08-07T11:46:03.000Z</time>
      </trkpt>
      <trkpt lat="51.17333" lon="6.81422">
        <ele>136.184065</ele>
        <time>2021-08-07T11:46:05.000Z</time>
      </trkpt>
      <trkpt lat="51.17337" lon="6.81416">
        <ele>136.192674</ele>
        <time>2021-08-07T11:46:06.000Z</time>
      </trkpt>
      <trkpt lat="51.17354" lon="6.81388">
        <ele>136.234022</ele>
        <time>2021-08-07T11:46:11.000Z</time>
      </trkpt>
      <trkpt lat="51.17357" lon="6.81382">
        <ele>136.242553</ele>
        <time>2021-08-07T11:46:12.000Z</time>
      </trkpt>
      <trkpt lat="51.17371" lon="6.81358">
        <ele>136.276642</ele>
        <time>2021-08-07T11:46:16.000Z</time>
      </trkpt>
      <trkpt lat="51.17377" lon="6.81346">
        <ele>136.293625</ele>
        <time>2021-08-07T11:46:18.000Z</time>
      </trkpt>
      <trkpt lat="51.17385" lon="6.81335">
        <ele>136.311155</ele>
        <time>2021-08-07T11:46:20.000Z</time>
      </trkpt>
      <trkpt lat="51.17388" lon="6.81329">
        <ele>136.319356</ele>
        <time>2021-08-07T11:46:21.000Z</time>
      </trkpt>
      <trkpt lat="51.17396" lon="6.8131">
        <ele>136.343082</ele>
        <time>2021-08-07T11:46:24.000Z</time>
      </trkpt>
      <trkpt lat="51.17406" lon="6.81293">
        <ele>136.368171</ele>
        <time>2021-08-07T11:46:27.000Z</time>
      </trkpt>
      <trkpt lat="51.17415" lon="6.81285">
        <ele>136.384541</ele>
        <time>2021-08-07T11:46:30.000Z</time>
      </trkpt>
      <trkpt lat="51.17435" lon="6.81289">
        <ele>136.419096</ele>
        <time>2021-08-07T11:46:35.000Z</time>
      </trkpt>
      <trkpt lat="51.17455" lon="6.81296">
        <ele>136.431359</ele>
        <time>2021-08-07T11:46:39.000Z</time>
      </trkpt>
      <trkpt lat="51.1746" lon="6.81295">
        <ele>136.417276</ele>
        <time>2021-08-07T11:46:40.000Z</time>
      </trkpt>
      <trkpt lat="51.17465" lon="6.81292">
        <ele>136.405041</ele>
        <time>2021-08-07T11:46:41.000Z</time>
      </trkpt>
      <trkpt lat="51.17469" lon="6.81288">
        <ele>136.391373</ele>
        <time>2021-08-07T11:46:42.000Z</time>
      </trkpt>
      <trkpt lat="51.17476" lon="6.81279">
        <ele>136.367607</ele>
        <time>2021-08-07T11:46:44.000Z</time>
      </trkpt>
      <trkpt lat="51.17513" lon="6.81242">
        <ele>136.252236</ele>
        <time>2021-08-07T11:46:53.000Z</time>
      </trkpt>
      <trkpt lat="51.17552" lon="6.81197">
        <ele>136.12347</ele>
        <time>2021-08-07T11:47:03.000Z</time>
      </trkpt>
      <trkpt lat="51.17554" lon="6.81187">
        <ele>136.105769</ele>
        <time>2021-08-07T11:47:05.000Z</time>
      </trkpt>
      <trkpt lat="51.17553" lon="6.81182">
        <ele>136.097356</ele>
        <time>2021-08-07T11:47:06.000Z</time>
      </trkpt>
      <trkpt lat="51.1755" lon="6.81172">
        <ele>136.080113</ele>
        <time>2021-08-07T11:47:08.000Z</time>
      </trkpt>
      <trkpt lat="51.1755" lon="6.81162">
        <ele>136.062962</ele>
        <time>2021-08-07T11:47:10.000Z</time>
      </trkpt>
      <trkpt lat="51.17551" lon="6.81155">
        <ele>136.050747</ele>
        <time>2021-08-07T11:47:11.000Z</time>
      </trkpt>
      <trkpt lat="51.17552" lon="6.81136">
        <ele>136.018619</ele>
        <time>2021-08-07T11:47:14.000Z</time>
      </trkpt>
      <trkpt lat="51.17554" lon="6.81117">
        <ele>135.987518</ele>
        <time>2021-08-07T11:47:17.000Z</time>
      </trkpt>
      <trkpt lat="51.17554" lon="6.81104">
        <ele>135.97032</ele>
        <time>2021-08-07T11:47:19.000Z</time>
      </trkpt>
      <trkpt lat="51.17551" lon="6.81091">
        <ele>136.018256</ele>
        <time>2021-08-07T11:47:22.000Z</time>
      </trkpt>
      <trkpt lat="51.17554" lon="6.81084">
        <ele>136.044502</ele>
        <time>2021-08-07T11:47:24.000Z</time>
      </trkpt>
      <trkpt lat="51.17559" lon="6.81078">
        <ele>136.080139</ele>
        <time>2021-08-07T11:47:26.000Z</time>
      </trkpt>
      <trkpt lat="51.17581" lon="6.81046">
        <ele>136.246282</ele>
        <time>2021-08-07T11:47:34.000Z</time>
      </trkpt>
      <trkpt lat="51.17599" lon="6.81023">
        <ele>136.371757</ele>
        <time>2021-08-07T11:47:40.000Z</time>
      </trkpt>
      <trkpt lat="51.17606" lon="6.81008">
        <ele>136.435955</ele>
        <time>2021-08-07T11:47:43.000Z</time>
      </trkpt>
      <trkpt lat="51.17606" lon="6.81004">
        <ele>136.449758</ele>
        <time>2021-08-07T11:47:44.000Z</time>
      </trkpt>
      <trkpt lat="51.17606" lon="6.8099">
        <ele>136.498961</ele>
        <time>2021-08-07T11:47:47.000Z</time>
      </trkpt>
      <trkpt lat="51.17607" lon="6.80987">
        <ele>136.507711</ele>
        <time>2021-08-07T11:47:48.000Z</time>
      </trkpt>
      <trkpt lat="51.17608" lon="6.80987">
        <ele>136.509357</ele>
        <time>2021-08-07T11:47:49.000Z</time>
      </trkpt>
      <trkpt lat="51.17608" lon="6.80987">
        <ele>136.509357</ele>
        <time>2021-08-07T11:47:59.000Z</time>
      </trkpt>
      <trkpt lat="51.17608" lon="6.80987">
        <ele>136.509357</ele>
        <time>2021-08-07T11:48:07.000Z</time>
      </trkpt>
      <trkpt lat="51.17608" lon="6.80987">
        <ele>136.509357</ele>
        <time>2021-08-07T11:48:10.000Z</time>
      </trkpt>
      <trkpt lat="51.17608" lon="6.80987">
        <ele>136.509357</ele>
        <time>2021-08-07T11:48:13.000Z</time>
      </trkpt>
      <trkpt lat="51.17608" lon="6.80987">
        <ele>136.509357</ele>
        <time>2021-08-07T11:48:15.000Z</time>
      </trkpt>
      <trkpt lat="51.17609" lon="6.80985">
        <ele>136.521015</ele>
        <time>2021-08-07T11:48:17.000Z</time>
      </trkpt>
      <trkpt lat="51.17613" lon="6.80981">
        <ele>136.546337</ele>
        <time>2021-08-07T11:48:19.000Z</time>
      </trkpt>
      <trkpt lat="51.17627" lon="6.80961">
        <ele>136.648411</ele>
        <time>2021-08-07T11:48:24.000Z</time>
      </trkpt>
      <trkpt lat="51.17643" lon="6.80949">
        <ele>136.745564</ele>
        <time>2021-08-07T11:48:28.000Z</time>
      </trkpt>
      <trkpt lat="51.17653" lon="6.80939">
        <ele>136.81236</ele>
        <time>2021-08-07T11:48:31.000Z</time>
      </trkpt>
      <trkpt lat="51.17659" lon="6.80931">
        <ele>136.853765</ele>
        <time>2021-08-07T11:48:33.000Z</time>
      </trkpt>
      <trkpt lat="51.17663" lon="6.80927">
        <ele>136.878442</ele>
        <time>2021-08-07T11:48:34.000Z</time>
      </trkpt>
      <trkpt lat="51.17683" lon="6.80901">
        <ele>136.937224</ele>
        <time>2021-08-07T11:48:40.000Z</time>
      </trkpt>
      <trkpt lat="51.17698" lon="6.80882">
        <ele>136.910974</ele>
        <time>2021-08-07T11:48:44.000Z</time>
      </trkpt>
      <trkpt lat="51.17709" lon="6.80866">
        <ele>136.891205</ele>
        <time>2021-08-07T11:48:47.000Z</time>
      </trkpt>
      <trkpt lat="51.17718" lon="6.80852">
        <ele>136.873152</ele>
        <time>2021-08-07T11:48:50.000Z</time>
      </trkpt>
      <trkpt lat="51.17732" lon="6.80834">
        <ele>136.848356</ele>
        <time>2021-08-07T11:48:54.000Z</time>
      </trkpt>
      <trkpt lat="51.17768" lon="6.80797">
        <ele>136.78907</ele>
        <time>2021-08-07T11:49:03.000Z</time>
      </trkpt>
      <trkpt lat="51.17776" lon="6.80789">
        <ele>136.776242</ele>
        <time>2021-08-07T11:49:05.000Z</time>
      </trkpt>
      <trkpt lat="51.17793" lon="6.80772">
        <ele>136.74881</ele>
        <time>2021-08-07T11:49:09.000Z</time>
      </trkpt>
      <trkpt lat="51.17798" lon="6.80768">
        <ele>136.741458</ele>
        <time>2021-08-07T11:49:10.000Z</time>
      </trkpt>
      <trkpt lat="51.17821" lon="6.80746">
        <ele>136.704287</ele>
        <time>2021-08-07T11:49:15.000Z</time>
      </trkpt>
      <trkpt lat="51.17829" lon="6.80737">
        <ele>136.688573</ele>
        <time>2021-08-07T11:49:17.000Z</time>
      </trkpt>
      <trkpt lat="51.17861" lon="6.80709">
        <ele>136.632031</ele>
        <time>2021-08-07T11:49:23.000Z</time>
      </trkpt>
      <trkpt lat="51.17875" lon="6.80697">
        <ele>136.606453</ele>
        <time>2021-08-07T11:49:26.000Z</time>
      </trkpt>
      <trkpt lat="51.17892" lon="6.80672">
        <ele>136.571366</ele>
        <time>2021-08-07T11:49:31.000Z</time>
      </trkpt>
      <trkpt lat="51.17905" lon="6.80655">
        <ele>136.545015</ele>
        <time>2021-08-07T11:49:34.000Z</time>
      </trkpt>
      <trkpt lat="51.17915" lon="6.80645">
        <ele>136.526495</ele>
        <time>2021-08-07T11:49:36.000Z</time>
      </trkpt>
      <trkpt lat="51.17929" lon="6.80629">
        <ele>136.499243</ele>
        <time>2021-08-07T11:49:39.000Z</time>
      </trkpt>
      <trkpt lat="51.17942" lon="6.80613">
        <ele>136.47362</ele>
        <time>2021-08-07T11:49:42.000Z</time>
      </trkpt>
      <trkpt lat="51.17974" lon="6.80576">
        <ele>136.524172</ele>
        <time>2021-08-07T11:49:49.000Z</time>
      </trkpt>
      <trkpt lat="51.17995" lon="6.80556">
        <ele>136.772846</ele>
        <time>2021-08-07T11:49:54.000Z</time>
      </trkpt>
      <trkpt lat="51.18002" lon="6.80547">
        <ele>136.874876</ele>
        <time>2021-08-07T11:49:56.000Z</time>
      </trkpt>
      <trkpt lat="51.18027" lon="6.80517">
        <ele>137.197809</ele>
        <time>2021-08-07T11:50:02.000Z</time>
      </trkpt>
      <trkpt lat="51.18031" lon="6.80513">
        <ele>137.250324</ele>
        <time>2021-08-07T11:50:03.000Z</time>
      </trkpt>
      <trkpt lat="51.18035" lon="6.80508">
        <ele>137.300211</ele>
        <time>2021-08-07T11:50:04.000Z</time>
      </trkpt>
      <trkpt lat="51.18046" lon="6.80494">
        <ele>137.450405</ele>
        <time>2021-08-07T11:50:08.000Z</time>
      </trkpt>
      <trkpt lat="51.18052" lon="6.80482">
        <ele>137.557819</ele>
        <time>2021-08-07T11:50:11.000Z</time>
      </trkpt>
      <trkpt lat="51.1806" lon="6.80472">
        <ele>137.657778</ele>
        <time>2021-08-07T11:50:14.000Z</time>
      </trkpt>
      <trkpt lat="51.18063" lon="6.8047">
        <ele>137.691569</ele>
        <time>2021-08-07T11:50:15.000Z</time>
      </trkpt>
      <trkpt lat="51.18068" lon="6.80469">
        <ele>137.751026</ele>
        <time>2021-08-07T11:50:17.000Z</time>
      </trkpt>
      <trkpt lat="51.18074" lon="6.80473">
        <ele>137.812659</ele>
        <time>2021-08-07T11:50:19.000Z</time>
      </trkpt>
      <trkpt lat="51.18083" lon="6.80489">
        <ele>137.954919</ele>
        <time>2021-08-07T11:50:22.000Z</time>
      </trkpt>
      <trkpt lat="51.18091" lon="6.80495">
        <ele>138.045386</ele>
        <time>2021-08-07T11:50:24.000Z</time>
      </trkpt>
      <trkpt lat="51.181" lon="6.80498">
        <ele>138.143887</ele>
        <time>2021-08-07T11:50:26.000Z</time>
      </trkpt>
      <trkpt lat="51.18109" lon="6.80498">
        <ele>138.243853</ele>
        <time>2021-08-07T11:50:28.000Z</time>
      </trkpt>
      <trkpt lat="51.18124" lon="6.80497">
        <ele>138.437278</ele>
        <time>2021-08-07T11:50:31.000Z</time>
      </trkpt>
      <trkpt lat="51.18134" lon="6.80491">
        <ele>138.587922</ele>
        <time>2021-08-07T11:50:33.000Z</time>
      </trkpt>
      <trkpt lat="51.1815" lon="6.80474">
        <ele>138.880789</ele>
        <time>2021-08-07T11:50:38.000Z</time>
      </trkpt>
      <trkpt lat="51.18167" lon="6.80468">
        <ele>139.149058</ele>
        <time>2021-08-07T11:50:43.000Z</time>
      </trkpt>
      <trkpt lat="51.18178" lon="6.80465">
        <ele>139.321341</ele>
        <time>2021-08-07T11:50:46.000Z</time>
      </trkpt>
      <trkpt lat="51.18187" lon="6.80462">
        <ele>139.459481</ele>
        <time>2021-08-07T11:50:48.000Z</time>
      </trkpt>
      <trkpt lat="51.18195" lon="6.8046">
        <ele>139.583736</ele>
        <time>2021-08-07T11:50:50.000Z</time>
      </trkpt>
      <trkpt lat="51.18213" lon="6.80455">
        <ele>139.858113</ele>
        <time>2021-08-07T11:50:55.000Z</time>
      </trkpt>
      <trkpt lat="51.18218" lon="6.80455">
        <ele>139.932524</ele>
        <time>2021-08-07T11:50:57.000Z</time>
      </trkpt>
      <trkpt lat="51.18222" lon="6.80455">
        <ele>139.997743</ele>
        <time>2021-08-07T11:50:59.000Z</time>
      </trkpt>
      <trkpt lat="51.18225" lon="6.80455">
        <ele>140.041694</ele>
        <time>2021-08-07T11:51:03.000Z</time>
      </trkpt>
      <trkpt lat="51.18225" lon="6.80455">
        <ele>140.041694</ele>
        <time>2021-08-07T11:51:07.000Z</time>
      </trkpt>
      <trkpt lat="51.18225" lon="6.80455">
        <ele>140.041694</ele>
        <time>2021-08-07T11:51:11.000Z</time>
      </trkpt>
      <trkpt lat="51.18225" lon="6.80455">
        <ele>140.041694</ele>
        <time>2021-08-07T11:51:12.000Z</time>
      </trkpt>
      <trkpt lat="51.18225" lon="6.80455">
        <ele>140.041694</ele>
        <time>2021-08-07T11:51:14.000Z</time>
      </trkpt>
      <trkpt lat="51.18225" lon="6.80455">
        <ele>140.041694</ele>
        <time>2021-08-07T11:51:18.000Z</time>
      </trkpt>
      <trkpt lat="51.18225" lon="6.80455">
        <ele>140.041694</ele>
        <time>2021-08-07T11:51:23.000Z</time>
      </trkpt>
      <trkpt lat="51.18225" lon="6.80455">
        <ele>140.041694</ele>
        <time>2021-08-07T11:51:28.000Z</time>
      </trkpt>
      <trkpt lat="51.18225" lon="6.80455">
        <ele>140.041694</ele>
        <time>2021-08-07T11:51:33.000Z</time>
      </trkpt>
      <trkpt lat="51.18225" lon="6.80452">
        <ele>140.066819</ele>
        <time>2021-08-07T11:51:48.000Z</time>
      </trkpt>
      <trkpt lat="51.18223" lon="6.80448">
        <ele>140.116687</ele>
        <time>2021-08-07T11:51:50.000Z</time>
      </trkpt>
      <trkpt lat="51.18222" lon="6.80445">
        <ele>140.1425</ele>
        <time>2021-08-07T11:51:51.000Z</time>
      </trkpt>
      <trkpt lat="51.18222" lon="6.80438">
        <ele>140.210498</ele>
        <time>2021-08-07T11:51:53.000Z</time>
      </trkpt>
      <trkpt lat="51.18221" lon="6.80428">
        <ele>140.313718</ele>
        <time>2021-08-07T11:51:57.000Z</time>
      </trkpt>
      <trkpt lat="51.1822" lon="6.80421">
        <ele>140.378943</ele>
        <time>2021-08-07T11:52:02.000Z</time>
      </trkpt>
      <trkpt lat="51.1822" lon="6.80419">
        <ele>140.396621</ele>
        <time>2021-08-07T11:52:03.000Z</time>
      </trkpt>
      <trkpt lat="51.18219" lon="6.80415">
        <ele>140.433815</ele>
        <time>2021-08-07T11:52:09.000Z</time>
      </trkpt>
      <trkpt lat="51.18218" lon="6.80409">
        <ele>140.496802</ele>
        <time>2021-08-07T11:52:11.000Z</time>
      </trkpt>
      <trkpt lat="51.18217" lon="6.804">
        <ele>140.584019</ele>
        <time>2021-08-07T11:52:13.000Z</time>
      </trkpt>
      <trkpt lat="51.18215" lon="6.8037">
        <ele>140.867874</ele>
        <time>2021-08-07T11:52:19.000Z</time>
      </trkpt>
      <trkpt lat="51.18222" lon="6.80345">
        <ele>141.104681</ele>
        <time>2021-08-07T11:52:25.000Z</time>
      </trkpt>
      <trkpt lat="51.18228" lon="6.8033">
        <ele>141.228882</ele>
        <time>2021-08-07T11:52:29.000Z</time>
      </trkpt>
      <trkpt lat="51.18235" lon="6.80314">
        <ele>141.362511</ele>
        <time>2021-08-07T11:52:33.000Z</time>
      </trkpt>
      <trkpt lat="51.18236" lon="6.8031">
        <ele>141.393722</ele>
        <time>2021-08-07T11:52:34.000Z</time>
      </trkpt>
      <trkpt lat="51.1824" lon="6.80297">
        <ele>141.495065</ele>
        <time>2021-08-07T11:52:37.000Z</time>
      </trkpt>
      <trkpt lat="51.18242" lon="6.80288">
        <ele>141.56192</ele>
        <time>2021-08-07T11:52:39.000Z</time>
      </trkpt>
      <trkpt lat="51.18245" lon="6.80275">
        <ele>141.656726</ele>
        <time>2021-08-07T11:52:42.000Z</time>
      </trkpt>
      <trkpt lat="51.18247" lon="6.8025">
        <ele>141.832541</ele>
        <time>2021-08-07T11:52:48.000Z</time>
      </trkpt>
      <trkpt lat="51.18248" lon="6.80247">
        <ele>141.856403</ele>
        <time>2021-08-07T11:52:49.000Z</time>
      </trkpt>
      <trkpt lat="51.1825" lon="6.80236">
        <ele>141.932615</ele>
        <time>2021-08-07T11:52:53.000Z</time>
      </trkpt>
      <trkpt lat="51.18251" lon="6.80235">
        <ele>141.944972</ele>
        <time>2021-08-07T11:52:54.000Z</time>
      </trkpt>
      <trkpt lat="51.18251" lon="6.80234">
        <ele>141.949091</ele>
        <time>2021-08-07T11:52:56.000Z</time>
      </trkpt>
      <trkpt lat="51.18251" lon="6.80234">
        <ele>141.949091</ele>
        <time>2021-08-07T11:53:00.000Z</time>
      </trkpt>
      <trkpt lat="51.18251" lon="6.80234">
        <ele>141.949091</ele>
        <time>2021-08-07T11:53:10.000Z</time>
      </trkpt>
      <trkpt lat="51.18251" lon="6.80234">
        <ele>141.949091</ele>
        <time>2021-08-07T11:53:12.000Z</time>
      </trkpt>
      <trkpt lat="51.18251" lon="6.80234">
        <ele>141.949091</ele>
        <time>2021-08-07T11:53:15.000Z</time>
      </trkpt>
      <trkpt lat="51.1825" lon="6.8023">
        <ele>141.975377</ele>
        <time>2021-08-07T11:53:21.000Z</time>
      </trkpt>
      <trkpt lat="51.1825" lon="6.80225">
        <ele>142.016887</ele>
        <time>2021-08-07T11:53:23.000Z</time>
      </trkpt>
      <trkpt lat="51.18249" lon="6.8022">
        <ele>142.052241</ele>
        <time>2021-08-07T11:53:25.000Z</time>
      </trkpt>
      <trkpt lat="51.18252" lon="6.80216">
        <ele>142.095134</ele>
        <time>2021-08-07T11:53:28.000Z</time>
      </trkpt>
      <trkpt lat="51.18255" lon="6.80215">
        <ele>142.12638</ele>
        <time>2021-08-07T11:53:33.000Z</time>
      </trkpt>
      <trkpt lat="51.18255" lon="6.80215">
        <ele>142.12638</ele>
        <time>2021-08-07T11:53:35.000Z</time>
      </trkpt>
      <trkpt lat="51.18255" lon="6.80215">
        <ele>142.12638</ele>
        <time>2021-08-07T11:53:40.000Z</time>
      </trkpt>
      <trkpt lat="51.18255" lon="6.80215">
        <ele>142.12638</ele>
        <time>2021-08-07T11:53:44.000Z</time>
      </trkpt>
      <trkpt lat="51.18257" lon="6.80211">
        <ele>142.15676</ele>
        <time>2021-08-07T11:53:52.000Z</time>
      </trkpt>
      <trkpt lat="51.18259" lon="6.80208">
        <ele>142.188392</ele>
        <time>2021-08-07T11:53:53.000Z</time>
      </trkpt>
      <trkpt lat="51.18272" lon="6.80184">
        <ele>142.41065</ele>
        <time>2021-08-07T11:53:59.000Z</time>
      </trkpt>
      <trkpt lat="51.18284" lon="6.80165">
        <ele>142.599899</ele>
        <time>2021-08-07T11:54:03.000Z</time>
      </trkpt>
      <trkpt lat="51.18287" lon="6.80159">
        <ele>142.6564</ele>
        <time>2021-08-07T11:54:04.000Z</time>
      </trkpt>
      <trkpt lat="51.18297" lon="6.80136">
        <ele>142.850364</ele>
        <time>2021-08-07T11:54:07.000Z</time>
      </trkpt>
      <trkpt lat="51.18306" lon="6.80119">
        <ele>142.999212</ele>
        <time>2021-08-07T11:54:09.000Z</time>
      </trkpt>
      <trkpt lat="51.18315" lon="6.80099">
        <ele>142.77842</ele>
        <time>2021-08-07T11:54:11.000Z</time>
      </trkpt>
      <trkpt lat="51.18329" lon="6.80067">
        <ele>142.27105</ele>
        <time>2021-08-07T11:54:14.000Z</time>
      </trkpt>
      <trkpt lat="51.18334" lon="6.80056">
        <ele>142.094719</ele>
        <time>2021-08-07T11:54:15.000Z</time>
      </trkpt>
      <trkpt lat="51.18352" lon="6.8001">
        <ele>141.385465</ele>
        <time>2021-08-07T11:54:19.000Z</time>
      </trkpt>
      <trkpt lat="51.18362" lon="6.79987">
        <ele>141.029032</ele>
        <time>2021-08-07T11:54:21.000Z</time>
      </trkpt>
      <trkpt lat="51.18387" lon="6.79925">
        <ele>140.072381</ele>
        <time>2021-08-07T11:54:27.000Z</time>
      </trkpt>
      <trkpt lat="51.1839" lon="6.79916">
        <ele>139.934926</ele>
        <time>2021-08-07T11:54:28.000Z</time>
      </trkpt>
      <trkpt lat="51.18406" lon="6.79874">
        <ele>139.310551</ele>
        <time>2021-08-07T11:54:33.000Z</time>
      </trkpt>
      <trkpt lat="51.18434" lon="6.79809">
        <ele>139.280341</ele>
        <time>2021-08-07T11:54:41.000Z</time>
      </trkpt>
      <trkpt lat="51.18454" lon="6.79764">
        <ele>139.258664</ele>
        <time>2021-08-07T11:54:47.000Z</time>
      </trkpt>
      <trkpt lat="51.18481" lon="6.797">
        <ele>139.229043</ele>
        <time>2021-08-07T11:54:55.000Z</time>
      </trkpt>
      <trkpt lat="51.18492" lon="6.79679">
        <ele>139.218541</ele>
        <time>2021-08-07T11:54:58.000Z</time>
      </trkpt>
      <trkpt lat="51.18499" lon="6.79663">
        <ele>139.21083</ele>
        <time>2021-08-07T11:55:00.000Z</time>
      </trkpt>
      <trkpt lat="51.18502" lon="6.79655">
        <ele>139.207523</ele>
        <time>2021-08-07T11:55:01.000Z</time>
      </trkpt>
      <trkpt lat="51.1852" lon="6.79612">
        <ele>139.126713</ele>
        <time>2021-08-07T11:55:07.000Z</time>
      </trkpt>
      <trkpt lat="51.18527" lon="6.79598">
        <ele>139.087358</ele>
        <time>2021-08-07T11:55:09.000Z</time>
      </trkpt>
      <trkpt lat="51.18539" lon="6.79571">
        <ele>139.014178</ele>
        <time>2021-08-07T11:55:13.000Z</time>
      </trkpt>
      <trkpt lat="51.18546" lon="6.79556">
        <ele>138.971325</ele>
        <time>2021-08-07T11:55:15.000Z</time>
      </trkpt>
      <trkpt lat="51.18549" lon="6.7955">
        <ele>138.953139</ele>
        <time>2021-08-07T11:55:16.000Z</time>
      </trkpt>
      <trkpt lat="51.18553" lon="6.79543">
        <ele>138.932452</ele>
        <time>2021-08-07T11:55:17.000Z</time>
      </trkpt>
      <trkpt lat="51.18557" lon="6.79535">
        <ele>138.910672</ele>
        <time>2021-08-07T11:55:18.000Z</time>
      </trkpt>
      <trkpt lat="51.1856" lon="6.79527">
        <ele>138.890108</ele>
        <time>2021-08-07T11:55:19.000Z</time>
      </trkpt>
      <trkpt lat="51.18563" lon="6.79519">
        <ele>138.870204</ele>
        <time>2021-08-07T11:55:20.000Z</time>
      </trkpt>
      <trkpt lat="51.18573" lon="6.79501">
        <ele>138.816247</ele>
        <time>2021-08-07T11:55:23.000Z</time>
      </trkpt>
      <trkpt lat="51.18576" lon="6.79494">
        <ele>138.797492</ele>
        <time>2021-08-07T11:55:24.000Z</time>
      </trkpt>
      <trkpt lat="51.18587" lon="6.79471">
        <ele>138.732818</ele>
        <time>2021-08-07T11:55:27.000Z</time>
      </trkpt>
      <trkpt lat="51.18594" lon="6.79457">
        <ele>138.691714</ele>
        <time>2021-08-07T11:55:29.000Z</time>
      </trkpt>
      <trkpt lat="51.18605" lon="6.79435">
        <ele>138.630499</ele>
        <time>2021-08-07T11:55:32.000Z</time>
      </trkpt>
      <trkpt lat="51.18615" lon="6.79414">
        <ele>138.5715</ele>
        <time>2021-08-07T11:55:35.000Z</time>
      </trkpt>
      <trkpt lat="51.18619" lon="6.79407">
        <ele>138.552251</ele>
        <time>2021-08-07T11:55:36.000Z</time>
      </trkpt>
      <trkpt lat="51.18633" lon="6.7938">
        <ele>138.485175</ele>
        <time>2021-08-07T11:55:40.000Z</time>
      </trkpt>
      <trkpt lat="51.18651" lon="6.79346">
        <ele>138.399476</ele>
        <time>2021-08-07T11:55:45.000Z</time>
      </trkpt>
      <trkpt lat="51.18668" lon="6.79311">
        <ele>138.315218</ele>
        <time>2021-08-07T11:55:50.000Z</time>
      </trkpt>
      <trkpt lat="51.18674" lon="6.79298">
        <ele>138.282825</ele>
        <time>2021-08-07T11:55:52.000Z</time>
      </trkpt>
      <trkpt lat="51.18696" lon="6.7926">
        <ele>138.185275</ele>
        <time>2021-08-07T11:55:58.000Z</time>
      </trkpt>
      <trkpt lat="51.18703" lon="6.79247">
        <ele>138.151901</ele>
        <time>2021-08-07T11:56:00.000Z</time>
      </trkpt>
      <trkpt lat="51.18711" lon="6.79242">
        <ele>138.125146</ele>
        <time>2021-08-07T11:56:02.000Z</time>
      </trkpt>
      <trkpt lat="51.18714" lon="6.79238">
        <ele>138.113701</ele>
        <time>2021-08-07T11:56:03.000Z</time>
      </trkpt>
      <trkpt lat="51.18716" lon="6.79234">
        <ele>138.104578</ele>
        <time>2021-08-07T11:56:04.000Z</time>
      </trkpt>
      <trkpt lat="51.18718" lon="6.79226">
        <ele>138.088618</ele>
        <time>2021-08-07T11:56:05.000Z</time>
      </trkpt>
      <trkpt lat="51.18727" lon="6.79194">
        <ele>138.019786</ele>
        <time>2021-08-07T11:56:11.000Z</time>
      </trkpt>
      <trkpt lat="51.18738" lon="6.79175">
        <ele>138.080771</ele>
        <time>2021-08-07T11:56:15.000Z</time>
      </trkpt>
      <trkpt lat="51.18747" lon="6.79162">
        <ele>138.146602</ele>
        <time>2021-08-07T11:56:18.000Z</time>
      </trkpt>
      <trkpt lat="51.1875" lon="6.79157">
        <ele>138.169774</ele>
        <time>2021-08-07T11:56:19.000Z</time>
      </trkpt>
      <trkpt lat="51.18774" lon="6.79125">
        <ele>138.337483</ele>
        <time>2021-08-07T11:56:26.000Z</time>
      </trkpt>
      <trkpt lat="51.18805" lon="6.79079">
        <ele>138.565687</ele>
        <time>2021-08-07T11:56:36.000Z</time>
      </trkpt>
      <trkpt lat="51.18833" lon="6.79039">
        <ele>138.766708</ele>
        <time>2021-08-07T11:56:44.000Z</time>
      </trkpt>
      <trkpt lat="51.18836" lon="6.79034">
        <ele>138.79119</ele>
        <time>2021-08-07T11:56:45.000Z</time>
      </trkpt>
      <trkpt lat="51.18839" lon="6.79029">
        <ele>138.816065</ele>
        <time>2021-08-07T11:56:46.000Z</time>
      </trkpt>
      <trkpt lat="51.18858" lon="6.79006">
        <ele>138.94181</ele>
        <time>2021-08-07T11:56:51.000Z</time>
      </trkpt>
      <trkpt lat="51.18862" lon="6.79002">
        <ele>138.968839</ele>
        <time>2021-08-07T11:56:52.000Z</time>
      </trkpt>
      <trkpt lat="51.18885" lon="6.78978">
        <ele>139.120757</ele>
        <time>2021-08-07T11:56:58.000Z</time>
      </trkpt>
      <trkpt lat="51.18889" lon="6.78974">
        <ele>139.144045</ele>
        <time>2021-08-07T11:56:59.000Z</time>
      </trkpt>
      <trkpt lat="51.18896" lon="6.78967">
        <ele>139.193408</ele>
        <time>2021-08-07T11:57:01.000Z</time>
      </trkpt>
      <trkpt lat="51.18912" lon="6.78954">
        <ele>139.290152</ele>
        <time>2021-08-07T11:57:05.000Z</time>
      </trkpt>
      <trkpt lat="51.18943" lon="6.78925">
        <ele>139.488534</ele>
        <time>2021-08-07T11:57:13.000Z</time>
      </trkpt>
      <trkpt lat="51.18958" lon="6.7891">
        <ele>139.585594</ele>
        <time>2021-08-07T11:57:17.000Z</time>
      </trkpt>
      <trkpt lat="51.18973" lon="6.78896">
        <ele>139.684371</ele>
        <time>2021-08-07T11:57:21.000Z</time>
      </trkpt>
      <trkpt lat="51.1898" lon="6.78889">
        <ele>139.729726</ele>
        <time>2021-08-07T11:57:23.000Z</time>
      </trkpt>
      <trkpt lat="51.18984" lon="6.78886">
        <ele>139.752161</ele>
        <time>2021-08-07T11:57:24.000Z</time>
      </trkpt>
      <trkpt lat="51.18992" lon="6.78879">
        <ele>139.804727</ele>
        <time>2021-08-07T11:57:26.000Z</time>
      </trkpt>
      <trkpt lat="51.19015" lon="6.78859">
        <ele>139.947511</ele>
        <time>2021-08-07T11:57:32.000Z</time>
      </trkpt>
      <trkpt lat="51.19025" lon="6.78849">
        <ele>139.932319</ele>
        <time>2021-08-07T11:57:35.000Z</time>
      </trkpt>
      <trkpt lat="51.19052" lon="6.78822">
        <ele>139.759412</ele>
        <time>2021-08-07T11:57:42.000Z</time>
      </trkpt>
      <trkpt lat="51.19055" lon="6.78819">
        <ele>139.738856</ele>
        <time>2021-08-07T11:57:43.000Z</time>
      </trkpt>
      <trkpt lat="51.19071" lon="6.78801">
        <ele>139.635865</ele>
        <time>2021-08-07T11:57:47.000Z</time>
      </trkpt>
      <trkpt lat="51.19078" lon="6.78792">
        <ele>139.585732</ele>
        <time>2021-08-07T11:57:49.000Z</time>
      </trkpt>
      <trkpt lat="51.19082" lon="6.78788">
        <ele>139.561267</ele>
        <time>2021-08-07T11:57:50.000Z</time>
      </trkpt>
      <trkpt lat="51.19088" lon="6.7878">
        <ele>139.518865</ele>
        <time>2021-08-07T11:57:52.000Z</time>
      </trkpt>
      <trkpt lat="51.19094" lon="6.78772">
        <ele>139.477111</ele>
        <time>2021-08-07T11:57:54.000Z</time>
      </trkpt>
      <trkpt lat="51.19098" lon="6.78766">
        <ele>139.449128</ele>
        <time>2021-08-07T11:57:56.000Z</time>
      </trkpt>
      <trkpt lat="51.19098" lon="6.78765">
        <ele>139.445117</ele>
        <time>2021-08-07T11:57:57.000Z</time>
      </trkpt>
      <trkpt lat="51.19098" lon="6.78765">
        <ele>139.444102</ele>
        <time>2021-08-07T11:57:59.000Z</time>
      </trkpt>
      <trkpt lat="51.19095" lon="6.78759">
        <ele>139.419193</ele>
        <time>2021-08-07T11:58:05.000Z</time>
      </trkpt>
      <trkpt lat="51.19095" lon="6.78755">
        <ele>139.404957</ele>
        <time>2021-08-07T11:58:06.000Z</time>
      </trkpt>
      <trkpt lat="51.19093" lon="6.78742">
        <ele>139.358053</ele>
        <time>2021-08-07T11:58:09.000Z</time>
      </trkpt>
      <trkpt lat="51.19082" lon="6.78716">
        <ele>139.251723</ele>
        <time>2021-08-07T11:58:15.000Z</time>
      </trkpt>
      <trkpt lat="51.19076" lon="6.78706">
        <ele>139.208718</ele>
        <time>2021-08-07T11:58:17.000Z</time>
      </trkpt>
      <trkpt lat="51.19071" lon="6.78698">
        <ele>139.169019</ele>
        <time>2021-08-07T11:58:19.000Z</time>
      </trkpt>
      <trkpt lat="51.19054" lon="6.78613">
        <ele>139.009736</ele>
        <time>2021-08-07T11:58:30.000Z</time>
      </trkpt>
      <trkpt lat="51.19038" lon="6.78609">
        <ele>139.014326</ele>
        <time>2021-08-07T11:58:32.000Z</time>
      </trkpt>
      <trkpt lat="51.19023" lon="6.78589">
        <ele>139.020257</ele>
        <time>2021-08-07T11:58:38.000Z</time>
      </trkpt>
      <trkpt lat="51.19015" lon="6.78572">
        <ele>139.024096</ele>
        <time>2021-08-07T11:58:41.000Z</time>
      </trkpt>
      <trkpt lat="51.19009" lon="6.78563">
        <ele>139.026534</ele>
        <time>2021-08-07T11:58:43.000Z</time>
      </trkpt>
      <trkpt lat="51.18987" lon="6.78518">
        <ele>139.037155</ele>
        <time>2021-08-07T11:58:50.000Z</time>
      </trkpt>
      <trkpt lat="51.18978" lon="6.78499">
        <ele>139.041644</ele>
        <time>2021-08-07T11:58:53.000Z</time>
      </trkpt>
      <trkpt lat="51.1897" lon="6.78478">
        <ele>139.046322</ele>
        <time>2021-08-07T11:58:56.000Z</time>
      </trkpt>
      <trkpt lat="51.18968" lon="6.78471">
        <ele>139.047782</ele>
        <time>2021-08-07T11:58:57.000Z</time>
      </trkpt>
      <trkpt lat="51.18956" lon="6.78431">
        <ele>139.06008</ele>
        <time>2021-08-07T11:59:02.000Z</time>
      </trkpt>
      <trkpt lat="51.18952" lon="6.78417">
        <ele>139.12699</ele>
        <time>2021-08-07T11:59:04.000Z</time>
      </trkpt>
      <trkpt lat="51.18946" lon="6.78403">
        <ele>139.191989</ele>
        <time>2021-08-07T11:59:06.000Z</time>
      </trkpt>
      <trkpt lat="51.18942" lon="6.78388">
        <ele>139.261252</ele>
        <time>2021-08-07T11:59:08.000Z</time>
      </trkpt>
      <trkpt lat="51.18938" lon="6.78372">
        <ele>139.332153</ele>
        <time>2021-08-07T11:59:10.000Z</time>
      </trkpt>
      <trkpt lat="51.18923" lon="6.78327">
        <ele>139.543172</ele>
        <time>2021-08-07T11:59:16.000Z</time>
      </trkpt>
      <trkpt lat="51.1891" lon="6.7828">
        <ele>139.750626</ele>
        <time>2021-08-07T11:59:22.000Z</time>
      </trkpt>
      <trkpt lat="51.18905" lon="6.78265">
        <ele>139.819859</ele>
        <time>2021-08-07T11:59:24.000Z</time>
      </trkpt>
      <trkpt lat="51.1889" lon="6.78217">
        <ele>140.040741</ele>
        <time>2021-08-07T11:59:30.000Z</time>
      </trkpt>
      <trkpt lat="51.18885" lon="6.78203">
        <ele>140.107767</ele>
        <time>2021-08-07T11:59:32.000Z</time>
      </trkpt>
      <trkpt lat="51.18883" lon="6.78195">
        <ele>140.143721</ele>
        <time>2021-08-07T11:59:33.000Z</time>
      </trkpt>
      <trkpt lat="51.18871" lon="6.78154">
        <ele>140.261573</ele>
        <time>2021-08-07T11:59:38.000Z</time>
      </trkpt>
      <trkpt lat="51.18858" lon="6.7811">
        <ele>140.321328</ele>
        <time>2021-08-07T11:59:44.000Z</time>
      </trkpt>
      <trkpt lat="51.18856" lon="6.78103">
        <ele>140.3316</ele>
        <time>2021-08-07T11:59:45.000Z</time>
      </trkpt>
      <trkpt lat="51.18848" lon="6.78078">
        <ele>140.365622</ele>
        <time>2021-08-07T11:59:48.000Z</time>
      </trkpt>
      <trkpt lat="51.18846" lon="6.78069">
        <ele>140.377803</ele>
        <time>2021-08-07T11:59:49.000Z</time>
      </trkpt>
      <trkpt lat="51.18841" lon="6.78056">
        <ele>140.396037</ele>
        <time>2021-08-07T11:59:51.000Z</time>
      </trkpt>
      <trkpt lat="51.18836" lon="6.78032">
        <ele>140.427528</ele>
        <time>2021-08-07T11:59:54.000Z</time>
      </trkpt>
      <trkpt lat="51.18826" lon="6.77981">
        <ele>140.493758</ele>
        <time>2021-08-07T12:00:00.000Z</time>
      </trkpt>
      <trkpt lat="51.18823" lon="6.77969">
        <ele>140.510594</ele>
        <time>2021-08-07T12:00:02.000Z</time>
      </trkpt>
      <trkpt lat="51.18806" lon="6.77904">
        <ele>140.571759</ele>
        <time>2021-08-07T12:00:09.000Z</time>
      </trkpt>
      <trkpt lat="51.18804" lon="6.77898">
        <ele>140.556321</ele>
        <time>2021-08-07T12:00:10.000Z</time>
      </trkpt>
      <trkpt lat="51.18795" lon="6.77856">
        <ele>140.458085</ele>
        <time>2021-08-07T12:00:15.000Z</time>
      </trkpt>
      <trkpt lat="51.18793" lon="6.77842">
        <ele>140.426535</ele>
        <time>2021-08-07T12:00:17.000Z</time>
      </trkpt>
      <trkpt lat="51.18786" lon="6.77805">
        <ele>140.338348</ele>
        <time>2021-08-07T12:00:22.000Z</time>
      </trkpt>
      <trkpt lat="51.18777" lon="6.77762">
        <ele>140.2377</ele>
        <time>2021-08-07T12:00:27.000Z</time>
      </trkpt>
      <trkpt lat="51.18774" lon="6.77739">
        <ele>140.186306</ele>
        <time>2021-08-07T12:00:30.000Z</time>
      </trkpt>
      <trkpt lat="51.1877" lon="6.77726">
        <ele>140.153084</ele>
        <time>2021-08-07T12:00:32.000Z</time>
      </trkpt>
      <trkpt lat="51.18764" lon="6.77713">
        <ele>140.117797</ele>
        <time>2021-08-07T12:00:34.000Z</time>
      </trkpt>
      <trkpt lat="51.18755" lon="6.77687">
        <ele>140.050314</ele>
        <time>2021-08-07T12:00:37.000Z</time>
      </trkpt>
      <trkpt lat="51.18752" lon="6.77677">
        <ele>140.026717</ele>
        <time>2021-08-07T12:00:38.000Z</time>
      </trkpt>
      <trkpt lat="51.18741" lon="6.77649">
        <ele>139.951995</ele>
        <time>2021-08-07T12:00:42.000Z</time>
      </trkpt>
      <trkpt lat="51.18732" lon="6.77629">
        <ele>139.909841</ele>
        <time>2021-08-07T12:00:46.000Z</time>
      </trkpt>
      <trkpt lat="51.1873" lon="6.77623">
        <ele>139.89806</ele>
        <time>2021-08-07T12:00:47.000Z</time>
      </trkpt>
      <trkpt lat="51.18728" lon="6.77616">
        <ele>139.885115</ele>
        <time>2021-08-07T12:00:48.000Z</time>
      </trkpt>
      <trkpt lat="51.18725" lon="6.77599">
        <ele>139.856197</ele>
        <time>2021-08-07T12:00:50.000Z</time>
      </trkpt>
      <trkpt lat="51.18724" lon="6.77589">
        <ele>139.840587</ele>
        <time>2021-08-07T12:00:51.000Z</time>
      </trkpt>
      <trkpt lat="51.18723" lon="6.77581">
        <ele>139.826577</ele>
        <time>2021-08-07T12:00:52.000Z</time>
      </trkpt>
      <trkpt lat="51.18722" lon="6.77565">
        <ele>139.800102</ele>
        <time>2021-08-07T12:00:54.000Z</time>
      </trkpt>
      <trkpt lat="51.18732" lon="6.77493">
        <ele>139.678127</ele>
        <time>2021-08-07T12:01:01.000Z</time>
      </trkpt>
      <trkpt lat="51.18724" lon="6.77488">
        <ele>139.655669</ele>
        <time>2021-08-07T12:01:02.000Z</time>
      </trkpt>
      <trkpt lat="51.18712" lon="6.77476">
        <ele>139.618657</ele>
        <time>2021-08-07T12:01:04.000Z</time>
      </trkpt>
      <trkpt lat="51.18705" lon="6.77463">
        <ele>139.591159</ele>
        <time>2021-08-07T12:01:06.000Z</time>
      </trkpt>
      <trkpt lat="51.18702" lon="6.77454">
        <ele>139.57403</ele>
        <time>2021-08-07T12:01:07.000Z</time>
      </trkpt>
      <trkpt lat="51.18696" lon="6.77413">
        <ele>139.505347</ele>
        <time>2021-08-07T12:01:12.000Z</time>
      </trkpt>
      <trkpt lat="51.18696" lon="6.77407">
        <ele>139.49507</ele>
        <time>2021-08-07T12:01:13.000Z</time>
      </trkpt>
      <trkpt lat="51.18689" lon="6.77359">
        <ele>139.351011</ele>
        <time>2021-08-07T12:01:20.000Z</time>
      </trkpt>
      <trkpt lat="51.18689" lon="6.77356">
        <ele>139.34214</ele>
        <time>2021-08-07T12:01:21.000Z</time>
      </trkpt>
      <trkpt lat="51.18688" lon="6.77354">
        <ele>139.333911</ele>
        <time>2021-08-07T12:01:24.000Z</time>
      </trkpt>
      <trkpt lat="51.18688" lon="6.77354">
        <ele>139.333911</ele>
        <time>2021-08-07T12:01:32.000Z</time>
      </trkpt>
      <trkpt lat="51.18688" lon="6.77354">
        <ele>139.333911</ele>
        <time>2021-08-07T12:01:33.000Z</time>
      </trkpt>
      <trkpt lat="51.18688" lon="6.77354">
        <ele>139.333911</ele>
        <time>2021-08-07T12:01:36.000Z</time>
      </trkpt>
      <trkpt lat="51.18688" lon="6.77354">
        <ele>139.333911</ele>
        <time>2021-08-07T12:01:38.000Z</time>
      </trkpt>
      <trkpt lat="51.18688" lon="6.77354">
        <ele>139.333911</ele>
        <time>2021-08-07T12:01:47.000Z</time>
      </trkpt>
      <trkpt lat="51.18688" lon="6.77354">
        <ele>139.333911</ele>
        <time>2021-08-07T12:01:49.000Z</time>
      </trkpt>
      <trkpt lat="51.18688" lon="6.77354">
        <ele>139.333911</ele>
        <time>2021-08-07T12:01:51.000Z</time>
      </trkpt>
      <trkpt lat="51.18688" lon="6.77354">
        <ele>139.333911</ele>
        <time>2021-08-07T12:02:01.000Z</time>
      </trkpt>
      <trkpt lat="51.18688" lon="6.77354">
        <ele>139.333911</ele>
        <time>2021-08-07T12:02:07.000Z</time>
      </trkpt>
      <trkpt lat="51.18689" lon="6.77354">
        <ele>139.332638</ele>
        <time>2021-08-07T12:02:20.000Z</time>
      </trkpt>
      <trkpt lat="51.18689" lon="6.77355">
        <ele>139.329621</ele>
        <time>2021-08-07T12:02:30.000Z</time>
      </trkpt>
      <trkpt lat="51.18689" lon="6.77355">
        <ele>139.329621</ele>
        <time>2021-08-07T12:02:38.000Z</time>
      </trkpt>
      <trkpt lat="51.18689" lon="6.77355">
        <ele>139.329621</ele>
        <time>2021-08-07T12:02:41.000Z</time>
      </trkpt>
      <trkpt lat="51.18689" lon="6.77355">
        <ele>139.329621</ele>
        <time>2021-08-07T12:02:49.000Z</time>
      </trkpt>
      <trkpt lat="51.18689" lon="6.77355">
        <ele>139.329621</ele>
        <time>2021-08-07T12:02:52.000Z</time>
      </trkpt>
      <trkpt lat="51.18689" lon="6.77355">
        <ele>139.329621</ele>
        <time>2021-08-07T12:02:58.000Z</time>
      </trkpt>
      <trkpt lat="51.18689" lon="6.77355">
        <ele>139.329621</ele>
        <time>2021-08-07T12:03:02.000Z</time>
      </trkpt>
      <trkpt lat="51.18689" lon="6.77355">
        <ele>139.329621</ele>
        <time>2021-08-07T12:03:04.000Z</time>
      </trkpt>
      <trkpt lat="51.18689" lon="6.77355">
        <ele>139.329621</ele>
        <time>2021-08-07T12:03:07.000Z</time>
      </trkpt>
      <trkpt lat="51.18689" lon="6.77355">
        <ele>139.329621</ele>
        <time>2021-08-07T12:03:13.000Z</time>
      </trkpt>
      <trkpt lat="51.18689" lon="6.77355">
        <ele>139.329621</ele>
        <time>2021-08-07T12:03:20.000Z</time>
      </trkpt>
      <trkpt lat="51.18689" lon="6.77355">
        <ele>139.328757</ele>
        <time>2021-08-07T12:03:22.000Z</time>
      </trkpt>
      <trkpt lat="51.18689" lon="6.77355">
        <ele>139.327626</ele>
        <time>2021-08-07T12:03:24.000Z</time>
      </trkpt>
      <trkpt lat="51.1869" lon="6.77355">
        <ele>139.327087</ele>
        <time>2021-08-07T12:03:33.000Z</time>
      </trkpt>
      <trkpt lat="51.1869" lon="6.77355">
        <ele>139.327087</ele>
        <time>2021-08-07T12:03:37.000Z</time>
      </trkpt>
      <trkpt lat="51.1869" lon="6.77355">
        <ele>139.327087</ele>
        <time>2021-08-07T12:03:53.000Z</time>
      </trkpt>
      <trkpt lat="51.1869" lon="6.77355">
        <ele>139.327087</ele>
        <time>2021-08-07T12:03:55.000Z</time>
      </trkpt>
      <trkpt lat="51.18689" lon="6.77355">
        <ele>139.325333</ele>
        <time>2021-08-07T12:04:31.000Z</time>
      </trkpt>
      <trkpt lat="51.18689" lon="6.77355">
        <ele>139.325333</ele>
        <time>2021-08-07T12:04:37.000Z</time>
      </trkpt>
      <trkpt lat="51.18689" lon="6.77355">
        <ele>139.325333</ele>
        <time>2021-08-07T12:04:39.000Z</time>
      </trkpt>
      <trkpt lat="51.18689" lon="6.77355">
        <ele>139.324794</ele>
        <time>2021-08-07T12:04:41.000Z</time>
      </trkpt>
      <trkpt lat="51.18689" lon="6.77355">
        <ele>139.321833</ele>
        <time>2021-08-07T12:05:06.000Z</time>
      </trkpt>
      <trkpt lat="51.18689" lon="6.77355">
        <ele>139.321294</ele>
        <time>2021-08-07T12:05:16.000Z</time>
      </trkpt>
      <trkpt lat="51.18689" lon="6.77355">
        <ele>139.321294</ele>
        <time>2021-08-07T12:05:19.000Z</time>
      </trkpt>
      <trkpt lat="51.18689" lon="6.77355">
        <ele>139.320657</ele>
        <time>2021-08-07T12:05:25.000Z</time>
      </trkpt>
      <trkpt lat="51.18688" lon="6.77355">
        <ele>139.319039</ele>
        <time>2021-08-07T12:05:33.000Z</time>
      </trkpt>
      <trkpt lat="51.18688" lon="6.77354">
        <ele>139.314168</ele>
        <time>2021-08-07T12:05:39.000Z</time>
      </trkpt>
      <trkpt lat="51.18688" lon="6.77354">
        <ele>139.314168</ele>
        <time>2021-08-07T12:05:57.000Z</time>
      </trkpt>
      <trkpt lat="51.18688" lon="6.77354">
        <ele>139.314168</ele>
        <time>2021-08-07T12:06:11.000Z</time>
      </trkpt>
      <trkpt lat="51.18688" lon="6.77354">
        <ele>139.314168</ele>
        <time>2021-08-07T12:06:13.000Z</time>
      </trkpt>
      <trkpt lat="51.18688" lon="6.77354">
        <ele>139.314168</ele>
        <time>2021-08-07T12:06:21.000Z</time>
      </trkpt>
      <trkpt lat="51.18688" lon="6.77354">
        <ele>139.314168</ele>
        <time>2021-08-07T12:06:27.000Z</time>
      </trkpt>
      <trkpt lat="51.18688" lon="6.77354">
        <ele>139.314168</ele>
        <time>2021-08-07T12:06:34.000Z</time>
      </trkpt>
      <trkpt lat="51.18688" lon="6.77354">
        <ele>139.313154</ele>
        <time>2021-08-07T12:07:17.000Z</time>
      </trkpt>
      <trkpt lat="51.18688" lon="6.77354">
        <ele>139.313154</ele>
        <time>2021-08-07T12:07:21.000Z</time>
      </trkpt>
      <trkpt lat="51.18688" lon="6.77354">
        <ele>139.313154</ele>
        <time>2021-08-07T12:07:28.000Z</time>
      </trkpt>
      <trkpt lat="51.18688" lon="6.77354">
        <ele>139.313154</ele>
        <time>2021-08-07T12:07:34.000Z</time>
      </trkpt>
      <trkpt lat="51.18688" lon="6.77354">
        <ele>139.313154</ele>
        <time>2021-08-07T12:07:42.000Z</time>
      </trkpt>
      <trkpt lat="51.18688" lon="6.77354">
        <ele>139.313154</ele>
        <time>2021-08-07T12:08:04.000Z</time>
      </trkpt>
      <trkpt lat="51.18688" lon="6.77354">
        <ele>139.313154</ele>
        <time>2021-08-07T12:08:22.000Z</time>
      </trkpt>
      <trkpt lat="51.18688" lon="6.77354">
        <ele>139.313154</ele>
        <time>2021-08-07T12:08:32.000Z</time>
      </trkpt>
      <trkpt lat="51.18688" lon="6.77354">
        <ele>139.313154</ele>
        <time>2021-08-07T12:08:34.000Z</time>
      </trkpt>
      <trkpt lat="51.18688" lon="6.77354">
        <ele>139.312518</ele>
        <time>2021-08-07T12:08:55.000Z</time>
      </trkpt>
      <trkpt lat="51.18688" lon="6.77354">
        <ele>139.312518</ele>
        <time>2021-08-07T12:08:57.000Z</time>
      </trkpt>
      <trkpt lat="51.18688" lon="6.77354">
        <ele>139.312518</ele>
        <time>2021-08-07T12:08:59.000Z</time>
      </trkpt>
      <trkpt lat="51.18688" lon="6.77354">
        <ele>139.312518</ele>
        <time>2021-08-07T12:09:10.000Z</time>
      </trkpt>
      <trkpt lat="51.18688" lon="6.77354">
        <ele>139.312518</ele>
        <time>2021-08-07T12:09:21.000Z</time>
      </trkpt>
      <trkpt lat="51.18688" lon="6.77354">
        <ele>139.31218</ele>
        <time>2021-08-07T12:09:51.000Z</time>
      </trkpt>
      <trkpt lat="51.18688" lon="6.77354">
        <ele>139.31218</ele>
        <time>2021-08-07T12:09:55.000Z</time>
      </trkpt>
      <trkpt lat="51.18688" lon="6.77354">
        <ele>139.31218</ele>
        <time>2021-08-07T12:10:10.000Z</time>
      </trkpt>
      <trkpt lat="51.18688" lon="6.77354">
        <ele>139.31218</ele>
        <time>2021-08-07T12:10:15.000Z</time>
      </trkpt>
      <trkpt lat="51.18688" lon="6.77354">
        <ele>139.31218</ele>
        <time>2021-08-07T12:10:18.000Z</time>
      </trkpt>
      <trkpt lat="51.18688" lon="6.77354">
        <ele>139.31218</ele>
        <time>2021-08-07T12:10:21.000Z</time>
      </trkpt>
      <trkpt lat="51.18688" lon="6.77354">
        <ele>139.31218</ele>
        <time>2021-08-07T12:10:27.000Z</time>
      </trkpt>
      <trkpt lat="51.18688" lon="6.77354">
        <ele>139.31218</ele>
        <time>2021-08-07T12:10:32.000Z</time>
      </trkpt>
      <trkpt lat="51.18688" lon="6.77354">
        <ele>139.31218</ele>
        <time>2021-08-07T12:10:40.000Z</time>
      </trkpt>
      <trkpt lat="51.18688" lon="6.77354">
        <ele>139.311842</ele>
        <time>2021-08-07T12:10:59.000Z</time>
      </trkpt>
      <trkpt lat="51.18688" lon="6.77354">
        <ele>139.311842</ele>
        <time>2021-08-07T12:11:18.000Z</time>
      </trkpt>
      <trkpt lat="51.18688" lon="6.77354">
        <ele>139.311842</ele>
        <time>2021-08-07T12:11:19.000Z</time>
      </trkpt>
      <trkpt lat="51.18688" lon="6.77354">
        <ele>139.311842</ele>
        <time>2021-08-07T12:11:21.000Z</time>
      </trkpt>
      <trkpt lat="51.18688" lon="6.77354">
        <ele>139.311842</ele>
        <time>2021-08-07T12:11:28.000Z</time>
      </trkpt>
      <trkpt lat="51.18688" lon="6.77354">
        <ele>139.311842</ele>
        <time>2021-08-07T12:11:31.000Z</time>
      </trkpt>
      <trkpt lat="51.18688" lon="6.77354">
        <ele>139.311842</ele>
        <time>2021-08-07T12:11:34.000Z</time>
      </trkpt>
      <trkpt lat="51.18688" lon="6.77354">
        <ele>139.311302</ele>
        <time>2021-08-07T12:11:37.000Z</time>
      </trkpt>
      <trkpt lat="51.18688" lon="6.77354">
        <ele>139.311302</ele>
        <time>2021-08-07T12:11:48.000Z</time>
      </trkpt>
      <trkpt lat="51.18688" lon="6.77354">
        <ele>139.311302</ele>
        <time>2021-08-07T12:11:53.000Z</time>
      </trkpt>
      <trkpt lat="51.18688" lon="6.77354">
        <ele>139.311302</ele>
        <time>2021-08-07T12:12:01.000Z</time>
      </trkpt>
      <trkpt lat="51.18688" lon="6.77354">
        <ele>139.311302</ele>
        <time>2021-08-07T12:12:18.000Z</time>
      </trkpt>
      <trkpt lat="51.18688" lon="6.77354">
        <ele>139.310964</ele>
        <time>2021-08-07T12:12:31.000Z</time>
      </trkpt>
      <trkpt lat="51.18688" lon="6.77354">
        <ele>139.310964</ele>
        <time>2021-08-07T12:12:35.000Z</time>
      </trkpt>
      <trkpt lat="51.18688" lon="6.77354">
        <ele>139.310964</ele>
        <time>2021-08-07T12:12:40.000Z</time>
      </trkpt>
      <trkpt lat="51.18688" lon="6.77354">
        <ele>139.309816</ele>
        <time>2021-08-07T12:12:48.000Z</time>
      </trkpt>
      <trkpt lat="51.18684" lon="6.77343">
        <ele>139.2677</ele>
        <time>2021-08-07T12:12:51.000Z</time>
      </trkpt>
      <trkpt lat="51.18681" lon="6.77333">
        <ele>139.230271</ele>
        <time>2021-08-07T12:12:53.000Z</time>
      </trkpt>
      <trkpt lat="51.18676" lon="6.7731">
        <ele>139.149467</ele>
        <time>2021-08-07T12:12:57.000Z</time>
      </trkpt>
      <trkpt lat="51.18668" lon="6.77268">
        <ele>138.999794</ele>
        <time>2021-08-07T12:13:04.000Z</time>
      </trkpt>
      <trkpt lat="51.18666" lon="6.77256">
        <ele>138.958084</ele>
        <time>2021-08-07T12:13:06.000Z</time>
      </trkpt>
      <trkpt lat="51.18664" lon="6.77237">
        <ele>138.89267</ele>
        <time>2021-08-07T12:13:10.000Z</time>
      </trkpt>
      <trkpt lat="51.18664" lon="6.77237">
        <ele>138.890561</ele>
        <time>2021-08-07T12:13:11.000Z</time>
      </trkpt>
      <trkpt lat="51.18664" lon="6.77237">
        <ele>138.889106</ele>
        <time>2021-08-07T12:13:16.000Z</time>
      </trkpt>
      <trkpt lat="51.18664" lon="6.77237">
        <ele>138.887376</ele>
        <time>2021-08-07T12:13:17.000Z</time>
      </trkpt>
      <trkpt lat="51.18664" lon="6.77236">
        <ele>138.884618</ele>
        <time>2021-08-07T12:13:22.000Z</time>
      </trkpt>
      <trkpt lat="51.18664" lon="6.77236">
        <ele>138.884618</ele>
        <time>2021-08-07T12:13:24.000Z</time>
      </trkpt>
      <trkpt lat="51.18663" lon="6.77236">
        <ele>138.883982</ele>
        <time>2021-08-07T12:13:27.000Z</time>
      </trkpt>
      <trkpt lat="51.18662" lon="6.7723">
        <ele>138.864466</ele>
        <time>2021-08-07T12:13:29.000Z</time>
      </trkpt>
      <trkpt lat="51.18661" lon="6.77226">
        <ele>138.849781</ele>
        <time>2021-08-07T12:13:30.000Z</time>
      </trkpt>
      <trkpt lat="51.18655" lon="6.772">
        <ele>138.75361</ele>
        <time>2021-08-07T12:13:35.000Z</time>
      </trkpt>
      <trkpt lat="51.18653" lon="6.77194">
        <ele>138.73183</ele>
        <time>2021-08-07T12:13:36.000Z</time>
      </trkpt>
      <trkpt lat="51.18652" lon="6.77188">
        <ele>138.711346</ele>
        <time>2021-08-07T12:13:37.000Z</time>
      </trkpt>
      <trkpt lat="51.18649" lon="6.77176">
        <ele>138.668185</ele>
        <time>2021-08-07T12:13:39.000Z</time>
      </trkpt>
      <trkpt lat="51.18645" lon="6.7715">
        <ele>138.57621</ele>
        <time>2021-08-07T12:13:43.000Z</time>
      </trkpt>
      <trkpt lat="51.18636" lon="6.77095">
        <ele>138.549838</ele>
        <time>2021-08-07T12:13:51.000Z</time>
      </trkpt>
      <trkpt lat="51.18634" lon="6.77081">
        <ele>138.568888</ele>
        <time>2021-08-07T12:13:53.000Z</time>
      </trkpt>
      <trkpt lat="51.18628" lon="6.77061">
        <ele>138.596833</ele>
        <time>2021-08-07T12:13:56.000Z</time>
      </trkpt>
      <trkpt lat="51.18627" lon="6.77054">
        <ele>138.606478</ele>
        <time>2021-08-07T12:13:57.000Z</time>
      </trkpt>
      <trkpt lat="51.18614" lon="6.76989">
        <ele>138.695871</ele>
        <time>2021-08-07T12:14:06.000Z</time>
      </trkpt>
      <trkpt lat="51.18611" lon="6.76975">
        <ele>138.715957</ele>
        <time>2021-08-07T12:14:08.000Z</time>
      </trkpt>
      <trkpt lat="51.18592" lon="6.76898">
        <ele>138.823643</ele>
        <time>2021-08-07T12:14:19.000Z</time>
      </trkpt>
      <trkpt lat="51.18588" lon="6.76885">
        <ele>138.843081</ele>
        <time>2021-08-07T12:14:21.000Z</time>
      </trkpt>
      <trkpt lat="51.1858" lon="6.76858">
        <ele>138.878362</ele>
        <time>2021-08-07T12:14:25.000Z</time>
      </trkpt>
      <trkpt lat="51.18571" lon="6.76833">
        <ele>138.849149</ele>
        <time>2021-08-07T12:14:29.000Z</time>
      </trkpt>
      <trkpt lat="51.18555" lon="6.76796">
        <ele>138.804875</ele>
        <time>2021-08-07T12:14:35.000Z</time>
      </trkpt>
      <trkpt lat="51.18529" lon="6.76723">
        <ele>138.722003</ele>
        <time>2021-08-07T12:14:45.000Z</time>
      </trkpt>
      <trkpt lat="51.18512" lon="6.76663">
        <ele>138.655439</ele>
        <time>2021-08-07T12:14:53.000Z</time>
      </trkpt>
      <trkpt lat="51.18498" lon="6.76602">
        <ele>138.601664</ele>
        <time>2021-08-07T12:15:01.000Z</time>
      </trkpt>
      <trkpt lat="51.18484" lon="6.7653">
        <ele>138.784896</ele>
        <time>2021-08-07T12:15:11.000Z</time>
      </trkpt>
      <trkpt lat="51.1847" lon="6.76464">
        <ele>138.953128</ele>
        <time>2021-08-07T12:15:21.000Z</time>
      </trkpt>
      <trkpt lat="51.18466" lon="6.76436">
        <ele>139.023929</ele>
        <time>2021-08-07T12:15:26.000Z</time>
      </trkpt>
      <trkpt lat="51.18462" lon="6.76397">
        <ele>139.117589</ele>
        <time>2021-08-07T12:15:33.000Z</time>
      </trkpt>
      <trkpt lat="51.18463" lon="6.76383">
        <ele>139.151873</ele>
        <time>2021-08-07T12:15:35.000Z</time>
      </trkpt>
      <trkpt lat="51.18464" lon="6.7637">
        <ele>139.185426</ele>
        <time>2021-08-07T12:15:37.000Z</time>
      </trkpt>
      <trkpt lat="51.18464" lon="6.76362">
        <ele>139.203118</ele>
        <time>2021-08-07T12:15:38.000Z</time>
      </trkpt>
      <trkpt lat="51.18463" lon="6.76347">
        <ele>139.238983</ele>
        <time>2021-08-07T12:15:40.000Z</time>
      </trkpt>
      <trkpt lat="51.18463" lon="6.76332">
        <ele>139.276475</ele>
        <time>2021-08-07T12:15:42.000Z</time>
      </trkpt>
      <trkpt lat="51.18464" lon="6.76301">
        <ele>139.268334</ele>
        <time>2021-08-07T12:15:46.000Z</time>
      </trkpt>
      <trkpt lat="51.18464" lon="6.76256">
        <ele>139.231765</ele>
        <time>2021-08-07T12:15:52.000Z</time>
      </trkpt>
      <trkpt lat="51.18463" lon="6.7624">
        <ele>139.219548</ele>
        <time>2021-08-07T12:15:54.000Z</time>
      </trkpt>
      <trkpt lat="51.18462" lon="6.76226">
        <ele>139.207713</ele>
        <time>2021-08-07T12:15:56.000Z</time>
      </trkpt>
      <trkpt lat="51.18457" lon="6.7615">
        <ele>139.146915</ele>
        <time>2021-08-07T12:16:06.000Z</time>
      </trkpt>
      <trkpt lat="51.18456" lon="6.76136">
        <ele>139.135701</ele>
        <time>2021-08-07T12:16:08.000Z</time>
      </trkpt>
      <trkpt lat="51.18456" lon="6.76128">
        <ele>139.1297</ele>
        <time>2021-08-07T12:16:09.000Z</time>
      </trkpt>
      <trkpt lat="51.18453" lon="6.76066">
        <ele>139.079879</ele>
        <time>2021-08-07T12:16:17.000Z</time>
      </trkpt>
      <trkpt lat="51.18451" lon="6.76044">
        <ele>139.062417</ele>
        <time>2021-08-07T12:16:20.000Z</time>
      </trkpt>
      <trkpt lat="51.1845" lon="6.7603">
        <ele>139.104757</ele>
        <time>2021-08-07T12:16:22.000Z</time>
      </trkpt>
      <trkpt lat="51.1845" lon="6.76017">
        <ele>139.158217</ele>
        <time>2021-08-07T12:16:24.000Z</time>
      </trkpt>
      <trkpt lat="51.18449" lon="6.76009">
        <ele>139.193175</ele>
        <time>2021-08-07T12:16:25.000Z</time>
      </trkpt>
      <trkpt lat="51.18448" lon="6.75994">
        <ele>139.251371</ele>
        <time>2021-08-07T12:16:27.000Z</time>
      </trkpt>
      <trkpt lat="51.18448" lon="6.75988">
        <ele>139.27994</ele>
        <time>2021-08-07T12:16:28.000Z</time>
      </trkpt>
      <trkpt lat="51.18446" lon="6.75974">
        <ele>139.336766</ele>
        <time>2021-08-07T12:16:30.000Z</time>
      </trkpt>
      <trkpt lat="51.18446" lon="6.7596">
        <ele>139.394276</ele>
        <time>2021-08-07T12:16:32.000Z</time>
      </trkpt>
      <trkpt lat="51.18445" lon="6.75946">
        <ele>139.453102</ele>
        <time>2021-08-07T12:16:34.000Z</time>
      </trkpt>
      <trkpt lat="51.18445" lon="6.75931">
        <ele>139.513799</ele>
        <time>2021-08-07T12:16:36.000Z</time>
      </trkpt>
      <trkpt lat="51.18445" lon="6.75923">
        <ele>139.544732</ele>
        <time>2021-08-07T12:16:37.000Z</time>
      </trkpt>
      <trkpt lat="51.18442" lon="6.75894">
        <ele>139.667463</ele>
        <time>2021-08-07T12:16:41.000Z</time>
      </trkpt>
      <trkpt lat="51.18441" lon="6.75868">
        <ele>139.773261</ele>
        <time>2021-08-07T12:16:44.000Z</time>
      </trkpt>
      <trkpt lat="51.18437" lon="6.75807">
        <ele>140.023645</ele>
        <time>2021-08-07T12:16:52.000Z</time>
      </trkpt>
      <trkpt lat="51.18436" lon="6.75792">
        <ele>140.08566</ele>
        <time>2021-08-07T12:16:54.000Z</time>
      </trkpt>
      <trkpt lat="51.18436" lon="6.75785">
        <ele>140.115713</ele>
        <time>2021-08-07T12:16:55.000Z</time>
      </trkpt>
      <trkpt lat="51.18433" lon="6.75743">
        <ele>140.246215</ele>
        <time>2021-08-07T12:17:01.000Z</time>
      </trkpt>
      <trkpt lat="51.18429" lon="6.75693">
        <ele>140.285755</ele>
        <time>2021-08-07T12:17:08.000Z</time>
      </trkpt>
      <trkpt lat="51.18429" lon="6.75677">
        <ele>140.298162</ele>
        <time>2021-08-07T12:17:10.000Z</time>
      </trkpt>
      <trkpt lat="51.18428" lon="6.75656">
        <ele>140.314659</ele>
        <time>2021-08-07T12:17:13.000Z</time>
      </trkpt>
      <trkpt lat="51.18425" lon="6.7564">
        <ele>140.32749</ele>
        <time>2021-08-07T12:17:15.000Z</time>
      </trkpt>
      <trkpt lat="51.1842" lon="6.75583">
        <ele>140.373322</ele>
        <time>2021-08-07T12:17:23.000Z</time>
      </trkpt>
      <trkpt lat="51.18417" lon="6.75517">
        <ele>140.425378</ele>
        <time>2021-08-07T12:17:32.000Z</time>
      </trkpt>
      <trkpt lat="51.18417" lon="6.75509">
        <ele>140.43127</ele>
        <time>2021-08-07T12:17:33.000Z</time>
      </trkpt>
      <trkpt lat="51.18414" lon="6.75472">
        <ele>140.460849</ele>
        <time>2021-08-07T12:17:38.000Z</time>
      </trkpt>
      <trkpt lat="51.18413" lon="6.75464">
        <ele>140.466935</ele>
        <time>2021-08-07T12:17:39.000Z</time>
      </trkpt>
      <trkpt lat="51.1841" lon="6.75427">
        <ele>140.497702</ele>
        <time>2021-08-07T12:17:44.000Z</time>
      </trkpt>
      <trkpt lat="51.18407" lon="6.75375">
        <ele>140.540422</ele>
        <time>2021-08-07T12:17:51.000Z</time>
      </trkpt>
      <trkpt lat="51.18402" lon="6.75322">
        <ele>140.58431</ele>
        <time>2021-08-07T12:17:58.000Z</time>
      </trkpt>
      <trkpt lat="51.184" lon="6.75291">
        <ele>140.609963</ele>
        <time>2021-08-07T12:18:02.000Z</time>
      </trkpt>
      <trkpt lat="51.18398" lon="6.75255">
        <ele>140.640012</ele>
        <time>2021-08-07T12:18:07.000Z</time>
      </trkpt>
      <trkpt lat="51.18396" lon="6.75193">
        <ele>140.6907</ele>
        <time>2021-08-07T12:18:15.000Z</time>
      </trkpt>
      <trkpt lat="51.18397" lon="6.75129">
        <ele>140.746769</ele>
        <time>2021-08-07T12:18:23.000Z</time>
      </trkpt>
      <trkpt lat="51.18401" lon="6.75068">
        <ele>140.800238</ele>
        <time>2021-08-07T12:18:31.000Z</time>
      </trkpt>
      <trkpt lat="51.18403" lon="6.75038">
        <ele>140.827222</ele>
        <time>2021-08-07T12:18:35.000Z</time>
      </trkpt>
      <trkpt lat="51.18405" lon="6.75013">
        <ele>140.84913</ele>
        <time>2021-08-07T12:18:38.000Z</time>
      </trkpt>
      <trkpt lat="51.18413" lon="6.74942">
        <ele>140.912633</ele>
        <time>2021-08-07T12:18:47.000Z</time>
      </trkpt>
      <trkpt lat="51.18414" lon="6.74935">
        <ele>140.919</ele>
        <time>2021-08-07T12:18:48.000Z</time>
      </trkpt>
      <trkpt lat="51.1842" lon="6.74873">
        <ele>140.987619</ele>
        <time>2021-08-07T12:18:56.000Z</time>
      </trkpt>
      <trkpt lat="51.18422" lon="6.74866">
        <ele>140.998303</ele>
        <time>2021-08-07T12:18:57.000Z</time>
      </trkpt>
      <trkpt lat="51.18434" lon="6.74813">
        <ele>141.074162</ele>
        <time>2021-08-07T12:19:04.000Z</time>
      </trkpt>
      <trkpt lat="51.18447" lon="6.74756">
        <ele>141.156145</ele>
        <time>2021-08-07T12:19:11.000Z</time>
      </trkpt>
      <trkpt lat="51.18457" lon="6.74728">
        <ele>141.199386</ele>
        <time>2021-08-07T12:19:15.000Z</time>
      </trkpt>
      <trkpt lat="51.18464" lon="6.74705">
        <ele>141.233513</ele>
        <time>2021-08-07T12:19:18.000Z</time>
      </trkpt>
      <trkpt lat="51.18468" lon="6.74689">
        <ele>141.257501</ele>
        <time>2021-08-07T12:19:20.000Z</time>
      </trkpt>
      <trkpt lat="51.1848" lon="6.74657">
        <ele>141.306556</ele>
        <time>2021-08-07T12:19:24.000Z</time>
      </trkpt>
      <trkpt lat="51.18494" lon="6.7461">
        <ele>141.333778</ele>
        <time>2021-08-07T12:19:30.000Z</time>
      </trkpt>
      <trkpt lat="51.18496" lon="6.74603">
        <ele>141.332842</ele>
        <time>2021-08-07T12:19:31.000Z</time>
      </trkpt>
      <trkpt lat="51.18506" lon="6.74557">
        <ele>141.327173</ele>
        <time>2021-08-07T12:19:37.000Z</time>
      </trkpt>
      <trkpt lat="51.1851" lon="6.74541">
        <ele>141.325242</ele>
        <time>2021-08-07T12:19:39.000Z</time>
      </trkpt>
      <trkpt lat="51.18524" lon="6.7449">
        <ele>141.31872</ele>
        <time>2021-08-07T12:19:46.000Z</time>
      </trkpt>
      <trkpt lat="51.18527" lon="6.74483">
        <ele>141.317705</ele>
        <time>2021-08-07T12:19:47.000Z</time>
      </trkpt>
      <trkpt lat="51.1853" lon="6.74475">
        <ele>141.316691</ele>
        <time>2021-08-07T12:19:48.000Z</time>
      </trkpt>
      <trkpt lat="51.18539" lon="6.74445">
        <ele>141.312785</ele>
        <time>2021-08-07T12:19:52.000Z</time>
      </trkpt>
      <trkpt lat="51.18559" lon="6.74377">
        <ele>141.304083</ele>
        <time>2021-08-07T12:20:01.000Z</time>
      </trkpt>
      <trkpt lat="51.18582" lon="6.74315">
        <ele>141.390746</ele>
        <time>2021-08-07T12:20:10.000Z</time>
      </trkpt>
      <trkpt lat="51.18587" lon="6.743">
        <ele>141.411628</ele>
        <time>2021-08-07T12:20:12.000Z</time>
      </trkpt>
      <trkpt lat="51.18591" lon="6.74286">
        <ele>141.431509</ele>
        <time>2021-08-07T12:20:14.000Z</time>
      </trkpt>
      <trkpt lat="51.18597" lon="6.74274">
        <ele>141.449658</ele>
        <time>2021-08-07T12:20:16.000Z</time>
      </trkpt>
      <trkpt lat="51.18618" lon="6.74227">
        <ele>141.521706</ele>
        <time>2021-08-07T12:20:24.000Z</time>
      </trkpt>
      <trkpt lat="51.18638" lon="6.74184">
        <ele>141.587798</ele>
        <time>2021-08-07T12:20:31.000Z</time>
      </trkpt>
      <trkpt lat="51.18654" lon="6.7415">
        <ele>141.641413</ele>
        <time>2021-08-07T12:20:37.000Z</time>
      </trkpt>
      <trkpt lat="51.18658" lon="6.74144">
        <ele>141.651911</ele>
        <time>2021-08-07T12:20:38.000Z</time>
      </trkpt>
      <trkpt lat="51.18666" lon="6.74128">
        <ele>141.610613</ele>
        <time>2021-08-07T12:20:41.000Z</time>
      </trkpt>
      <trkpt lat="51.18669" lon="6.74123">
        <ele>141.586491</ele>
        <time>2021-08-07T12:20:42.000Z</time>
      </trkpt>
      <trkpt lat="51.18679" lon="6.74107">
        <ele>141.510003</ele>
        <time>2021-08-07T12:20:45.000Z</time>
      </trkpt>
      <trkpt lat="51.18702" lon="6.74069">
        <ele>141.325299</ele>
        <time>2021-08-07T12:20:52.000Z</time>
      </trkpt>
      <trkpt lat="51.18729" lon="6.74029">
        <ele>141.121493</ele>
        <time>2021-08-07T12:21:00.000Z</time>
      </trkpt>
      <trkpt lat="51.18736" lon="6.74018">
        <ele>141.067183</ele>
        <time>2021-08-07T12:21:02.000Z</time>
      </trkpt>
      <trkpt lat="51.1875" lon="6.73998">
        <ele>140.965005</ele>
        <time>2021-08-07T12:21:06.000Z</time>
      </trkpt>
      <trkpt lat="51.18768" lon="6.73973">
        <ele>140.832732</ele>
        <time>2021-08-07T12:21:11.000Z</time>
      </trkpt>
      <trkpt lat="51.18795" lon="6.7394">
        <ele>140.667258</ele>
        <time>2021-08-07T12:21:18.000Z</time>
      </trkpt>
      <trkpt lat="51.18799" lon="6.73934">
        <ele>140.669855</ele>
        <time>2021-08-07T12:21:19.000Z</time>
      </trkpt>
      <trkpt lat="51.18803" lon="6.7393">
        <ele>140.671954</ele>
        <time>2021-08-07T12:21:20.000Z</time>
      </trkpt>
      <trkpt lat="51.18838" lon="6.73893">
        <ele>140.689675</ele>
        <time>2021-08-07T12:21:28.000Z</time>
      </trkpt>
      <trkpt lat="51.18864" lon="6.73868">
        <ele>140.7027</ele>
        <time>2021-08-07T12:21:34.000Z</time>
      </trkpt>
      <trkpt lat="51.18868" lon="6.73863">
        <ele>140.704798</ele>
        <time>2021-08-07T12:21:35.000Z</time>
      </trkpt>
      <trkpt lat="51.18899" lon="6.73834">
        <ele>140.720132</ele>
        <time>2021-08-07T12:21:42.000Z</time>
      </trkpt>
      <trkpt lat="51.1892" lon="6.73818">
        <ele>140.730299</ele>
        <time>2021-08-07T12:21:47.000Z</time>
      </trkpt>
      <trkpt lat="51.18927" lon="6.73813">
        <ele>140.73381</ele>
        <time>2021-08-07T12:21:49.000Z</time>
      </trkpt>
      <trkpt lat="51.18937" lon="6.73806">
        <ele>140.738282</ele>
        <time>2021-08-07T12:21:51.000Z</time>
      </trkpt>
      <trkpt lat="51.18946" lon="6.73801">
        <ele>140.742206</ele>
        <time>2021-08-07T12:21:53.000Z</time>
      </trkpt>
      <trkpt lat="51.1895" lon="6.73798">
        <ele>140.746454</ele>
        <time>2021-08-07T12:21:54.000Z</time>
      </trkpt>
      <trkpt lat="51.18959" lon="6.73791">
        <ele>140.759859</ele>
        <time>2021-08-07T12:21:56.000Z</time>
      </trkpt>
      <trkpt lat="51.1897" lon="6.73783">
        <ele>140.774485</ele>
        <time>2021-08-07T12:21:58.000Z</time>
      </trkpt>
      <trkpt lat="51.18974" lon="6.73781">
        <ele>140.779364</ele>
        <time>2021-08-07T12:21:59.000Z</time>
      </trkpt>
      <trkpt lat="51.18988" lon="6.7377">
        <ele>140.798403</ele>
        <time>2021-08-07T12:22:02.000Z</time>
      </trkpt>
      <trkpt lat="51.19007" lon="6.73759">
        <ele>140.824197</ele>
        <time>2021-08-07T12:22:06.000Z</time>
      </trkpt>
      <trkpt lat="51.19021" lon="6.73753">
        <ele>140.84161</ele>
        <time>2021-08-07T12:22:09.000Z</time>
      </trkpt>
      <trkpt lat="51.19041" lon="6.73742">
        <ele>140.867624</ele>
        <time>2021-08-07T12:22:13.000Z</time>
      </trkpt>
      <trkpt lat="51.19049" lon="6.73736">
        <ele>140.87825</ele>
        <time>2021-08-07T12:22:15.000Z</time>
      </trkpt>
      <trkpt lat="51.19072" lon="6.73724">
        <ele>140.908058</ele>
        <time>2021-08-07T12:22:19.000Z</time>
      </trkpt>
      <trkpt lat="51.19082" lon="6.73722">
        <ele>140.920795</ele>
        <time>2021-08-07T12:22:21.000Z</time>
      </trkpt>
      <trkpt lat="51.1912" lon="6.73709">
        <ele>140.965246</ele>
        <time>2021-08-07T12:22:28.000Z</time>
      </trkpt>
      <trkpt lat="51.19124" lon="6.73707">
        <ele>140.965181</ele>
        <time>2021-08-07T12:22:29.000Z</time>
      </trkpt>
      <trkpt lat="51.19151" lon="6.737">
        <ele>140.964828</ele>
        <time>2021-08-07T12:22:34.000Z</time>
      </trkpt>
      <trkpt lat="51.19163" lon="6.73694">
        <ele>140.964654</ele>
        <time>2021-08-07T12:22:37.000Z</time>
      </trkpt>
      <trkpt lat="51.19173" lon="6.73692">
        <ele>140.964523</ele>
        <time>2021-08-07T12:22:39.000Z</time>
      </trkpt>
      <trkpt lat="51.19193" lon="6.73693">
        <ele>140.964265</ele>
        <time>2021-08-07T12:22:43.000Z</time>
      </trkpt>
      <trkpt lat="51.19198" lon="6.73691">
        <ele>140.964199</ele>
        <time>2021-08-07T12:22:44.000Z</time>
      </trkpt>
      <trkpt lat="51.19207" lon="6.73689">
        <ele>140.964068</ele>
        <time>2021-08-07T12:22:46.000Z</time>
      </trkpt>
      <trkpt lat="51.19217" lon="6.7369">
        <ele>140.963944</ele>
        <time>2021-08-07T12:22:48.000Z</time>
      </trkpt>
      <trkpt lat="51.19241" lon="6.73688">
        <ele>140.96363</ele>
        <time>2021-08-07T12:22:53.000Z</time>
      </trkpt>
      <trkpt lat="51.19249" lon="6.73688">
        <ele>140.963519</ele>
        <time>2021-08-07T12:22:55.000Z</time>
      </trkpt>
      <trkpt lat="51.19293" lon="6.73684">
        <ele>140.962937</ele>
        <time>2021-08-07T12:23:04.000Z</time>
      </trkpt>
      <trkpt lat="51.19335" lon="6.73679">
        <ele>140.888381</ele>
        <time>2021-08-07T12:23:13.000Z</time>
      </trkpt>
      <trkpt lat="51.19368" lon="6.73675">
        <ele>140.827034</ele>
        <time>2021-08-07T12:23:20.000Z</time>
      </trkpt>
      <trkpt lat="51.19374" lon="6.73675">
        <ele>140.815966</ele>
        <time>2021-08-07T12:23:21.000Z</time>
      </trkpt>
      <trkpt lat="51.1943" lon="6.73669">
        <ele>140.709169</ele>
        <time>2021-08-07T12:23:33.000Z</time>
      </trkpt>
      <trkpt lat="51.19463" lon="6.73665">
        <ele>140.647653</ele>
        <time>2021-08-07T12:23:40.000Z</time>
      </trkpt>
      <trkpt lat="51.19501" lon="6.73664">
        <ele>140.662838</ele>
        <time>2021-08-07T12:23:48.000Z</time>
      </trkpt>
      <trkpt lat="51.19539" lon="6.73661">
        <ele>140.717784</ele>
        <time>2021-08-07T12:23:56.000Z</time>
      </trkpt>
      <trkpt lat="51.19548" lon="6.73662">
        <ele>140.73054</ele>
        <time>2021-08-07T12:23:58.000Z</time>
      </trkpt>
      <trkpt lat="51.19576" lon="6.73658">
        <ele>140.769947</ele>
        <time>2021-08-07T12:24:04.000Z</time>
      </trkpt>
      <trkpt lat="51.19618" lon="6.73653">
        <ele>140.83013</ele>
        <time>2021-08-07T12:24:12.000Z</time>
      </trkpt>
      <trkpt lat="51.19648" lon="6.73651">
        <ele>140.872914</ele>
        <time>2021-08-07T12:24:18.000Z</time>
      </trkpt>
      <trkpt lat="51.19665" lon="6.73647">
        <ele>140.892313</ele>
        <time>2021-08-07T12:24:21.000Z</time>
      </trkpt>
      <trkpt lat="51.19681" lon="6.73647">
        <ele>140.907337</ele>
        <time>2021-08-07T12:24:24.000Z</time>
      </trkpt>
      <trkpt lat="51.19686" lon="6.73648">
        <ele>140.912127</ele>
        <time>2021-08-07T12:24:25.000Z</time>
      </trkpt>
      <trkpt lat="51.19719" lon="6.73643">
        <ele>140.943237</ele>
        <time>2021-08-07T12:24:32.000Z</time>
      </trkpt>
      <trkpt lat="51.19757" lon="6.73639">
        <ele>140.979368</ele>
        <time>2021-08-07T12:24:40.000Z</time>
      </trkpt>
      <trkpt lat="51.19771" lon="6.73641">
        <ele>140.992548</ele>
        <time>2021-08-07T12:24:43.000Z</time>
      </trkpt>
      <trkpt lat="51.19786" lon="6.73639">
        <ele>141.006755</ele>
        <time>2021-08-07T12:24:46.000Z</time>
      </trkpt>
      <trkpt lat="51.19822" lon="6.73633">
        <ele>141.040918</ele>
        <time>2021-08-07T12:24:54.000Z</time>
      </trkpt>
      <trkpt lat="51.19828" lon="6.73633">
        <ele>141.046005</ele>
        <time>2021-08-07T12:24:55.000Z</time>
      </trkpt>
      <trkpt lat="51.19832" lon="6.73632">
        <ele>141.049985</ele>
        <time>2021-08-07T12:24:56.000Z</time>
      </trkpt>
      <trkpt lat="51.19845" lon="6.73633">
        <ele>141.449604</ele>
        <time>2021-08-07T12:24:59.000Z</time>
      </trkpt>
      <trkpt lat="51.19855" lon="6.73634">
        <ele>141.800326</ele>
        <time>2021-08-07T12:25:01.000Z</time>
      </trkpt>
      <trkpt lat="51.19864" lon="6.73635">
        <ele>142.125761</ele>
        <time>2021-08-07T12:25:03.000Z</time>
      </trkpt>
      <trkpt lat="51.19867" lon="6.73638">
        <ele>142.243272</ele>
        <time>2021-08-07T12:25:04.000Z</time>
      </trkpt>
      <trkpt lat="51.19869" lon="6.73642">
        <ele>142.370802</ele>
        <time>2021-08-07T12:25:05.000Z</time>
      </trkpt>
      <trkpt lat="51.1987" lon="6.73652">
        <ele>142.578037</ele>
        <time>2021-08-07T12:25:07.000Z</time>
      </trkpt>
      <trkpt lat="51.19866" lon="6.73674">
        <ele>143.080212</ele>
        <time>2021-08-07T12:25:12.000Z</time>
      </trkpt>
      <trkpt lat="51.19865" lon="6.73685">
        <ele>143.32506</ele>
        <time>2021-08-07T12:25:14.000Z</time>
      </trkpt>
      <trkpt lat="51.19859" lon="6.7371">
        <ele>143.92914</ele>
        <time>2021-08-07T12:25:19.000Z</time>
      </trkpt>
      <trkpt lat="51.19859" lon="6.73716">
        <ele>144.04612</ele>
        <time>2021-08-07T12:25:20.000Z</time>
      </trkpt>
      <trkpt lat="51.19858" lon="6.7372">
        <ele>144.149412</ele>
        <time>2021-08-07T12:25:21.000Z</time>
      </trkpt>
      <trkpt lat="51.19857" lon="6.73726">
        <ele>144.293678</ele>
        <time>2021-08-07T12:25:25.000Z</time>
      </trkpt>
      <trkpt lat="51.19856" lon="6.73732">
        <ele>144.431039</ele>
        <time>2021-08-07T12:25:32.000Z</time>
      </trkpt>
      <trkpt lat="51.19856" lon="6.73735">
        <ele>144.484137</ele>
        <time>2021-08-07T12:25:33.000Z</time>
      </trkpt>
      <trkpt lat="51.19855" lon="6.73741">
        <ele>144.61928</ele>
        <time>2021-08-07T12:25:35.000Z</time>
      </trkpt>
      <trkpt lat="51.19852" lon="6.73746">
        <ele>144.786262</ele>
        <time>2021-08-07T12:25:38.000Z</time>
      </trkpt>
      <trkpt lat="51.1985" lon="6.73739">
        <ele>144.968633</ele>
        <time>2021-08-07T12:25:42.000Z</time>
      </trkpt>
      <trkpt lat="51.19851" lon="6.7372">
        <ele>145.387021</ele>
        <time>2021-08-07T12:25:47.000Z</time>
      </trkpt>
      <trkpt lat="51.19852" lon="6.73686">
        <ele>146.147067</ele>
        <time>2021-08-07T12:25:54.000Z</time>
      </trkpt>
      <trkpt lat="51.19855" lon="6.73655">
        <ele>146.833433</ele>
        <time>2021-08-07T12:26:00.000Z</time>
      </trkpt>
      <trkpt lat="51.19858" lon="6.73632">
        <ele>147.344935</ele>
        <time>2021-08-07T12:26:04.000Z</time>
      </trkpt>
      <trkpt lat="51.19859" lon="6.73616">
        <ele>147.514245</ele>
        <time>2021-08-07T12:26:07.000Z</time>
      </trkpt>
      <trkpt lat="51.1986" lon="6.73598">
        <ele>147.649908</ele>
        <time>2021-08-07T12:26:10.000Z</time>
      </trkpt>
      <trkpt lat="51.19861" lon="6.73588">
        <ele>147.735162</ele>
        <time>2021-08-07T12:26:12.000Z</time>
      </trkpt>
      <trkpt lat="51.19861" lon="6.73577">
        <ele>147.821545</ele>
        <time>2021-08-07T12:26:14.000Z</time>
      </trkpt>
      <trkpt lat="51.19861" lon="6.73562">
        <ele>147.941806</ele>
        <time>2021-08-07T12:26:17.000Z</time>
      </trkpt>
      <trkpt lat="51.19862" lon="6.73538">
        <ele>148.126085</ele>
        <time>2021-08-07T12:26:21.000Z</time>
      </trkpt>
      <trkpt lat="51.19863" lon="6.73511">
        <ele>148.343305</ele>
        <time>2021-08-07T12:26:26.000Z</time>
      </trkpt>
      <trkpt lat="51.19865" lon="6.73483">
        <ele>148.562187</ele>
        <time>2021-08-07T12:26:31.000Z</time>
      </trkpt>
      <trkpt lat="51.19865" lon="6.73465">
        <ele>148.705741</ele>
        <time>2021-08-07T12:26:34.000Z</time>
      </trkpt>
      <trkpt lat="51.19866" lon="6.73449">
        <ele>148.837459</ele>
        <time>2021-08-07T12:26:37.000Z</time>
      </trkpt>
      <trkpt lat="51.19869" lon="6.73404">
        <ele>149.190034</ele>
        <time>2021-08-07T12:26:45.000Z</time>
      </trkpt>
      <trkpt lat="51.19871" lon="6.73352">
        <ele>149.608951</ele>
        <time>2021-08-07T12:26:55.000Z</time>
      </trkpt>
      <trkpt lat="51.19872" lon="6.73334">
        <ele>149.701171</ele>
        <time>2021-08-07T12:26:58.000Z</time>
      </trkpt>
      <trkpt lat="51.19873" lon="6.73302">
        <ele>149.795576</ele>
        <time>2021-08-07T12:27:04.000Z</time>
      </trkpt>
      <trkpt lat="51.19873" lon="6.73298">
        <ele>149.809267</ele>
        <time>2021-08-07T12:27:05.000Z</time>
      </trkpt>
      <trkpt lat="51.19877" lon="6.73247">
        <ele>149.9589</ele>
        <time>2021-08-07T12:27:14.000Z</time>
      </trkpt>
      <trkpt lat="51.19879" lon="6.73195">
        <ele>150.113548</ele>
        <time>2021-08-07T12:27:24.000Z</time>
      </trkpt>
      <trkpt lat="51.1988" lon="6.73158">
        <ele>150.224625</ele>
        <time>2021-08-07T12:27:31.000Z</time>
      </trkpt>
      <trkpt lat="51.19883" lon="6.73106">
        <ele>150.377876</ele>
        <time>2021-08-07T12:27:40.000Z</time>
      </trkpt>
      <trkpt lat="51.19886" lon="6.73064">
        <ele>150.504832</ele>
        <time>2021-08-07T12:27:47.000Z</time>
      </trkpt>
      <trkpt lat="51.19886" lon="6.73058">
        <ele>150.522323</ele>
        <time>2021-08-07T12:27:48.000Z</time>
      </trkpt>
      <trkpt lat="51.19889" lon="6.73012">
        <ele>150.160609</ele>
        <time>2021-08-07T12:27:56.000Z</time>
      </trkpt>
      <trkpt lat="51.1989" lon="6.72982">
        <ele>149.922191</ele>
        <time>2021-08-07T12:28:01.000Z</time>
      </trkpt>
      <trkpt lat="51.19894" lon="6.72927">
        <ele>149.482051</ele>
        <time>2021-08-07T12:28:09.000Z</time>
      </trkpt>
      <trkpt lat="51.19896" lon="6.72907">
        <ele>149.321246</ele>
        <time>2021-08-07T12:28:12.000Z</time>
      </trkpt>
      <trkpt lat="51.19899" lon="6.7286">
        <ele>148.943004</ele>
        <time>2021-08-07T12:28:19.000Z</time>
      </trkpt>
      <trkpt lat="51.19903" lon="6.72795">
        <ele>148.431183</ele>
        <time>2021-08-07T12:28:28.000Z</time>
      </trkpt>
      <trkpt lat="51.19906" lon="6.7275">
        <ele>147.830985</ele>
        <time>2021-08-07T12:28:34.000Z</time>
      </trkpt>
      <trkpt lat="51.19907" lon="6.72736">
        <ele>147.564589</ele>
        <time>2021-08-07T12:28:36.000Z</time>
      </trkpt>
      <trkpt lat="51.1991" lon="6.72682">
        <ele>146.535659</ele>
        <time>2021-08-07T12:28:44.000Z</time>
      </trkpt>
      <trkpt lat="51.19911" lon="6.72655">
        <ele>146.028804</ele>
        <time>2021-08-07T12:28:48.000Z</time>
      </trkpt>
      <trkpt lat="51.19914" lon="6.72626">
        <ele>145.477278</ele>
        <time>2021-08-07T12:28:52.000Z</time>
      </trkpt>
      <trkpt lat="51.19914" lon="6.72611">
        <ele>145.197763</ele>
        <time>2021-08-07T12:28:54.000Z</time>
      </trkpt>
      <trkpt lat="51.19919" lon="6.7253">
        <ele>143.670303</ele>
        <time>2021-08-07T12:29:05.000Z</time>
      </trkpt>
      <trkpt lat="51.1992" lon="6.72524">
        <ele>143.547666</ele>
        <time>2021-08-07T12:29:06.000Z</time>
      </trkpt>
      <trkpt lat="51.19921" lon="6.72501">
        <ele>143.113851</ele>
        <time>2021-08-07T12:29:10.000Z</time>
      </trkpt>
      <trkpt lat="51.19925" lon="6.72479">
        <ele>142.84577</ele>
        <time>2021-08-07T12:29:15.000Z</time>
      </trkpt>
      <trkpt lat="51.19926" lon="6.7248">
        <ele>142.84577</ele>
        <time>2021-08-07T12:29:19.000Z</time>
      </trkpt>
      <trkpt lat="51.19927" lon="6.72484">
        <ele>142.84577</ele>
        <time>2021-08-07T12:29:21.000Z</time>
      </trkpt>
      <trkpt lat="51.19929" lon="6.72492">
        <ele>142.84577</ele>
        <time>2021-08-07T12:29:24.000Z</time>
      </trkpt>
      <trkpt lat="51.19929" lon="6.72495">
        <ele>142.84577</ele>
        <time>2021-08-07T12:29:25.000Z</time>
      </trkpt>
      <trkpt lat="51.1993" lon="6.72504">
        <ele>142.84577</ele>
        <time>2021-08-07T12:29:28.000Z</time>
      </trkpt>
      <trkpt lat="51.1993" lon="6.72511">
        <ele>142.84577</ele>
        <time>2021-08-07T12:29:30.000Z</time>
      </trkpt>
      <trkpt lat="51.19931" lon="6.72514">
        <ele>142.84577</ele>
        <time>2021-08-07T12:29:31.000Z</time>
      </trkpt>
      <trkpt lat="51.19932" lon="6.72523">
        <ele>142.84577</ele>
        <time>2021-08-07T12:29:34.000Z</time>
      </trkpt>
      <trkpt lat="51.19932" lon="6.72527">
        <ele>142.84577</ele>
        <time>2021-08-07T12:29:36.000Z</time>
      </trkpt>
      <trkpt lat="51.19933" lon="6.72528">
        <ele>142.84577</ele>
        <time>2021-08-07T12:29:37.000Z</time>
      </trkpt>
      <trkpt lat="51.19933" lon="6.72529">
        <ele>142.84577</ele>
        <time>2021-08-07T12:29:38.000Z</time>
      </trkpt>
      <trkpt lat="51.19937" lon="6.72529">
        <ele>142.84577</ele>
        <time>2021-08-07T12:29:40.000Z</time>
      </trkpt>
      <trkpt lat="51.19945" lon="6.72527">
        <ele>142.84577</ele>
        <time>2021-08-07T12:29:42.000Z</time>
      </trkpt>
      <trkpt lat="51.19953" lon="6.72523">
        <ele>142.84577</ele>
        <time>2021-08-07T12:29:44.000Z</time>
      </trkpt>
      <trkpt lat="51.19958" lon="6.72521">
        <ele>142.84577</ele>
        <time>2021-08-07T12:29:45.000Z</time>
      </trkpt>
      <trkpt lat="51.19967" lon="6.72516">
        <ele>142.84577</ele>
        <time>2021-08-07T12:29:47.000Z</time>
      </trkpt>
      <trkpt lat="51.19978" lon="6.7251">
        <ele>142.84577</ele>
        <time>2021-08-07T12:29:49.000Z</time>
      </trkpt>
      <trkpt lat="51.20003" lon="6.72499">
        <ele>142.84577</ele>
        <time>2021-08-07T12:29:54.000Z</time>
      </trkpt>
      <trkpt lat="51.20021" lon="6.72488">
        <ele>142.84577</ele>
        <time>2021-08-07T12:29:59.000Z</time>
      </trkpt>
      <trkpt lat="51.20037" lon="6.72478">
        <ele>142.84577</ele>
        <time>2021-08-07T12:30:04.000Z</time>
      </trkpt>
      <trkpt lat="51.2004" lon="6.72476">
        <ele>142.84577</ele>
        <time>2021-08-07T12:30:05.000Z</time>
      </trkpt>
      <trkpt lat="51.2005" lon="6.72468">
        <ele>142.84577</ele>
        <time>2021-08-07T12:30:10.000Z</time>
      </trkpt>
      <trkpt lat="51.20054" lon="6.72464">
        <ele>142.84577</ele>
        <time>2021-08-07T12:30:12.000Z</time>
      </trkpt>
      <trkpt lat="51.20061" lon="6.7246">
        <ele>142.84577</ele>
        <time>2021-08-07T12:30:15.000Z</time>
      </trkpt>
      <trkpt lat="51.2006" lon="6.72444">
        <ele>142.84577</ele>
        <time>2021-08-07T12:30:19.000Z</time>
      </trkpt>
      <trkpt lat="51.20059" lon="6.7244">
        <ele>142.84577</ele>
        <time>2021-08-07T12:30:20.000Z</time>
      </trkpt>
      <trkpt lat="51.20061" lon="6.72433">
        <ele>142.84577</ele>
        <time>2021-08-07T12:30:22.000Z</time>
      </trkpt>
      <trkpt lat="51.20063" lon="6.72432">
        <ele>142.84577</ele>
        <time>2021-08-07T12:30:23.000Z</time>
      </trkpt>
      <trkpt lat="51.20077" lon="6.72429">
        <ele>142.84577</ele>
        <time>2021-08-07T12:30:29.000Z</time>
      </trkpt>
      <trkpt lat="51.2008" lon="6.72428">
        <ele>142.84577</ele>
        <time>2021-08-07T12:30:30.000Z</time>
      </trkpt>
      <trkpt lat="51.20088" lon="6.72425">
        <ele>142.84577</ele>
        <time>2021-08-07T12:30:34.000Z</time>
      </trkpt>
      <trkpt lat="51.2009" lon="6.72425">
        <ele>142.84577</ele>
        <time>2021-08-07T12:30:35.000Z</time>
      </trkpt>
      <trkpt lat="51.20098" lon="6.72426">
        <ele>142.84577</ele>
        <time>2021-08-07T12:30:41.000Z</time>
      </trkpt>
      <trkpt lat="51.20099" lon="6.72427">
        <ele>142.84577</ele>
        <time>2021-08-07T12:30:42.000Z</time>
      </trkpt>
      <trkpt lat="51.20099" lon="6.72428">
        <ele>142.84577</ele>
        <time>2021-08-07T12:30:44.000Z</time>
      </trkpt>
      <trkpt lat="51.20099" lon="6.7243">
        <ele>142.84577</ele>
        <time>2021-08-07T12:30:49.000Z</time>
      </trkpt>
      <trkpt lat="51.20099" lon="6.7243">
        <ele>142.84577</ele>
        <time>2021-08-07T12:30:52.000Z</time>
      </trkpt>
      <trkpt lat="51.20099" lon="6.72431">
        <ele>142.84577</ele>
        <time>2021-08-07T12:30:57.000Z</time>
      </trkpt>
      <trkpt lat="51.20099" lon="6.72431">
        <ele>142.84577</ele>
        <time>2021-08-07T12:31:02.000Z</time>
      </trkpt>
      <trkpt lat="51.20099" lon="6.72431">
        <ele>142.84577</ele>
        <time>2021-08-07T12:31:12.000Z</time>
      </trkpt>
      <trkpt lat="51.201" lon="6.72433">
        <ele>142.84577</ele>
        <time>2021-08-07T12:31:28.000Z</time>
      </trkpt>
      <trkpt lat="51.201" lon="6.72432">
        <ele>142.84577</ele>
        <time>2021-08-07T12:31:29.000Z</time>
      </trkpt>
      <trkpt lat="51.20101" lon="6.72433">
        <ele>142.84577</ele>
        <time>2021-08-07T12:31:30.000Z</time>
      </trkpt>
      <trkpt lat="51.20098" lon="6.72436">
        <ele>142.84577</ele>
        <time>2021-08-07T12:31:32.000Z</time>
      </trkpt>
      <trkpt lat="51.20097" lon="6.72442">
        <ele>142.84577</ele>
        <time>2021-08-07T12:31:34.000Z</time>
      </trkpt>
    </trkseg>
  </trk>
</gpx>